ECMWFFLT2_700_rhum_042.txt.gz
RH
58 63 70 75 77 80 85 90 96 98 99 98 100 100 96 95 99 101 99 100 101 99 101 98 95 97 93 91 93 88 89 91 88 88 89 91 88 80 77 74 67 70 75 81 85 82 83 78 76 77 66 59
67 68 71 76 77 77 79 82 88 92 94 95 96 97 93 91 94 98 100 100 101 100 100 100 98 98 89 87 93 87 87 94 96 94 89 91 94 91 86 84 80 74 71 79 88 87 85 82 86 85 73 73
76 75 76 79 81 81 79 79 81 84 87 90 92 93 92 91 90 91 96 98 98 99 99 100 100 101 96 92 94 93 95 98 98 98 95 93 94 94 94 94 90 84 78 75 82 91 92 91 94 91 80 77
81 82 82 82 84 85 84 82 79 80 80 82 85 88 90 90 90 88 90 94 96 96 96 99 100 100 100 98 99 99 99 99 99 100 99 98 96 93 94 98 97 93 88 80 78 85 90 93 95 88 78 73
82 84 86 87 87 87 87 86 83 81 79 78 79 81 84 85 87 87 86 88 92 96 97 99 100 100 100 99 99 100 100 99 100 100 100 100 100 97 96 98 100 99 93 86 83 82 83 89 93 91 83 77
83 83 84 87 88 89 89 88 87 85 83 79 77 77 80 82 82 82 82 82 84 90 96 98 99 100 100 99 98 99 99 100 100 100 100 100 100 100 100 99 99 100 98 93 89 86 87 88 87 87 83 77
84 84 84 85 85 88 89 89 89 87 86 84 80 78 78 81 82 81 79 79 78 80 85 90 96 99 100 100 100 100 99 100 100 100 100 100 100 99 99 100 100 100 100 99 96 92 93 91 87 86 82 76
75 78 81 83 82 83 85 88 90 89 88 86 84 82 80 80 81 81 80 78 76 75 76 78 83 90 96 99 100 100 100 99 100 100 100 100 100 100 99 99 100 100 100 100 99 96 95 94 94 96 92 84
62 66 71 76 78 77 78 82 86 89 90 89 87 85 83 81 80 80 80 79 77 75 74 74 74 77 83 91 96 99 99 99 100 100 99 100 100 100 100 100 100 100 100 100 100 99 98 98 97 99 99 91
54 57 60 64 65 65 67 71 77 83 88 90 90 89 87 85 83 81 80 79 78 76 75 74 73 72 72 76 82 90 95 97 99 100 100 100 101 100 100 100 100 100 100 100 100 97 97 100 99 99 100 96
44 48 51 53 53 52 54 59 65 72 79 85 88 91 92 91 89 86 83 80 78 77 75 74 73 71 69 67 67 72 80 87 91 96 100 100 100 100 100 100 100 100 100 100 99 94 95 100 100 100 100 99
30 35 41 43 44 43 42 46 54 61 68 73 76 81 85 87 87 86 84 80 78 78 76 74 72 70 69 66 62 59 62 69 76 83 91 98 99 97 97 99 100 100 100 100 100 97 97 100 100 100 100 100
15 19 25 29 34 34 33 33 39 48 59 64 65 66 70 73 75 77 80 80 79 77 77 76 73 71 69 67 63 58 55 55 60 67 74 85 94 94 92 93 96 99 100 100 100 99 99 100 100 100 99 101
9 9 10 13 18 22 25 26 27 32 43 56 61 58 59 64 64 65 69 74 78 78 77 76 75 73 71 69 65 61 58 54 53 55 59 67 79 90 91 89 89 93 97 97 99 100 100 100 100 100 99 100
15 12 10 8 8 10 14 18 21 23 27 40 50 49 49 56 58 57 59 63 69 74 77 77 76 74 73 71 69 65 61 58 56 53 54 56 62 74 86 90 88 88 92 93 94 98 100 101 99 100 100 100
24 22 18 15 12 9 8 8 12 16 18 22 32 36 37 44 50 51 53 54 57 63 69 74 76 76 75 72 71 69 65 62 60 57 55 54 54 59 70 84 89 90 93 94 93 93 96 101 100 99 100 100
29 29 28 26 23 19 15 12 8 7 9 11 15 22 25 32 39 44 47 46 48 53 57 63 69 73 76 75 72 69 68 66 63 60 59 58 56 55 58 69 83 92 97 98 96 90 88 97 101 99 100 100
34 33 34 35 34 32 27 23 19 11 6 5 6 9 13 19 25 33 40 40 40 44 48 52 57 63 69 73 74 72 69 67 65 63 62 61 60 60 58 59 67 82 94 100 98 87 81 90 100 100 99 100
40 40 40 41 43 43 39 33 29 25 16 10 7 4 5 8 12 18 26 31 33 35 39 43 46 51 57 64 70 73 73 70 68 65 64 64 62 62 63 62 62 66 77 92 99 91 79 84 97 101 99 99
41 44 44 45 47 49 50 44 37 34 30 24 18 11 6 5 5 7 12 18 23 26 29 33 36 40 44 51 58 65 70 72 71 68 66 65 64 63 64 66 67 65 64 73 89 97 90 82 86 94 99 100
40 44 46 45 48 50 52 52 46 40 37 34 30 24 18 14 10 6 5 8 12 15 17 20 25 29 32 36 43 51 59 65 70 71 70 67 66 64 64 65 67 70 66 63 71 86 97 91 81 82 91 98
38 42 45 45 48 51 51 53 53 49 44 40 38 34 31 27 23 18 12 8 7 8 9 11 15 19 23 25 29 37 44 51 59 66 70 70 69 66 64 64 64 67 68 66 64 68 85 96 90 83 84 91
38 42 44 46 47 51 52 53 55 56 52 47 43 41 39 36 32 28 25 21 15 11 8 7 8 9 13 17 20 24 30 35 42 51 60 66 70 70 68 65 64 65 66 65 65 62 68 83 92 93 88 86
39 42 43 45 46 48 52 54 55 55 55 53 50 46 42 37 33 31 31 32 29 25 20 15 12 8 6 9 13 17 19 23 28 35 45 53 60 67 70 69 66 64 64 62 63 63 62 67 78 90 96 92
37 41 42 43 44 45 47 51 52 53 54 55 54 50 43 35 33 33 34 34 34 33 32 29 26 20 12 7 7 11 14 17 20 24 32 40 47 55 62 68 70 68 65 62 60 62 61 60 64 72 86 97
34 39 42 43 43 42 43 46 48 49 52 54 54 52 47 40 36 37 37 36 36 35 34 33 32 29 24 15 8 6 8 12 16 18 22 28 34 41 48 56 65 70 69 66 62 61 59 58 61 62 68 83
32 38 42 43 42 42 42 44 45 45 48 50 53 57 55 50 44 42 41 39 38 37 34 32 30 29 27 24 19 12 7 6 9 13 15 18 23 29 36 42 50 61 68 69 66 63 61 59 59 61 61 67
31 37 40 42 43 43 43 43 44 44 45 45 49 55 58 57 53 48 46 44 42 39 36 33 30 29 28 27 27 23 17 10 6 6 9 12 15 18 24 30 36 46 57 65 68 67 65 63 59 58 60 62
29 35 37 39 42 45 45 46 45 44 44 45 45 48 51 54 53 51 48 46 45 44 42 40 37 34 32 30 29 29 27 22 15 8 6 6 9 13 16 20 25 33 44 54 63 67 66 66 64 59 58 59
25 32 35 36 38 41 44 46 47 46 45 45 45 46 49 51 52 51 51 50 49 49 48 46 44 41 38 35 32 31 30 29 27 21 15 9 5 7 10 14 17 21 32 43 53 62 65 66 66 63 61 58
21 29 34 35 36 38 42 45 46 46 46 46 46 47 48 50 51 51 51 51 51 50 49 47 47 45 43 41 38 36 34 32 32 29 26 21 12 6 5 8 13 14 20 32 45 55 61 64 65 64 65 63

ECMWFFLT2_700_rhum_045.txt.gz
RH
35 49 53 50 46 47 49 49 46 44 47 56 64 69 74 80 85 87 90 94 96 98 99 100 100 99 101 99 100 101 100 100 99 98 94 89 88 85 83 84 83 85 87 83 80 86 91 83 77 66 50 55
35 49 57 59 57 56 57 60 59 54 51 55 64 71 74 79 83 85 86 89 92 95 98 100 100 99 100 99 100 101 100 100 100 100 97 94 93 91 89 85 84 88 92 89 80 81 90 92 87 74 62 61
29 41 52 58 60 60 60 64 68 67 62 59 64 73 76 79 82 85 85 85 88 89 92 98 100 100 100 99 99 100 100 97 96 98 98 99 98 99 97 90 88 91 95 97 92 86 87 94 96 90 79 70
30 36 44 53 58 60 60 63 67 71 70 66 66 72 78 79 81 85 85 83 84 85 85 90 97 99 100 100 99 100 101 99 94 91 92 97 100 100 100 94 92 95 96 97 95 90 88 87 91 94 87 77
33 36 40 46 53 59 61 60 62 67 70 69 67 69 76 80 81 83 86 85 84 85 82 82 91 95 98 100 100 100 100 101 98 92 89 92 99 100 100 99 97 97 98 97 95 93 89 84 86 91 92 86
22 30 35 38 43 50 57 60 61 63 66 68 67 66 70 75 80 82 84 86 85 87 84 79 84 89 92 95 98 100 100 100 100 99 96 94 99 100 100 100 99 100 99 99 99 98 92 86 84 85 94 98
11 17 24 31 35 39 45 53 58 61 63 65 65 64 65 68 73 79 82 84 85 87 88 81 79 83 86 87 92 97 100 101 99 100 100 99 100 100 100 100 99 100 100 100 100 100 97 93 87 82 91 100
9 9 12 17 24 30 35 41 47 54 59 63 64 63 62 63 65 70 76 81 84 85 88 86 79 78 80 82 85 90 95 99 99 99 100 101 100 100 100 100 100 99 100 100 100 100 100 99 93 87 90 97
12 11 10 10 12 17 24 31 39 45 50 56 61 62 61 61 62 64 68 74 80 82 86 88 84 78 77 79 80 83 87 92 95 96 99 101 99 100 100 100 100 100 100 100 100 100 100 100 99 96 94 92
15 14 13 12 10 9 11 17 26 35 42 47 51 56 57 58 59 60 63 68 73 78 81 85 87 83 78 77 78 78 81 84 89 91 95 100 100 100 100 100 100 100 100 100 100 100 100 100 100 100 97 93
18 18 16 15 15 13 10 8 12 20 29 37 42 45 48 51 54 56 60 64 69 74 77 80 84 86 82 78 76 76 75 77 80 84 88 93 98 98 99 100 100 100 100 100 100 100 100 99 100 101 99 97
17 17 18 18 18 17 16 12 8 9 14 22 30 36 39 41 44 49 54 59 64 70 74 76 79 84 86 82 78 75 73 72 73 75 79 84 90 93 95 98 99 100 100 100 101 100 100 100 99 100 100 100
14 14 15 16 17 18 19 18 15 10 7 9 15 23 30 33 35 39 46 52 57 63 70 75 77 79 83 85 82 78 74 70 70 70 71 74 79 85 88 90 93 97 99 99 100 100 100 100 100 100 100 101
13 13 14 14 14 14 15 18 20 19 14 9 7 9 15 23 28 31 35 42 49 54 60 67 73 77 79 81 81 80 77 72 69 67 67 69 70 74 78 81 83 87 92 95 96 98 100 100 100 100 100 100
12 11 10 10 10 11 12 13 16 20 21 18 12 7 6 10 17 23 27 31 38 45 50 56 62 69 72 74 76 77 77 76 73 69 66 66 66 67 69 72 74 75 80 86 89 93 97 100 99 100 100 100
10 9 8 8 9 11 13 16 17 17 20 24 23 17 10 6 7 12 18 23 29 36 42 47 51 57 62 65 68 72 74 74 75 73 69 66 65 64 65 66 67 66 68 74 80 84 90 97 99 100 101 100
8 8 8 10 14 17 19 20 23 23 22 25 29 29 23 15 9 7 9 14 20 27 33 40 44 46 51 55 58 63 68 70 71 72 72 70 67 65 63 62 63 62 60 63 69 75 81 88 95 98 99 100
8 8 9 12 17 24 27 27 27 29 29 28 29 32 33 29 21 13 8 7 10 16 23 31 37 39 42 46 49 53 58 63 66 68 69 70 69 67 64 61 61 61 57 57 58 63 71 77 85 91 95 99
9 9 10 12 17 24 30 33 33 33 33 33 32 32 34 35 32 25 17 10 7 7 12 19 27 33 36 38 42 46 49 53 59 62 64 66 67 68 67 63 60 59 56 55 53 54 58 64 71 79 86 92
10 11 10 11 16 22 27 33 37 37 36 36 37 36 35 35 36 34 27 19 13 8 6 8 15 23 30 34 36 40 43 45 49 55 58 61 63 64 66 65 61 58 54 51 50 49 49 51 56 63 72 82
11 12 12 11 15 20 25 30 35 38 38 38 39 39 38 36 35 37 33 26 20 16 10 6 7 11 19 26 30 35 38 39 42 46 51 55 57 59 61 64 63 61 56 51 48 46 44 44 45 49 57 68
13 13 12 12 14 20 24 28 32 36 37 38 39 40 39 36 34 36 37 32 26 23 19 13 8 6 9 15 21 27 32 34 36 39 43 48 52 54 56 58 62 63 61 55 50 47 44 42 41 40 46 58
13 14 13 13 15 20 25 29 33 36 37 37 38 39 38 37 36 36 38 37 33 27 25 22 17 11 8 8 12 17 22 26 29 33 36 40 45 49 52 53 55 59 61 60 55 51 48 44 41 39 40 51
13 14 14 13 14 19 24 30 35 38 38 36 36 37 39 37 36 37 38 39 38 32 28 28 26 22 17 12 9 10 12 16 20 25 29 32 37 41 46 49 51 53 55 58 58 55 53 50 47 44 42 45
12 14 14 12 13 17 22 26 32 37 39 37 36 36 38 37 36 36 38 40 42 38 31 30 31 30 28 24 19 13 10 11 12 16 20 24 28 32 37 43 47 49 50 52 55 56 55 55 54 51 50 49
12 14 15 13 12 15 20 24 27 32 36 37 37 36 36 37 36 35 37 41 44 42 36 33 33 33 32 30 27 22 17 14 12 11 12 14 18 22 27 32 38 43 46 47 49 53 54 56 59 57 56 56
12 14 15 14 13 13 18 23 26 28 31 34 35 35 35 36 36 35 37 39 42 43 38 34 32 32 31 29 28 26 24 21 19 16 13 10 10 13 17 22 27 32 39 43 45 47 49 53 57 60 59 58
10 13 16 15 14 13 15 22 26 27 29 31 33 35 34 34 35 35 36 37 39 40 39 35 33 32 30 29 29 28 27 26 25 24 21 17 13 10 10 12 17 22 28 34 39 42 44 48 50 55 60 58
10 12 15 17 15 13 16 22 26 26 28 31 32 34 35 34 34 35 36 37 39 40 40 40 39 38 36 35 35 33 31 29 28 27 25 24 20 16 12 9 10 13 18 23 29 34 38 41 44 47 53 55
10 11 14 17 17 15 17 23 27 27 29 31 33 34 35 35 35 36 37 37 39 40 41 42 42 41 41 40 39 38 37 36 34 32 29 27 25 23 20 15 10 8 10 13 18 25 29 33 38 41 45 48
9 11 13 17 18 16 17 21 25 28 30 32 34 35 35 36 37 37 39 39 40 41 41 42 41 41 40 39 39 38 38 37 37 36 34 32 29 27 25 22 18 12 8 8 10 15 20 25 30 34 38 42

ECMWFFLT2_700_rhum_051.txt.gz
RH
3 3 2 3 2 2 2 2 2 2 2 2 2 1 2 2 1 2 1 1 2 1 1 2 1 2 13 34 52 62 76 89 93 95 99 100 100 99 99 99 99 100 99 94 90 92 92 92 96 98 100 100
3 3 3 2 2 2 2 2 2 2 2 2 2 2 2 2 2 1 2 2 1 2 2 1 2 2 1 7 17 25 44 68 81 87 93 96 98 98 98 99 99 99 100 100 98 97 97 96 98 99 100 101
3 3 3 3 2 2 2 2 2 2 2 2 2 2 2 2 2 2 2 2 2 1 2 3 1 2 2 1 4 7 16 37 57 70 79 87 92 93 94 97 100 99 98 101 101 98 99 100 100 101 100 101
4 3 3 3 2 2 2 2 2 2 2 2 2 2 2 2 2 2 2 2 2 2 1 2 3 2 3 2 2 3 4 14 32 48 60 73 82 87 89 92 97 99 98 99 101 100 100 100 100 100 101 101
3 3 3 3 3 2 2 2 2 2 2 2 2 2 2 2 2 2 2 2 1 2 2 2 3 3 3 3 3 3 3 5 15 28 42 57 69 78 84 88 92 97 99 98 99 101 101 100 100 100 101 101
3 3 3 3 3 3 2 2 2 2 2 2 2 2 2 2 2 2 2 2 2 2 2 2 2 3 4 4 4 4 4 4 9 16 26 42 56 65 73 81 87 93 99 99 99 99 101 101 100 100 100 101
4 3 3 3 2 2 3 2 2 2 2 2 2 2 2 2 2 2 2 2 2 3 2 3 2 3 4 5 5 6 6 6 9 11 16 29 45 54 62 71 79 87 95 99 99 98 100 101 100 100 99 100
4 4 3 3 3 3 3 2 2 2 2 2 3 3 2 3 2 2 3 3 3 3 3 3 3 3 4 5 6 7 8 8 9 12 13 21 35 46 54 61 68 78 89 95 98 98 99 100 100 100 100 100
6 5 4 3 3 3 3 3 3 2 3 3 2 3 3 2 3 3 3 3 3 3 3 3 3 3 3 5 6 8 9 9 9 13 16 19 30 41 48 54 59 68 80 89 95 98 99 99 100 100 101 101
8 6 4 4 3 3 3 3 3 3 3 3 3 3 3 3 2 3 3 3 4 4 4 4 3 3 3 4 5 7 10 11 9 10 16 21 29 39 46 49 55 62 70 81 90 96 99 99 99 100 100 100
11 8 5 4 3 3 3 3 3 3 3 3 3 3 3 3 3 3 3 4 4 5 5 5 5 5 5 4 4 5 8 13 13 9 12 19 28 39 46 47 52 60 65 72 82 90 97 100 99 99 100 100
15 11 7 5 4 3 3 3 3 3 3 3 3 3 3 3 3 3 3 4 5 7 8 8 9 8 7 7 6 6 6 11 15 14 10 13 23 36 46 48 51 59 64 66 73 83 90 98 100 99 100 100
19 15 10 7 5 4 3 3 4 3 3 3 3 3 3 3 3 4 4 5 6 9 10 11 12 11 10 10 8 7 8 11 15 17 13 10 16 30 43 49 52 57 63 64 67 75 82 91 98 100 100 100
24 20 15 10 7 4 3 3 4 4 3 3 4 3 4 4 4 4 4 6 7 9 11 12 12 12 12 12 11 9 8 13 18 19 17 11 10 23 39 46 53 58 61 64 65 70 76 82 92 98 100 100
29 26 20 14 9 5 4 4 4 4 4 4 4 4 4 4 4 4 5 6 8 9 10 12 13 12 13 13 14 12 9 14 22 23 19 15 9 16 33 43 51 58 61 64 65 68 73 76 83 93 98 100
35 31 27 19 12 7 4 4 5 4 4 4 4 4 4 4 4 4 5 6 7 9 10 12 13 13 14 15 15 15 12 13 23 29 23 17 11 10 25 40 49 57 62 64 65 67 71 74 76 85 93 98
41 37 33 26 17 9 4 4 5 5 5 4 4 4 5 5 5 4 5 6 8 9 10 12 13 14 15 16 17 18 17 15 21 31 28 20 13 9 16 32 46 56 62 65 66 66 70 73 73 78 86 92
45 43 39 34 24 13 6 4 5 6 6 5 5 5 5 5 5 5 5 6 8 9 10 12 13 15 16 17 19 20 20 18 20 29 32 24 16 10 10 22 39 52 60 64 67 66 69 72 72 75 80 85
48 47 45 40 32 20 10 5 5 6 6 6 5 5 5 6 6 6 5 6 8 9 10 12 13 14 16 18 20 21 22 21 20 27 32 27 19 12 8 13 27 44 55 61 66 67 68 71 71 72 78 81
50 51 49 46 40 28 15 8 6 6 6 7 6 5 5 6 7 6 6 6 7 9 11 12 14 14 17 19 21 22 23 23 22 26 32 29 20 14 10 9 16 31 46 55 61 66 68 70 70 70 76 81
52 53 53 51 47 37 24 14 8 6 6 7 7 6 6 6 7 7 7 6 6 9 11 12 14 15 17 19 21 22 22 23 24 26 31 30 22 16 12 9 9 18 35 47 54 61 67 71 72 71 74 78
53 55 56 54 51 45 33 21 12 7 6 7 8 7 6 6 7 8 8 7 6 8 10 12 14 15 17 18 20 21 21 22 23 26 30 31 25 19 14 11 9 10 20 36 47 55 61 68 72 72 74 77
54 55 57 58 56 50 42 30 18 9 7 8 9 8 7 6 6 8 9 8 7 7 10 12 14 16 17 18 19 19 20 21 22 24 27 30 28 23 18 13 10 8 10 20 35 46 54 61 67 71 74 77
54 55 58 60 60 57 49 38 23 13 9 8 9 9 8 7 7 8 9 9 8 8 9 12 15 17 18 18 19 19 19 20 22 23 25 28 28 26 22 18 14 10 7 8 18 32 44 51 57 63 69 73
55 56 59 62 62 61 56 45 29 17 11 9 10 11 9 8 7 8 10 10 9 8 9 12 15 17 19 19 19 20 19 20 22 23 24 26 26 26 24 23 20 15 11 7 7 15 29 39 45 50 59 66
56 58 60 64 65 65 62 52 37 22 12 9 10 12 11 9 8 8 10 11 10 9 10 12 15 18 20 20 20 20 20 20 22 23 25 26 26 25 24 24 24 21 17 13 9 8 14 24 32 38 46 56
57 59 62 66 66 67 67 59 46 30 15 9 10 13 14 10 8 9 11 12 11 10 11 13 15 17 20 22 22 22 22 21 22 24 26 27 27 25 23 23 23 23 21 18 16 14 10 12 19 26 32 43
59 61 64 68 68 69 69 64 55 39 22 12 10 14 16 13 10 9 11 13 13 11 12 14 16 17 20 22 23 24 24 24 24 25 26 27 27 26 25 25 26 26 25 22 19 18 15 12 12 17 22 28
61 64 67 69 70 71 71 69 63 50 32 17 10 12 17 16 12 10 11 13 14 13 13 16 17 19 20 22 23 24 25 26 26 26 27 27 28 28 27 27 29 29 29 27 23 20 20 17 13 12 16 19
64 67 70 72 73 74 74 74 70 59 43 23 9 9 16 20 16 11 12 14 15 14 14 17 19 21 22 23 25 26 26 27 27 27 28 28 28 28 28 27 29 30 31 31 29 24 23 22 18 13 12 15
68 70 73 75 75 75 76 77 74 66 54 33 12 8 15 22 20 14 12 15 17 16 16 18 20 22 24 25 27 28 29 29 30 30 29 29 29 28 28 28 27 29 31 33 33 30 27 25 23 19 15 12

ECMWFFLT2_700_rhum_054.txt.gz
RH
12 12 11 11 10 10 9 9 8 8 7 7 6 5 5 5 4 4 4 4 3 2 3 2 1 2 1 1 2 0 2 1 0 23 64 94 101 99 98 97 96 97 99 101 100 99 99 93 87 87 90 95
13 13 13 12 12 11 10 10 9 9 9 8 7 6 5 5 5 5 4 4 4 3 2 2 1 2 2 0 2 1 0 2 1 -0 16 49 78 94 98 94 95 99 100 99 99 98 100 100 94 89 90 94
15 15 14 14 13 13 12 11 11 10 9 9 7 7 7 6 6 5 5 4 3 4 2 2 2 1 2 1 1 2 1 0 2 2 -0 7 25 52 74 86 92 95 99 100 98 98 99 100 100 94 90 92
17 17 16 16 15 14 13 13 12 12 10 9 8 7 8 7 7 6 5 5 4 3 3 2 2 1 1 2 1 0 2 1 0 1 2 1 0 8 24 47 72 87 93 98 99 99 99 99 100 100 96 92
20 20 19 18 17 16 15 14 13 13 12 10 9 8 8 7 7 7 6 5 5 4 3 3 2 2 1 1 2 1 1 1 1 1 0 2 1 1 1 7 34 67 86 91 93 95 98 100 99 100 101 97
22 22 22 21 20 19 18 17 15 14 13 11 10 8 8 8 7 6 6 5 4 4 3 3 2 2 2 2 1 1 1 1 1 2 1 1 1 1 2 0 5 31 60 78 85 89 92 97 99 100 101 100
25 25 25 25 23 22 21 19 18 16 15 13 10 9 7 7 7 5 5 4 3 3 3 3 3 2 2 2 2 1 1 2 1 1 1 1 2 1 1 3 1 4 22 50 72 82 86 90 95 99 100 100
28 28 28 28 27 26 25 23 21 19 17 15 11 10 8 7 5 4 4 4 3 2 3 2 2 2 2 2 1 2 1 1 1 1 2 1 1 2 1 1 3 1 3 19 44 64 76 83 88 93 99 100
32 32 32 31 30 29 29 27 25 24 21 18 15 11 9 8 6 4 3 3 3 3 3 3 2 2 2 2 1 2 2 2 2 1 1 2 1 1 2 2 2 3 2 5 17 37 58 73 81 86 93 99
36 36 35 34 33 32 32 31 29 28 26 22 19 15 11 9 7 5 4 3 3 3 2 2 2 2 2 2 2 2 2 2 2 2 1 1 2 2 1 2 2 2 2 3 6 18 38 58 73 79 84 93
36 36 36 35 35 35 34 33 32 31 29 27 23 19 14 11 9 6 4 4 3 3 3 3 2 2 2 2 2 2 3 3 2 2 2 2 2 2 2 2 3 3 2 3 5 10 24 44 63 74 78 84
36 36 36 36 36 36 36 35 35 34 33 32 28 23 18 13 11 8 5 4 3 3 2 3 3 2 2 2 3 3 3 3 4 3 3 3 3 3 3 3 3 3 3 3 5 8 16 35 55 68 74 77
36 37 37 37 37 37 37 37 37 37 36 35 32 28 22 16 12 9 6 5 3 3 3 3 3 3 3 3 3 3 4 4 4 5 4 4 4 4 4 4 3 3 4 4 5 8 13 29 48 61 67 72
36 37 37 37 38 38 38 39 39 39 39 38 37 33 27 19 14 10 7 5 4 3 3 3 3 3 3 3 3 3 4 5 5 5 6 6 6 5 5 5 4 4 5 5 6 8 11 23 41 54 61 66
35 35 37 37 38 39 40 41 41 41 41 41 40 38 32 23 15 11 8 6 4 4 3 3 3 3 3 3 3 4 4 5 6 6 6 8 8 7 6 7 5 4 6 7 7 9 11 19 35 49 57 62
35 34 35 37 39 40 41 42 42 42 43 43 43 42 38 28 18 12 9 6 4 4 4 4 4 3 4 3 3 4 5 5 6 7 7 8 10 10 8 8 7 5 5 8 9 10 11 17 32 49 58 61
36 36 35 37 40 42 42 42 42 43 44 45 45 45 42 33 22 13 10 7 5 4 4 4 4 4 4 4 4 4 4 6 7 7 8 9 11 12 12 9 9 7 5 8 11 11 12 15 29 51 62 63
36 37 37 39 40 42 42 42 42 43 45 46 46 46 45 39 25 15 11 8 6 5 4 4 4 5 5 4 4 4 4 6 7 8 9 10 12 14 14 12 10 9 6 8 12 12 12 15 28 51 64 67
35 38 39 40 41 42 42 42 43 44 46 48 49 48 48 44 31 18 12 8 7 6 5 5 5 5 5 5 4 4 5 6 8 9 10 11 13 14 15 14 11 10 8 9 13 13 11 14 26 46 63 72
33 38 41 42 42 42 43 43 43 45 47 49 50 50 50 47 37 23 14 9 8 7 6 5 5 5 6 6 6 5 5 7 8 9 11 12 13 14 15 15 13 11 10 12 15 13 10 12 22 41 59 72
33 37 41 42 42 43 43 44 45 47 49 50 52 52 52 51 43 29 17 10 9 8 7 6 5 6 6 7 6 6 5 7 9 10 11 13 14 15 15 16 14 13 13 14 17 14 10 9 15 34 55 68
33 36 40 43 43 44 46 46 47 49 50 52 53 53 54 54 50 38 23 13 10 9 8 7 6 6 7 8 7 7 6 7 9 11 12 13 15 16 16 18 16 15 16 17 18 15 11 9 9 22 46 63
34 36 40 43 43 46 49 49 49 51 53 54 55 55 56 56 55 46 31 18 12 11 10 7 7 7 7 8 8 7 7 8 10 12 13 15 16 17 18 20 20 18 19 19 18 17 14 13 12 14 32 54
38 39 41 43 45 49 52 52 52 53 54 56 57 56 57 59 57 51 39 24 14 12 11 9 7 7 7 9 9 8 8 9 11 13 14 16 17 18 19 22 23 23 22 21 19 17 15 15 16 16 23 41
46 46 47 47 48 52 55 55 56 56 56 58 59 58 59 61 60 56 46 30 17 13 12 11 9 8 8 9 10 10 9 10 12 14 16 18 18 19 21 24 26 26 25 23 21 18 17 16 18 19 21 32
59 57 56 55 54 56 58 59 60 61 61 61 61 61 62 63 62 60 52 36 20 14 14 12 10 9 9 10 11 11 11 11 13 15 17 19 20 21 23 26 27 29 27 24 22 20 18 17 18 21 23 28
73 71 68 67 65 64 64 64 65 67 68 68 66 65 65 65 65 63 57 45 26 14 14 14 12 10 10 11 12 12 12 13 15 17 19 20 22 23 25 27 28 29 29 27 25 23 21 19 19 20 22 27
82 81 79 79 77 75 74 74 73 74 75 75 73 72 71 69 68 66 62 53 34 16 14 16 14 12 12 12 13 14 14 15 17 19 21 22 23 24 26 28 29 28 29 29 27 25 24 22 21 22 23 27
86 88 87 87 86 85 83 82 84 84 84 83 81 79 78 74 70 69 66 59 43 22 14 17 17 13 13 14 14 15 15 17 20 22 24 26 26 27 28 30 31 30 30 29 28 26 25 23 22 23 24 27
83 91 92 91 91 88 86 85 88 89 90 92 91 88 85 80 74 72 69 65 53 32 16 16 20 16 14 16 16 16 17 18 21 23 26 27 28 29 30 32 35 35 34 32 30 28 26 25 23 23 25 26
71 84 91 91 90 88 86 87 88 86 85 89 94 96 93 87 81 76 73 69 61 43 21 14 20 19 15 16 18 18 19 20 22 24 26 28 29 29 30 32 34 37 38 37 35 31 28 26 25 24 25 26

ECMWFFLT2_700_rhum_057.txt.gz
RH
17 17 16 16 16 16 16 16 16 16 16 16 15 15 15 14 14 13 12 11 11 10 10 9 9 9 9 8 8 7 7 6 5 4 3 2 1 2 1 1 1 6 19 42 59 62 61 64 71 87 93 80
18 19 18 18 18 17 17 17 17 17 17 17 17 17 16 16 15 14 14 13 12 11 11 10 9 9 9 9 9 8 8 7 6 5 5 3 3 2 1 1 1 1 3 17 48 70 73 76 81 87 93 90
20 20 20 20 20 19 19 19 19 19 19 19 19 19 18 18 17 16 16 15 14 13 12 11 10 10 10 10 10 9 9 8 7 6 6 5 4 3 2 2 0 2 1 0 15 43 67 81 90 90 89 94
22 22 22 22 22 22 22 21 21 20 21 21 21 21 20 20 19 19 18 17 16 15 14 13 12 11 11 11 11 10 9 9 8 7 7 6 5 4 3 3 2 1 1 2 -0 7 28 56 83 95 89 91
25 25 25 24 24 24 24 23 23 23 23 23 22 22 22 22 21 21 20 19 18 17 16 15 14 13 13 12 11 11 10 10 9 8 7 7 6 5 4 3 2 2 1 1 2 -0 1 15 49 85 94 89
27 26 26 25 25 24 24 25 25 25 25 24 24 24 24 24 23 23 22 20 20 19 18 17 16 14 13 13 12 11 10 10 9 9 8 8 7 6 5 4 3 2 2 1 0 2 1 -1 11 49 88 95
27 26 26 26 26 26 25 26 26 26 26 26 26 26 26 25 25 25 24 23 22 21 21 19 18 16 15 13 13 11 10 10 9 9 8 7 6 6 5 4 4 2 1 2 1 0 1 2 -1 10 46 84
28 28 28 28 27 27 26 25 26 26 26 26 26 26 27 27 27 27 26 25 24 23 22 21 20 19 18 16 14 13 11 10 10 9 8 8 6 6 6 4 3 3 2 1 1 1 0 1 2 -1 5 38
29 29 28 27 25 24 23 23 23 24 24 25 25 25 26 27 28 28 28 27 26 26 24 22 22 20 19 18 16 14 13 11 10 9 8 8 7 6 5 5 3 3 2 1 1 1 2 0 1 3 -1 3
28 28 27 26 24 22 21 21 21 22 23 23 24 25 25 26 28 28 28 28 28 27 26 24 23 22 21 19 17 15 13 12 10 9 8 7 7 6 4 4 4 3 2 2 2 1 1 2 0 1 2 -0
26 25 26 26 25 24 23 23 22 22 22 22 23 24 25 26 27 28 28 29 29 29 28 26 25 23 22 20 18 15 13 11 10 8 7 6 5 5 5 4 3 3 2 1 1 2 0 1 2 1 0 1
23 21 22 23 24 24 24 24 24 23 23 23 23 24 25 26 27 28 29 30 30 30 30 28 27 25 24 22 18 15 13 10 9 7 5 5 4 4 4 3 3 2 2 2 1 2 2 1 1 2 1 1
19 19 18 20 21 22 23 24 25 24 24 24 24 25 25 25 27 28 29 30 31 31 31 30 29 27 25 23 20 16 12 9 7 7 5 4 4 3 3 3 3 2 2 2 2 1 1 2 2 1 1 2
16 16 17 17 19 20 21 23 25 26 26 26 25 26 26 26 27 28 29 30 31 32 32 32 31 29 27 24 21 17 12 9 7 6 5 4 4 3 3 3 2 2 2 2 2 2 2 2 2 2 1 1
15 15 15 16 18 19 20 22 25 27 27 27 27 27 27 27 28 28 29 30 31 33 34 34 33 31 29 26 22 18 13 9 7 6 4 4 4 3 2 3 2 2 2 2 2 2 3 3 2 2 2 2
16 16 16 17 18 19 19 22 25 28 30 29 29 29 28 29 29 29 30 31 32 34 35 35 35 34 31 28 23 18 14 10 7 5 4 3 3 3 3 2 2 2 2 3 3 3 3 3 3 2 2 2
19 19 19 18 19 20 20 22 26 29 32 32 31 31 30 30 30 31 31 33 34 36 38 38 38 37 33 29 25 18 13 11 8 5 4 4 3 3 3 3 2 3 3 3 3 4 4 4 4 3 3 2
25 24 23 23 23 23 23 24 26 29 33 34 34 33 32 32 32 32 33 35 37 38 40 40 40 39 35 32 26 19 14 11 9 6 5 4 4 4 3 3 3 3 3 4 4 4 4 5 5 3 3 3
33 33 31 30 29 28 28 28 29 31 34 36 36 36 36 36 36 36 37 39 41 41 42 42 43 41 38 34 28 20 16 13 9 7 5 4 4 4 4 3 3 3 4 4 4 5 5 6 5 4 3 3
36 39 39 39 38 38 36 35 35 35 36 38 38 40 41 41 40 40 41 43 44 45 45 45 46 44 41 37 30 23 17 13 10 7 5 5 5 4 4 4 3 3 4 5 5 5 6 7 6 4 4 5
35 40 44 46 47 48 48 47 45 44 42 42 43 46 48 47 46 45 46 48 48 48 48 48 49 47 44 40 32 24 19 14 10 8 5 5 5 5 4 4 4 4 5 5 6 6 7 9 8 6 6 7
33 40 45 50 53 54 56 57 57 56 54 52 52 53 55 54 52 52 53 54 53 53 52 51 51 51 48 43 35 26 20 14 10 8 6 5 6 6 5 5 4 5 6 6 7 8 8 10 10 9 9 11
33 39 45 50 55 57 59 63 64 65 65 65 64 63 64 63 61 60 60 60 59 58 57 55 54 54 52 47 38 28 20 15 11 8 6 6 6 7 6 6 5 5 6 7 8 9 10 12 13 12 12 13
37 42 48 53 56 58 60 64 66 68 71 72 74 74 74 72 70 68 68 67 66 65 63 60 58 57 56 52 42 30 21 15 11 9 7 6 6 7 7 7 6 6 7 8 9 10 11 13 15 15 14 15
38 44 51 55 58 60 62 62 64 68 72 74 77 79 79 78 76 75 75 74 73 72 69 67 64 62 60 57 48 33 22 17 13 10 9 7 7 8 8 8 8 7 8 9 10 11 12 14 15 16 16 16
31 42 52 56 59 62 64 63 62 64 69 73 75 78 79 78 77 76 77 78 77 76 76 74 71 68 66 63 55 40 26 19 15 12 10 9 9 9 9 10 10 9 10 11 12 13 14 15 16 16 17 17
20 36 48 54 58 62 63 64 63 62 65 68 71 76 78 78 78 78 77 77 76 74 77 80 79 76 72 68 61 47 31 21 16 13 11 10 10 11 11 11 12 12 13 14 14 15 16 16 16 17 17 17
14 29 43 51 56 60 62 63 65 64 64 64 67 74 78 78 81 83 82 81 79 74 75 82 86 85 80 75 67 55 37 23 19 15 12 12 12 12 13 13 14 15 16 17 18 18 18 18 18 18 17 17
13 23 37 48 55 60 63 63 65 66 65 64 66 72 78 79 80 84 85 88 88 82 78 78 84 90 90 83 74 62 44 26 20 18 14 13 14 14 15 15 16 18 18 19 21 21 21 21 20 20 19 19
16 23 35 44 51 58 65 66 66 67 67 68 67 69 76 80 80 82 86 93 96 91 86 81 78 86 93 92 83 70 52 31 20 20 17 14 15 16 17 18 18 20 21 21 22 23 24 25 23 21 21 20
19 29 39 46 50 55 64 72 72 71 69 69 70 70 73 79 82 84 86 94 98 95 94 91 83 83 90 94 90 78 60 37 21 21 20 16 17 17 18 20 21 23 24 23 22 22 23 26 27 25 24 23

ECMWFFLT2_700_rhum_060.txt.gz
RH
20 20 20 20 19 19 19 19 18 18 18 18 18 17 17 16 16 16 16 16 16 15 15 15 15 15 14 14 13 12 12 12 12 12 11 10 10 10 9 8 8 7 6 5 4 4 4 3 3 3 2 2
21 21 21 21 20 20 19 19 18 18 18 18 18 19 18 18 18 18 18 18 17 17 17 17 17 17 16 15 15 14 14 13 13 13 12 12 11 11 10 10 9 9 8 7 6 5 4 4 3 3 3 2
20 20 20 20 21 20 20 20 20 20 20 20 20 20 19 19 19 19 19 19 18 19 18 18 18 18 18 17 17 16 15 15 14 14 14 13 13 12 12 11 11 10 9 9 8 7 6 5 4 3 2 3
21 21 21 21 22 22 23 23 23 22 20 19 18 17 17 16 16 17 17 18 18 18 18 19 19 19 19 18 18 17 16 15 15 15 15 14 14 13 13 12 12 12 11 10 10 9 8 7 6 5 3 2
23 23 24 23 24 24 24 24 23 21 19 17 16 14 13 13 12 13 14 15 16 17 17 18 18 19 19 19 19 18 17 16 16 16 16 15 14 14 13 13 13 13 12 12 11 10 10 9 8 6 5 3
23 23 23 22 22 21 21 21 20 19 18 17 16 14 13 13 12 11 11 13 14 15 16 17 17 17 18 19 19 19 19 18 18 18 17 16 15 15 15 14 14 13 13 12 12 12 11 10 10 8 7 5
19 18 16 16 15 15 15 14 14 14 14 14 14 13 13 13 12 12 11 11 13 14 15 16 16 17 17 18 19 19 19 20 19 19 18 17 17 16 16 15 15 14 14 14 13 12 12 11 11 10 9 7
15 13 13 12 12 12 12 11 11 11 11 11 11 11 11 12 12 12 12 12 12 13 15 16 16 17 17 18 18 19 19 20 20 20 19 18 18 17 17 16 16 16 14 14 14 13 13 12 11 11 10 9
13 12 12 12 12 11 11 11 11 11 10 10 10 10 10 11 12 13 13 13 13 14 15 16 17 17 17 18 18 19 19 20 20 20 20 19 19 18 17 17 16 16 15 15 14 14 13 13 12 12 11 10
12 12 12 11 12 12 12 12 11 11 11 11 11 11 12 12 13 14 14 15 15 15 16 17 18 18 18 19 19 19 20 20 20 20 20 20 19 19 18 18 17 16 16 16 15 14 14 13 13 12 12 10
12 12 12 12 13 13 13 13 14 14 14 14 13 13 14 14 15 16 16 16 17 17 18 18 19 19 19 19 20 20 20 21 21 21 21 21 20 20 19 18 18 17 17 16 16 15 14 14 13 12 12 10
18 19 20 20 20 20 20 19 18 17 17 17 16 16 16 16 17 17 18 18 19 19 19 20 20 21 21 20 21 21 21 22 22 23 22 22 22 21 21 20 19 19 18 17 16 16 15 14 14 12 11 10
25 25 25 24 24 24 25 25 26 25 23 22 20 20 19 19 19 20 20 20 21 21 21 22 22 22 22 22 22 22 22 23 24 25 24 24 24 23 22 22 21 20 19 18 17 16 16 14 14 13 11 9
26 25 24 23 21 20 20 21 24 27 28 28 27 26 24 23 23 23 23 23 23 23 24 24 24 24 24 23 24 24 24 25 25 26 26 26 25 25 24 23 23 22 20 19 18 17 15 15 14 13 12 9
27 26 24 22 20 18 17 15 17 21 25 28 30 31 30 29 27 27 26 26 26 25 26 27 27 26 26 26 26 26 26 26 27 28 28 28 27 27 26 25 24 23 22 20 19 17 15 15 14 13 12 9
27 26 25 23 20 18 16 14 13 16 19 22 27 30 33 35 34 33 31 30 30 30 30 30 30 30 29 29 28 29 29 29 30 30 30 30 30 29 28 27 26 24 23 21 19 18 16 14 13 12 10 9
28 27 26 24 21 18 15 14 13 15 17 19 22 27 31 37 40 40 39 38 37 36 36 36 35 33 33 32 32 32 32 32 32 32 33 32 32 31 30 29 28 26 24 22 20 18 16 14 12 11 9 7
29 28 27 25 22 18 15 13 14 16 19 20 23 26 30 37 44 47 48 47 46 45 44 43 41 39 38 37 36 36 36 36 36 35 35 35 35 33 32 31 29 27 25 23 20 17 15 13 11 9 7 6
30 29 28 27 23 19 15 12 14 17 20 24 27 31 36 40 46 51 54 53 51 50 51 51 49 47 46 44 43 42 42 41 40 39 38 37 37 35 34 33 31 28 27 23 20 17 14 12 10 7 6 4
32 31 29 28 24 20 16 13 13 17 22 26 30 37 43 48 52 54 55 56 54 54 55 58 58 57 56 53 51 49 47 47 46 43 41 40 39 37 35 34 32 28 26 24 19 16 13 10 8 6 5 4
34 33 31 28 25 20 17 13 12 15 19 23 29 35 43 52 58 60 59 59 59 58 58 60 61 62 62 61 59 57 55 53 52 49 45 44 42 40 37 34 32 29 25 23 19 14 11 9 7 5 4 3
36 34 32 28 23 19 15 11 10 11 13 18 26 33 41 51 58 64 65 65 65 64 62 62 62 63 64 64 63 62 62 60 58 56 51 48 46 44 41 37 33 29 25 22 18 13 9 7 6 4 4 3
37 34 31 26 21 16 12 9 8 8 11 16 23 30 38 47 54 62 68 70 71 71 70 68 66 65 66 66 65 63 63 65 64 63 58 53 50 48 45 40 35 30 26 21 17 13 9 6 5 4 4 3
36 32 27 22 17 12 9 7 6 7 10 15 22 31 39 47 53 60 66 71 75 76 76 74 72 70 69 68 68 66 64 64 65 68 66 60 55 53 49 42 36 30 25 21 16 12 9 6 5 5 4 3
32 26 20 15 11 8 6 5 5 6 8 13 19 28 39 48 53 59 64 68 72 75 76 76 77 75 74 72 70 69 69 66 65 67 70 68 62 57 53 45 38 32 26 21 16 12 10 7 6 5 4 4
21 15 10 8 6 5 5 5 5 5 6 8 12 17 28 38 48 57 64 67 68 71 73 75 78 79 78 77 75 72 72 74 71 67 68 73 72 65 57 49 40 33 27 22 17 13 10 8 7 7 5 4
10 7 6 6 6 5 5 5 6 7 9 11 12 12 17 26 37 50 62 70 71 70 71 73 76 80 81 81 81 77 75 78 80 74 68 71 77 75 65 54 42 33 28 21 17 14 11 9 8 8 7 5
6 6 7 7 7 7 7 7 9 12 17 22 22 22 23 27 35 46 59 71 77 76 73 71 73 78 81 81 83 84 81 82 83 80 74 73 78 81 75 61 46 35 28 21 16 15 12 11 10 9 9 7
8 8 8 9 9 10 11 11 13 14 17 23 26 28 29 32 37 48 60 70 81 86 83 77 73 73 77 81 84 87 89 88 84 78 77 78 79 82 80 67 51 39 31 23 17 16 14 12 12 10 10 9
9 9 10 12 13 16 16 16 18 19 19 21 23 24 26 28 32 40 52 63 74 85 92 90 83 75 73 77 83 88 91 94 90 81 78 82 82 84 83 72 58 43 30 24 19 16 16 15 14 13 12 11
6 9 12 14 16 18 19 20 22 25 26 27 27 26 27 26 26 31 39 49 61 72 85 95 95 89 80 75 79 86 91 95 95 89 85 88 88 88 88 78 63 44 29 24 22 18 18 19 17 16 15 14

ECMWFFLT2_700_rhum_063.txt.gz
RH
22 22 22 21 21 21 21 21 21 21 20 20 20 20 19 19 18 17 16 16 15 15 15 15 15 15 15 15 15 15 15 15 15 15 14 14 14 13 13 13 12 12 11 11 11 10 10 9 9 8 8 8
23 23 23 23 23 23 23 23 23 22 22 22 21 20 19 18 17 15 14 13 12 12 11 11 12 13 13 14 14 14 15 15 15 16 15 15 15 15 14 14 13 13 13 12 12 11 11 10 10 10 9 9
24 24 24 24 24 23 22 21 20 20 20 19 18 18 17 15 14 13 13 12 11 11 10 10 9 10 11 12 13 14 15 15 15 15 16 15 15 15 14 14 14 13 13 13 13 13 12 12 11 10 10 10
24 23 22 20 19 17 16 15 14 14 14 13 13 13 12 12 11 11 11 10 10 10 10 10 9 9 9 10 12 13 14 14 15 15 15 15 15 15 14 14 14 14 13 14 14 14 13 13 12 12 11 11
21 19 17 15 13 13 12 12 12 12 11 11 11 10 10 10 10 9 10 10 10 10 10 10 10 10 10 10 11 12 14 14 15 15 15 15 15 15 15 15 14 14 14 14 14 13 13 13 13 13 12 12
16 13 12 12 11 11 11 10 10 10 10 10 10 10 10 10 10 10 10 10 10 10 11 11 11 11 11 12 12 13 14 15 15 15 15 15 15 15 15 16 15 15 15 15 15 14 13 12 13 13 13 12
12 11 11 11 11 12 13 13 13 14 14 13 14 14 13 13 13 13 13 13 13 13 13 13 13 13 13 14 14 15 15 15 16 16 16 16 16 15 15 15 15 16 16 16 16 15 15 14 13 13 13 13
11 12 13 14 15 17 19 19 19 19 19 19 20 21 21 21 21 20 19 18 18 17 16 16 16 16 16 16 16 17 17 17 17 17 17 17 16 15 14 14 14 15 15 16 15 16 16 15 14 14 13 13
15 17 19 20 22 22 23 22 21 19 18 16 16 17 19 21 23 25 26 26 25 24 23 21 20 20 19 19 19 19 19 19 19 18 18 17 16 15 14 13 13 13 13 14 14 14 15 16 15 15 14 13
22 23 23 24 24 24 24 23 22 20 18 15 13 11 10 10 13 16 19 23 25 26 27 26 25 24 22 22 21 20 20 20 19 19 18 17 16 15 14 13 12 11 11 12 12 13 14 15 16 16 16 15
25 25 25 25 25 24 24 24 23 22 20 18 15 12 10 8 7 7 9 11 14 17 19 22 24 25 24 23 22 22 21 20 20 19 18 17 17 16 14 14 13 12 11 11 11 12 13 14 16 17 17 17
26 27 27 27 26 26 26 25 25 24 23 21 19 16 13 10 8 7 6 6 7 8 10 13 16 19 21 21 22 22 22 21 20 20 19 18 17 16 15 15 14 13 12 12 12 12 13 14 15 16 17 18
28 28 28 28 28 28 28 28 27 27 26 24 23 20 17 13 10 8 7 7 7 6 7 7 9 12 15 17 19 20 22 22 22 21 21 20 19 18 17 16 15 14 14 14 14 14 14 15 15 16 18 18
28 28 28 29 30 30 31 30 30 29 28 27 25 23 19 16 12 10 8 9 9 9 9 8 9 11 12 15 15 16 20 21 22 23 23 22 21 20 18 18 18 16 16 17 17 16 16 17 17 17 18 19
28 27 28 29 31 32 33 32 32 31 30 29 27 24 21 17 12 9 9 11 12 13 14 13 12 12 13 14 14 14 16 18 21 23 24 24 22 21 20 20 20 20 19 19 19 18 18 18 18 18 19 20
27 27 27 29 31 33 34 34 33 32 31 29 28 26 22 17 11 9 10 12 15 17 19 19 18 18 18 19 19 18 18 19 22 25 27 28 25 24 23 23 24 23 22 22 22 20 20 20 20 20 20 20
26 27 29 31 33 35 35 34 33 32 31 29 28 25 20 15 10 7 9 12 15 20 24 26 25 25 26 27 28 28 27 26 28 28 29 30 29 28 28 28 28 27 26 26 25 23 23 21 21 22 21 21
28 30 32 35 36 36 35 33 33 32 30 28 25 21 16 12 9 6 7 10 14 19 25 30 33 33 32 31 31 34 35 36 35 33 32 32 31 31 31 32 32 32 31 30 29 27 25 24 24 24 23 23
33 35 37 38 37 35 34 33 31 30 27 23 18 13 10 7 6 5 5 7 11 15 22 30 36 37 35 31 29 32 37 39 40 39 38 37 35 33 32 33 34 35 35 34 33 31 29 28 27 26 26 24
38 39 39 37 35 34 32 30 27 23 18 13 9 6 5 4 4 4 5 5 7 11 17 24 32 37 37 35 32 32 36 41 45 46 46 46 43 39 36 36 37 39 39 38 38 36 33 32 30 29 28 27
40 39 38 36 34 31 29 25 19 13 9 6 5 4 4 4 4 4 5 5 6 9 13 19 27 34 38 40 37 35 38 43 48 51 54 56 56 52 47 44 42 42 44 43 43 42 40 37 34 33 31 29
40 38 37 34 31 27 23 18 12 7 5 5 5 5 5 5 5 5 5 6 7 9 12 17 23 30 36 40 41 40 41 46 51 53 58 64 67 65 61 58 53 49 47 47 47 48 47 44 39 37 34 32
39 37 33 29 26 22 16 11 8 5 5 5 5 5 5 5 6 6 6 7 9 10 12 15 20 26 33 38 41 44 44 49 54 56 59 64 69 72 72 72 69 62 54 50 50 52 54 51 44 41 38 34
36 31 26 22 20 16 11 7 5 5 5 5 5 5 5 5 5 6 6 7 7 9 11 13 18 23 30 37 42 47 51 55 60 60 61 64 67 71 74 78 79 76 68 58 54 56 58 57 52 45 41 38
30 25 23 20 15 10 6 4 4 4 4 4 4 4 4 4 4 4 5 6 6 7 9 11 15 19 26 34 41 48 56 64 69 68 67 67 68 70 73 77 81 81 79 72 64 61 60 60 59 52 45 41
24 20 17 13 8 5 4 3 3 3 3 4 3 3 3 3 3 4 4 5 6 7 9 10 13 17 22 29 36 43 51 62 71 78 79 75 70 71 72 75 80 80 83 84 75 66 62 61 63 61 51 44
18 13 9 6 4 3 3 3 3 3 3 4 4 4 4 4 4 4 5 5 5 6 7 9 10 14 17 22 29 34 40 50 61 75 85 86 79 76 74 74 77 82 86 89 83 72 65 63 64 64 59 49
11 7 4 4 3 3 3 4 4 4 4 5 5 5 5 5 5 5 6 5 6 6 6 7 7 9 11 13 18 21 26 34 46 61 76 89 91 85 81 77 76 81 86 90 89 79 69 69 67 64 63 56
6 4 3 4 4 5 5 5 6 5 6 6 6 7 6 7 7 7 7 7 7 7 7 7 7 7 7 8 9 11 13 18 28 42 60 82 95 93 88 84 80 80 84 88 92 87 78 76 74 66 65 61
4 4 4 5 5 6 6 6 7 7 7 7 7 8 8 8 9 8 9 8 9 9 9 9 9 10 9 9 10 9 9 10 12 20 34 56 81 94 95 91 84 80 83 88 91 91 86 84 82 73 67 64
4 5 6 7 7 7 8 8 8 8 8 9 9 9 10 10 11 11 11 11 11 11 11 11 11 12 12 12 13 13 13 12 12 12 15 28 49 77 97 98 90 83 85 90 91 92 91 90 88 78 70 64

ECMWFFLT2_700_rhum_069.txt.gz
RH
24 24 25 24 24 24 23 23 22 21 19 17 15 14 13 12 12 12 11 11 11 11 11 11 11 11 11 10 10 10 10 10 9 9 9 9 10 10 10 11 11 11 12 12 12 12 12 12 11 10 10 9
26 26 26 26 25 24 23 20 18 15 14 13 12 11 11 11 11 11 11 11 11 11 10 10 10 10 9 9 9 9 9 8 8 8 8 8 9 9 9 9 10 10 10 11 12 12 13 13 12 12 11 10
28 28 27 26 24 21 18 15 13 12 12 13 13 14 14 14 15 15 16 15 15 14 14 14 14 14 14 14 13 12 11 10 9 9 8 8 9 9 9 9 10 10 10 11 11 12 13 13 13 13 12 11
29 28 26 23 19 15 13 14 14 16 17 18 19 20 20 20 20 21 20 20 19 18 16 15 14 14 15 17 18 19 18 17 15 13 12 11 10 10 10 11 11 11 11 11 11 12 13 14 14 14 13 13
29 27 23 17 14 14 16 19 20 21 22 23 23 23 23 22 22 22 22 22 22 22 20 19 16 14 12 11 13 15 18 21 22 22 20 18 16 15 14 13 13 13 13 13 12 12 13 14 14 14 14 14
29 23 17 14 15 19 22 24 24 24 24 25 25 24 24 24 24 24 24 23 23 23 23 23 22 20 17 14 11 8 9 11 15 18 21 23 23 22 21 19 18 17 16 16 15 15 15 15 15 15 14 14
26 18 14 16 20 24 25 26 26 27 27 27 27 27 27 27 27 27 26 26 25 24 23 23 23 24 23 22 19 14 10 7 7 8 10 14 17 20 21 22 22 21 21 19 19 18 17 17 16 15 15 15
21 15 17 21 24 27 27 27 28 28 28 28 28 28 28 28 28 28 27 26 25 24 23 23 23 23 24 25 24 22 18 13 10 6 5 4 5 8 10 13 16 17 19 19 19 19 18 17 17 16 15 15
16 16 21 24 27 28 28 29 30 28 27 28 28 28 29 30 30 28 27 26 25 25 24 24 24 24 24 25 25 25 23 19 14 10 8 5 4 3 3 4 5 7 9 11 12 13 14 14 14 14 13 13
16 20 24 27 29 29 30 31 29 27 26 28 29 31 32 31 31 30 29 28 28 28 27 27 27 26 26 26 25 24 23 20 16 13 9 8 6 5 4 3 2 3 3 3 4 5 6 7 8 9 9 9
20 25 28 29 30 31 31 31 29 26 25 28 30 32 33 32 32 32 31 31 30 29 28 27 27 26 25 24 22 21 19 16 14 11 9 8 7 6 5 4 3 3 3 2 2 2 2 3 3 4 5 5
26 29 31 32 32 32 31 30 28 25 25 28 31 32 32 32 32 32 32 31 31 30 28 26 25 22 18 15 14 13 13 11 9 8 7 6 6 6 5 4 4 3 3 3 2 2 2 2 2 2 3 3
30 32 33 33 33 32 31 28 26 25 25 28 31 32 32 32 31 31 31 31 31 30 28 26 23 19 12 8 6 6 6 6 6 5 5 5 5 5 5 4 4 4 4 3 3 3 3 3 2 2 2 2
33 34 34 34 33 31 29 27 25 25 27 29 31 31 32 31 31 30 31 31 31 30 28 25 21 15 8 5 4 4 4 4 4 4 4 4 4 4 4 4 4 4 4 4 4 3 3 3 3 3 2 2
34 34 34 33 32 30 28 27 27 29 30 31 31 31 32 32 32 32 32 32 30 29 26 22 16 9 5 4 4 4 4 4 4 4 4 4 4 4 4 4 4 4 4 5 5 5 4 3 3 3 3 3
34 34 34 33 31 30 31 31 32 33 33 33 33 33 34 34 34 33 32 31 29 25 20 15 9 5 4 3 4 3 3 4 3 3 3 3 3 3 4 3 4 4 4 4 4 5 5 4 4 4 4 4
35 34 34 33 33 34 36 37 36 36 35 35 36 36 36 35 33 32 31 27 22 17 11 8 5 3 3 3 3 3 3 3 3 3 3 3 3 3 3 3 3 3 3 3 3 4 4 4 4 4 4 4
35 35 36 36 38 39 39 39 38 38 37 37 37 36 35 32 30 28 26 20 13 8 5 4 3 3 3 3 2 2 2 2 2 2 2 2 2 2 2 2 2 2 2 2 2 2 3 3 3 4 4 4
38 39 40 41 41 41 40 40 39 39 38 38 36 35 33 31 28 26 22 14 7 4 4 3 3 3 3 2 2 2 2 2 2 2 2 2 2 2 1 1 1 1 1 1 1 1 1 2 2 2 2 3
43 43 43 42 41 40 40 39 38 38 38 37 36 34 33 31 27 24 20 10 4 4 4 3 3 2 2 2 2 2 2 2 2 2 1 2 2 1 1 1 1 1 1 1 1 1 1 1 1 1 1 2
44 42 41 40 40 39 39 38 38 38 38 37 36 34 32 29 25 21 15 7 4 4 3 3 3 2 3 2 2 2 2 2 2 2 2 2 2 2 2 2 2 2 2 2 2 1 2 2 2 2 2 1
42 41 41 41 40 40 40 39 38 38 37 35 33 31 27 24 20 15 9 5 4 4 3 3 3 3 3 3 3 3 3 3 3 3 3 2 2 2 2 2 2 2 2 2 2 2 2 2 2 2 2 2
42 42 42 42 42 42 41 39 38 36 34 31 28 23 19 16 12 8 5 4 4 3 3 3 3 3 3 3 3 3 3 3 3 3 3 3 3 3 3 3 3 3 3 3 2 2 3 2 2 2 2 2
43 43 43 43 42 41 40 38 35 31 27 23 19 14 10 8 7 6 5 4 4 4 4 4 4 4 4 4 4 4 4 4 4 4 4 4 4 4 4 4 4 4 3 3 3 3 3 3 2 3 3 3
45 45 44 43 41 40 39 37 30 22 17 13 10 8 7 7 6 6 5 5 5 4 4 4 5 5 4 5 4 4 4 4 4 4 5 5 4 5 4 4 5 5 4 4 3 3 3 3 3 3 3 3
47 45 43 41 39 37 35 30 22 13 9 8 7 8 8 7 7 6 6 6 5 5 5 5 5 5 5 5 5 5 5 5 6 5 6 6 6 6 5 5 6 6 6 5 4 4 3 3 4 4 4 4
47 43 40 36 32 27 22 16 12 8 7 7 7 8 9 9 8 7 7 6 7 7 7 7 6 6 6 6 6 6 6 6 7 7 7 7 7 7 7 6 7 8 7 6 6 5 4 3 3 4 5 5
42 36 30 25 19 14 11 9 8 8 8 8 9 9 10 10 9 8 7 7 8 8 8 8 8 8 8 8 8 7 7 7 8 8 9 9 9 9 8 8 7 8 9 8 9 8 6 6 5 4 5 5
31 23 17 13 10 9 9 9 10 10 10 10 10 10 10 11 11 10 8 8 9 9 10 10 10 10 10 10 10 9 9 9 9 10 11 12 12 12 11 10 9 9 10 11 11 10 9 9 8 6 6 6
19 13 10 9 10 10 11 11 12 12 12 12 11 11 11 11 11 11 10 8 8 9 10 11 12 12 12 12 13 13 12 12 12 13 14 15 14 14 14 13 12 11 13 13 12 12 13 13 12 10 9 8
12 10 10 12 13 14 14 14 15 15 15 14 14 13 13 13 12 11 11 10 9 9 10 11 12 13 14 14 14 16 16 15 16 17 17 18 17 17 18 17 16 15 17 17 15 16 17 15 16 15 14 13

ECMWFFLT2_700_rhum_072.txt.gz
RH
12 14 18 21 22 23 23 23 23 23 23 22 20 18 16 14 12 12 12 12 12 12 13 13 13 12 12 11 11 10 10 9 9 9 9 9 9 9 9 9 9 9 9 9 9 10 10 10 10 11 11 11
13 17 21 24 25 25 25 24 24 23 21 19 16 14 13 12 13 14 15 15 16 16 17 18 18 18 17 16 15 14 12 11 10 10 10 10 10 10 9 8 8 8 8 8 8 8 8 9 9 9 10 10
15 20 25 27 27 27 26 25 23 20 17 14 13 13 14 16 17 18 18 18 18 19 19 20 20 21 21 20 20 19 18 16 14 13 12 12 13 14 14 13 11 9 8 8 7 8 8 8 8 8 9 10
17 24 28 29 29 27 25 22 19 16 14 14 15 17 19 20 20 20 20 21 21 21 21 21 21 21 21 21 21 21 21 21 20 18 15 13 12 13 15 17 18 17 14 11 10 9 9 8 8 8 9 10
21 28 31 30 29 26 22 18 15 14 16 18 21 23 23 23 24 24 24 24 24 24 23 23 22 22 21 20 20 20 20 21 22 22 21 18 15 12 10 11 14 18 20 19 17 15 13 12 11 10 10 11
24 31 32 30 28 23 18 15 15 18 21 24 25 26 26 26 25 25 25 25 25 24 24 23 23 22 21 20 20 20 20 20 20 22 23 23 21 19 14 10 7 8 12 17 20 21 20 18 16 15 14 13
26 32 33 31 26 19 15 15 19 23 25 27 28 28 27 26 25 25 25 25 25 25 24 25 25 24 23 22 22 21 22 22 21 21 22 23 24 23 21 17 12 8 6 7 10 14 17 20 20 20 19 18
27 33 34 30 23 17 16 19 24 27 28 29 29 28 25 24 24 25 26 26 25 26 26 26 26 26 25 25 24 23 23 23 23 23 22 23 23 24 24 22 18 13 9 6 4 5 7 10 14 16 18 19
29 35 34 28 20 18 20 25 28 30 30 31 29 27 24 23 24 25 25 26 26 26 25 26 26 25 25 26 26 25 24 24 23 23 22 22 22 22 22 21 19 16 13 10 7 5 4 3 4 6 8 10
31 36 33 26 20 22 26 29 31 32 32 31 30 27 24 23 23 24 25 25 25 25 24 24 24 24 24 24 25 26 26 25 23 22 19 16 15 16 16 15 15 14 13 10 8 6 5 4 3 3 3 3
33 37 31 24 23 27 30 32 32 33 32 31 30 27 25 24 25 25 25 25 25 26 26 26 26 26 25 25 26 27 27 26 24 21 17 12 8 7 8 8 8 8 9 8 7 6 5 5 4 4 3 2
35 35 29 25 28 31 33 33 33 33 32 31 29 27 25 25 26 26 25 26 27 29 30 30 30 29 28 28 28 28 27 26 24 20 16 11 7 5 4 4 5 4 5 5 5 6 5 5 5 4 4 3
36 33 29 29 31 34 34 35 34 33 33 31 29 27 27 27 27 27 27 29 31 32 33 32 32 30 29 29 28 26 25 23 21 18 13 9 6 4 4 3 4 4 4 4 4 4 4 4 5 5 4 4
36 33 31 32 34 36 36 35 35 34 33 31 30 30 30 30 29 29 30 32 33 34 33 33 32 31 30 28 27 23 19 16 14 12 9 6 4 3 3 3 3 3 3 3 3 4 4 4 4 5 5 5
36 34 34 36 37 37 36 36 35 34 33 32 32 32 32 32 32 32 33 34 34 33 33 33 32 32 31 28 26 20 12 9 7 6 5 4 3 2 2 2 2 2 2 2 3 3 3 3 4 4 4 4
37 36 37 38 38 38 37 37 36 35 35 35 35 34 34 33 33 33 33 34 33 33 33 32 32 31 30 28 25 17 8 5 4 3 3 2 2 2 2 2 1 1 1 2 2 2 2 2 3 3 3 3
38 39 39 40 39 39 38 38 37 38 38 38 36 35 34 33 33 33 34 34 33 34 33 31 30 28 27 25 20 12 5 4 3 2 2 2 2 2 2 1 1 1 1 1 1 1 1 1 2 2 2 2
41 41 42 41 41 41 41 41 41 41 39 38 36 35 34 34 35 35 36 34 32 31 29 27 25 22 21 17 12 7 4 3 3 3 2 2 2 2 2 1 1 1 1 1 1 1 1 1 1 1 1 1
44 44 44 44 44 43 43 43 41 40 38 37 36 35 36 37 37 37 36 31 25 22 20 18 16 14 11 9 7 4 4 3 3 3 2 2 2 2 2 2 1 1 1 1 1 1 1 1 1 1 1 1
47 47 47 46 45 45 43 42 40 39 38 37 37 38 38 38 37 36 32 25 18 14 12 10 8 7 6 5 5 4 3 3 3 3 3 3 2 2 2 2 2 1 1 1 1 1 1 1 1 1 1 1
50 49 48 47 45 44 43 42 42 41 40 39 39 38 37 36 36 33 28 21 14 10 8 6 6 5 5 5 4 4 4 3 3 3 3 3 3 2 2 2 2 2 2 1 1 1 1 1 1 1 1 1
49 48 46 45 45 44 44 44 44 43 41 40 39 38 36 36 34 28 23 17 11 8 7 6 6 6 6 5 5 4 4 4 4 4 3 3 3 3 2 2 2 2 2 2 1 2 1 1 1 1 1 1
48 47 46 46 45 45 45 44 44 43 41 40 38 35 32 27 23 18 14 11 9 8 8 8 7 7 7 6 6 5 5 4 4 4 4 4 4 3 3 2 2 2 2 2 2 2 2 2 2 1 2 1
49 48 48 47 46 46 46 46 46 44 40 37 32 26 21 16 12 10 10 9 9 9 9 9 9 9 9 8 7 6 5 5 5 5 5 5 4 4 4 3 3 3 2 2 2 2 2 2 2 2 2 2
51 50 49 48 48 48 48 48 47 41 34 27 20 16 12 11 10 10 10 11 11 11 11 11 11 11 11 10 9 8 7 6 6 6 5 5 5 5 5 4 4 4 3 3 2 2 2 2 2 2 2 2
53 52 51 51 50 50 50 47 42 34 24 18 13 12 11 11 12 12 13 13 13 13 13 14 13 13 13 12 11 10 9 8 7 6 6 6 6 6 6 5 5 5 4 4 3 3 2 2 3 3 3 3
56 55 54 54 53 51 49 41 32 23 16 13 12 12 14 14 15 16 16 16 16 16 16 16 16 16 15 14 13 12 10 9 8 7 7 7 7 7 7 6 6 6 5 5 5 5 3 3 3 2 3 3
58 58 57 55 51 46 40 32 23 17 14 14 15 16 17 18 18 18 18 18 18 18 18 18 18 18 17 17 16 14 13 11 9 8 8 8 9 9 9 8 7 7 7 7 7 7 6 5 4 3 3 3
60 59 57 53 47 39 30 23 17 15 15 16 17 17 16 15 14 14 14 15 16 16 16 16 17 17 17 18 18 17 16 14 12 10 9 10 11 11 10 10 9 8 8 9 9 9 9 8 6 4 4 3
59 57 53 46 40 34 26 20 16 14 15 15 14 12 9 7 6 7 7 8 9 9 9 9 10 11 12 14 17 18 18 17 16 13 11 11 12 12 13 13 11 10 11 11 10 10 12 12 11 8 7 5
54 48 40 32 27 23 20 17 16 15 13 10 8 5 3 3 3 3 3 3 4 4 4 4 5 5 7 9 12 15 17 18 18 17 15 14 13 14 15 15 13 13 14 14 12 13 14 14 14 14 12 10

ECMWFFLT2_700_rhum_075.txt.gz
RH
14 13 13 12 13 13 14 16 18 20 21 21 21 21 22 21 19 17 15 14 14 14 15 15 15 15 15 15 15 15 15 15 16 16 16 15 15 13 12 11 11 10 10 9 9 9 9 9 9 10 10 10
14 14 13 13 13 14 16 18 20 21 22 22 22 22 21 19 16 14 15 16 17 17 18 17 18 18 18 18 18 18 17 17 17 17 17 17 18 18 17 16 14 12 11 11 10 9 9 8 8 8 8 9
15 15 13 13 13 15 18 20 22 23 23 23 23 21 18 15 14 16 17 18 19 19 20 20 20 20 21 20 20 20 19 19 18 17 16 17 17 17 18 19 19 18 15 13 12 11 11 10 10 9 8 8
16 16 14 13 14 17 21 23 24 25 25 24 22 18 16 15 17 18 20 20 21 21 21 22 22 22 22 21 21 21 21 20 19 19 17 17 17 16 16 17 19 21 21 18 15 13 12 12 12 12 12 11
17 16 14 14 15 19 24 26 27 27 26 22 18 16 17 18 20 21 22 22 22 22 22 22 21 21 21 21 21 21 21 21 21 21 20 19 18 18 18 17 17 18 20 22 21 18 14 11 11 12 14 16
18 17 15 14 16 21 26 28 29 28 24 19 16 17 20 22 23 24 24 23 22 22 21 21 21 21 20 20 20 20 20 20 21 21 21 21 21 20 20 20 19 18 18 20 22 23 20 16 12 10 10 13
18 17 15 14 17 23 28 30 30 27 21 17 17 20 23 25 26 26 25 23 22 21 21 21 20 20 20 19 19 18 18 18 19 19 20 20 21 22 21 21 21 21 20 20 21 23 23 22 17 12 9 8
19 17 15 15 18 25 32 32 30 23 18 18 21 25 26 28 28 27 25 23 22 21 21 20 20 19 18 18 19 19 19 20 20 20 20 20 21 22 22 23 22 21 20 20 20 21 22 22 20 16 13 9
18 16 15 16 19 27 34 33 27 22 20 23 26 28 29 30 30 28 25 24 22 21 21 21 20 19 19 20 21 22 23 24 24 24 24 23 23 23 23 24 23 21 19 17 16 17 18 18 18 16 14 11
18 16 16 17 22 31 35 31 26 24 25 27 29 30 30 31 31 29 27 26 25 23 22 22 21 21 22 25 27 27 27 27 27 27 26 25 25 24 24 24 23 22 20 16 12 11 12 13 13 12 11 10
18 17 17 20 28 35 35 31 28 27 27 30 31 32 32 32 32 31 29 28 26 25 24 23 23 25 28 30 31 31 30 30 29 28 27 26 25 24 23 22 22 21 20 17 12 8 7 7 8 8 8 8
19 18 20 23 29 34 35 32 29 29 30 33 34 34 34 33 32 31 30 28 27 25 24 24 25 28 31 32 32 31 30 30 29 29 29 27 26 25 22 19 18 18 17 16 12 8 5 4 5 5 6 6
22 20 22 24 30 35 36 33 30 32 34 35 36 35 35 34 33 31 29 28 27 26 25 25 27 29 31 31 30 30 29 29 28 28 28 28 27 26 23 18 15 14 13 12 10 7 5 4 3 3 4 4
24 24 26 30 34 38 37 34 34 36 37 37 37 36 35 34 33 31 30 29 27 26 25 25 27 29 30 30 28 27 26 27 27 27 27 27 26 25 23 18 13 10 9 8 7 6 4 3 3 3 3 3
28 29 32 36 39 39 38 36 37 39 39 39 38 37 36 35 34 32 31 29 27 26 25 26 29 32 32 31 28 25 23 23 24 25 24 24 24 23 20 15 10 8 7 5 4 4 3 2 2 2 2 2
33 35 38 41 41 40 39 38 40 41 40 40 39 38 37 36 35 33 31 29 28 27 27 30 33 34 33 32 30 27 23 18 17 18 18 19 18 17 15 10 7 6 5 3 3 3 2 2 2 2 2 2
39 41 42 43 43 42 41 41 42 42 42 41 40 39 38 38 36 34 33 31 30 30 32 34 35 35 34 33 31 30 25 17 12 11 11 11 11 11 9 7 5 4 3 3 2 2 2 2 2 2 1 1
45 45 45 45 44 44 44 45 45 44 44 43 42 42 41 40 39 37 36 34 33 34 36 37 37 37 36 34 32 29 24 16 10 8 7 7 7 7 6 5 4 3 3 3 2 2 2 2 2 1 1 1
48 47 47 47 46 47 48 48 47 47 46 45 44 43 42 41 40 39 38 37 37 38 40 39 38 37 33 30 27 23 18 13 10 8 7 7 6 6 5 5 4 4 3 3 3 3 2 2 2 2 1 2
49 49 49 49 50 50 50 49 48 47 46 45 44 43 43 42 41 41 40 40 41 41 40 38 35 31 26 23 20 16 13 10 9 9 9 8 8 7 7 6 5 4 4 3 3 3 3 2 2 2 1 1
52 52 53 53 53 52 51 50 48 47 46 45 45 45 45 45 44 44 43 43 43 40 35 31 27 21 18 17 14 12 11 11 10 10 10 10 10 10 9 8 7 6 5 5 4 3 3 3 2 2 2 1
56 56 56 55 54 52 51 50 49 48 47 47 47 47 47 47 47 45 44 42 38 32 26 21 18 15 14 13 12 12 12 12 12 12 12 12 12 12 11 11 10 9 8 7 6 5 4 3 3 2 2 2
58 57 56 55 53 53 51 51 50 50 49 49 49 49 49 49 47 46 42 37 30 22 18 15 14 13 13 13 13 13 13 14 14 13 13 13 13 13 13 13 12 12 11 10 9 7 6 4 4 3 2 2
59 57 56 55 55 54 54 53 52 52 52 52 52 51 51 50 49 47 41 31 23 17 15 14 13 13 13 14 13 13 13 12 12 11 11 11 11 11 11 11 12 12 11 11 11 10 9 7 6 5 4 3
59 58 58 57 57 56 56 56 55 55 55 54 53 53 52 52 50 43 34 25 19 16 15 14 13 13 12 12 11 9 8 7 7 7 7 7 7 7 8 8 9 10 9 9 10 10 10 10 9 7 5 4
61 60 60 59 59 58 58 57 57 56 56 56 56 56 55 51 43 31 23 19 16 15 14 12 11 10 8 7 5 4 3 3 3 3 3 3 4 5 5 5 6 8 8 7 7 7 7 8 9 10 9 7
64 63 63 62 62 61 60 60 59 59 59 59 58 54 48 40 30 21 17 15 14 12 10 8 7 5 4 3 2 2 2 2 2 2 2 2 2 3 3 4 5 6 7 6 6 6 5 5 6 7 8 9
67 67 66 65 64 62 61 60 59 59 57 53 48 40 31 25 20 17 15 12 10 7 5 4 3 2 2 2 2 2 2 2 2 2 2 2 2 3 2 3 3 5 5 6 7 7 6 5 5 4 5 7
70 70 69 67 65 63 61 59 56 54 49 42 35 28 22 19 17 15 12 9 6 4 3 2 2 2 2 2 2 2 2 2 2 2 2 2 2 3 3 3 3 4 4 6 8 8 7 7 7 5 5 6
73 72 71 69 68 66 64 61 57 52 44 36 29 23 19 16 14 11 8 5 3 2 3 2 2 2 2 2 2 2 2 2 2 2 2 2 2 3 3 3 3 3 4 6 6 6 8 9 9 8 7 7
75 74 72 69 66 64 60 56 48 40 32 27 23 19 16 13 10 7 5 3 3 3 3 3 3 3 3 3 3 3 2 2 2 2 2 3 3 3 3 4 4 3 5 5 5 6 8 9 10 10 9 9

ECMWFFLT2_700_rhum_078.txt.gz
RH
14 14 13 13 14 14 14 14 13 14 14 15 17 19 20 21 22 21 21 19 17 16 15 14 14 13 13 13 12 12 12 12 12 13 13 13 12 13 12 12 12 12 12 12 12 12 12 11 10 10 9 9
15 15 15 15 14 15 14 14 14 14 15 16 17 20 21 22 22 21 20 18 16 15 15 14 13 13 13 14 14 14 14 14 14 14 14 14 14 14 13 13 13 12 12 12 12 13 14 14 13 12 10 10
16 16 15 16 16 15 15 15 14 14 15 16 19 21 23 23 22 21 19 16 15 15 15 14 15 15 15 16 17 17 17 17 17 17 17 16 16 16 16 15 15 14 13 12 11 12 13 14 15 15 14 12
17 17 16 17 17 16 16 15 15 15 16 18 21 23 24 24 22 20 17 16 16 15 16 16 17 18 18 19 19 19 19 19 18 18 17 17 17 17 17 17 17 16 15 14 13 12 12 12 13 15 17 17
17 17 17 18 18 17 16 15 15 15 17 21 24 26 25 24 21 18 17 17 17 18 19 20 20 21 20 20 19 19 18 18 17 16 16 15 15 15 15 16 16 17 17 17 16 14 14 13 13 13 15 18
18 18 18 19 19 18 17 16 15 15 19 25 28 27 25 23 19 18 18 18 19 21 22 22 22 21 20 20 19 18 17 17 16 15 15 15 15 15 15 15 15 15 16 17 17 17 16 15 15 14 14 15
18 19 19 20 20 19 18 16 15 18 25 30 30 27 24 21 18 18 20 21 22 23 23 23 22 21 20 19 18 18 17 16 16 16 15 16 17 17 17 18 18 17 17 17 17 18 18 18 17 16 16 15
20 20 21 21 21 20 18 15 17 23 30 32 30 26 24 20 18 19 22 24 24 24 25 23 21 20 19 19 18 17 17 16 16 17 18 19 20 21 22 22 22 21 20 19 18 18 19 19 18 17 17 17
22 22 22 22 22 20 17 16 18 23 30 32 29 27 24 20 19 21 24 25 25 26 26 24 23 22 21 20 19 19 18 17 17 19 21 23 24 25 26 25 25 24 23 21 20 20 19 19 19 18 17 17
24 24 24 23 22 20 17 16 18 21 26 30 30 28 24 21 22 23 25 26 26 27 27 26 25 24 23 22 21 20 19 18 19 22 24 26 27 27 27 26 26 25 25 24 23 22 20 19 18 17 17 17
26 26 25 24 22 19 18 17 18 20 25 30 31 29 25 24 25 26 26 27 27 29 29 28 27 26 25 24 22 21 20 20 21 23 25 26 26 25 25 25 24 24 24 24 24 23 22 21 19 17 17 17
28 28 27 25 22 20 18 18 19 22 26 31 33 30 27 26 28 28 28 29 29 30 30 29 29 28 26 24 23 21 20 21 22 24 25 25 25 24 23 23 23 23 23 23 24 24 23 22 20 17 16 15
31 31 29 27 24 22 20 20 21 24 29 33 34 31 28 28 30 30 30 31 31 31 31 31 30 28 27 25 23 22 21 22 24 27 27 27 26 25 24 22 21 21 22 22 23 23 23 22 20 17 15 14
34 33 32 29 26 24 23 24 25 28 33 36 35 33 31 32 33 33 34 33 33 33 32 32 31 29 28 26 24 23 23 26 29 30 30 29 27 26 25 23 20 18 19 20 20 21 21 20 18 16 13 11
36 35 33 31 29 28 28 29 32 35 37 39 38 35 35 36 37 38 37 36 35 35 34 33 32 30 29 27 26 25 27 31 33 32 31 30 27 26 25 23 19 16 14 15 17 17 17 17 15 13 11 8
37 36 34 33 33 33 34 35 38 40 40 40 39 38 38 40 41 40 39 38 37 36 35 34 33 31 30 29 29 29 32 35 34 33 33 31 28 25 23 21 18 14 11 10 11 12 12 12 10 8 7 5
37 36 36 36 37 38 40 41 42 43 43 42 42 41 42 43 43 42 41 40 39 38 37 35 34 33 33 32 33 34 36 36 35 35 34 32 28 25 22 18 15 12 10 8 7 7 7 7 6 5 4 3
36 37 40 41 43 45 45 45 45 45 45 45 44 44 45 45 44 43 43 42 41 40 39 38 37 36 36 35 36 37 38 37 36 35 32 30 27 25 22 17 13 11 9 9 8 7 7 6 5 4 3 3
39 41 44 46 48 48 48 47 47 47 47 47 47 47 47 46 46 45 44 43 42 42 40 40 39 39 38 37 38 39 39 38 35 32 29 26 24 22 20 16 12 11 10 9 9 9 8 7 6 5 4 3
43 46 48 50 51 50 50 50 50 49 49 49 49 49 48 47 46 46 45 44 44 43 43 42 42 42 41 41 41 41 41 37 32 27 24 22 20 18 17 15 12 11 10 10 10 10 9 9 9 8 7 5
48 50 52 53 53 53 53 53 53 52 52 51 51 50 49 48 47 47 46 46 46 45 45 45 45 44 45 45 45 44 42 37 30 24 20 18 17 16 15 13 12 11 10 10 9 10 10 10 10 10 9 8
54 55 56 56 56 56 56 56 56 55 54 53 52 51 50 49 49 49 49 49 48 48 48 48 47 47 47 48 47 45 41 35 28 22 19 16 15 15 14 12 10 9 7 7 6 6 7 8 9 10 10 10
59 59 60 60 60 60 59 59 58 56 55 54 53 52 52 52 52 52 52 51 51 51 50 50 50 50 50 49 46 42 37 30 24 20 17 16 15 13 11 9 7 5 4 2 2 2 3 3 4 6 8 9
63 62 62 63 63 63 61 60 59 57 56 55 55 55 55 55 55 55 55 55 55 54 53 53 53 53 52 49 44 37 29 23 19 17 15 14 13 11 8 5 3 2 1 1 1 1 1 1 1 2 3 5
66 66 66 67 66 65 63 62 60 59 59 58 58 58 58 58 58 59 59 59 59 58 57 56 56 54 50 45 38 31 24 19 16 14 13 11 9 7 4 2 1 1 1 1 1 1 1 1 1 1 1 2
71 71 71 70 69 67 66 64 63 62 62 61 61 61 62 62 62 63 63 63 62 61 60 58 55 50 43 37 31 25 20 16 14 12 10 8 5 3 2 1 1 1 1 1 1 1 1 1 1 1 1 1
77 76 74 73 71 70 69 67 66 65 65 65 65 66 66 66 66 66 66 65 64 62 59 54 47 39 31 27 23 19 16 13 10 8 6 4 3 2 1 1 1 1 1 1 1 1 1 1 1 1 1 1
82 80 78 77 76 75 74 73 72 71 70 70 70 71 71 71 70 69 68 66 63 58 51 42 33 27 22 19 17 14 11 8 6 4 3 2 2 1 1 1 1 1 1 1 2 2 1 1 1 1 1 1
88 87 86 85 84 83 81 80 79 78 77 76 76 75 74 72 71 68 65 61 55 47 39 33 27 23 18 15 12 10 7 5 3 2 2 2 2 2 2 2 2 1 2 2 2 2 2 2 2 2 2 1
94 92 91 89 88 87 85 83 81 80 78 76 74 72 68 65 62 58 55 49 42 36 31 29 25 19 15 11 8 6 5 3 3 2 2 2 2 2 2 2 2 2 2 2 2 2 3 3 2 2 2 2
92 89 87 85 82 80 77 74 72 69 66 63 60 57 53 49 46 43 39 34 29 26 23 21 17 14 10 7 6 5 4 3 3 3 3 3 2 2 2 2 2 2 2 2 2 2 2 3 3 3 3 2

ECMWFFLT2_700_rhum_084.txt.gz
RH
11 12 12 12 12 13 13 14 14 14 15 15 15 15 15 15 15 16 17 18 19 21 21 21 20 20 20 19 19 18 18 17 16 15 14 13 12 11 11 10 10 10 9 9 9 9 9 9 8 8 8 8
13 13 13 14 14 15 15 15 16 16 16 16 16 16 16 16 16 17 18 20 21 21 21 21 20 20 20 20 19 18 18 17 16 15 14 13 12 12 11 11 11 10 10 10 10 10 9 10 10 10 9 9
14 15 15 15 16 16 17 17 18 18 17 17 17 17 17 17 17 18 19 21 22 21 21 21 21 20 20 20 19 18 18 17 16 15 14 14 13 13 13 12 13 12 12 12 12 12 11 11 11 12 12 11
16 16 17 17 18 18 19 19 19 18 18 18 18 18 18 18 18 19 20 22 22 22 22 22 22 21 21 21 20 19 18 18 17 16 16 16 15 15 15 15 15 15 15 14 14 14 13 13 13 13 13 13
18 18 18 19 19 20 20 20 20 19 19 19 19 20 19 19 19 20 22 24 25 24 24 24 23 22 22 21 20 20 20 19 19 18 18 18 18 18 17 17 17 16 16 15 14 14 14 13 14 14 14 15
20 20 20 20 21 21 21 21 20 19 20 20 21 21 20 20 20 22 24 26 27 26 26 25 24 23 24 23 22 22 22 21 21 20 20 20 19 18 18 17 17 16 16 15 15 14 14 14 14 14 15 16
21 21 21 22 22 22 22 21 20 20 21 22 23 23 22 21 21 24 27 27 28 28 27 26 25 25 25 25 24 24 24 23 23 22 22 21 20 19 18 18 17 16 16 15 15 14 15 14 15 15 15 16
22 22 23 23 24 23 23 22 21 21 22 24 25 24 23 22 22 25 27 28 29 29 29 28 27 27 27 27 26 26 26 25 25 24 24 22 21 20 19 19 18 18 17 16 15 14 14 14 14 14 15 15
23 24 24 24 24 24 23 22 22 23 24 26 26 25 24 22 22 23 26 28 30 30 30 30 28 28 29 28 28 28 28 28 27 26 25 25 24 23 22 21 21 20 19 18 16 15 13 13 13 13 14 14
25 26 26 25 25 24 24 23 24 25 26 28 28 27 25 23 22 23 25 27 29 32 32 31 31 31 31 30 29 28 29 29 29 28 28 27 26 26 25 24 23 22 20 19 17 16 14 14 13 13 13 14
27 27 27 26 26 25 24 24 25 26 28 29 30 29 26 24 24 24 25 27 29 32 33 32 33 33 33 32 31 30 30 31 31 31 30 29 29 28 28 26 25 23 22 20 19 18 17 17 17 16 16 16
28 28 28 27 26 25 25 25 26 28 30 31 32 31 29 27 26 26 26 27 29 31 33 34 35 35 35 34 33 32 32 33 33 33 33 32 31 31 29 28 26 24 23 21 20 20 21 22 22 22 21 20
29 28 28 28 27 26 25 26 27 30 32 33 34 34 33 31 29 29 28 28 31 33 34 36 37 37 38 37 36 35 35 35 36 35 35 34 33 33 31 30 28 26 24 22 21 22 24 26 27 26 25 24
29 29 29 28 27 26 27 28 29 32 34 36 37 38 38 36 33 32 31 32 34 36 37 39 39 39 39 40 39 38 38 38 38 38 37 36 35 34 33 31 29 27 25 24 24 25 27 29 30 29 28 26
30 29 29 28 28 28 28 29 32 36 38 39 41 41 41 40 38 36 35 36 38 40 41 41 40 40 41 41 41 40 40 40 41 41 40 39 38 37 35 33 32 29 27 27 27 28 30 31 31 30 28 27
30 30 30 29 29 30 31 33 37 40 42 44 45 45 45 44 42 41 40 41 42 43 43 43 42 42 42 43 43 42 42 43 43 42 42 41 40 38 37 35 34 32 31 30 31 32 33 34 33 31 29 27
31 31 31 31 32 33 35 39 43 46 48 49 48 48 48 47 46 45 45 45 45 45 44 44 43 43 44 44 44 43 43 44 43 43 43 42 41 40 39 37 36 34 33 32 33 34 34 35 34 33 31 30
31 32 32 33 35 38 42 46 50 52 53 53 52 51 50 50 49 48 48 48 47 46 46 45 45 44 45 45 45 44 44 44 44 44 44 44 43 43 42 41 39 37 35 35 34 35 35 35 35 34 34 33
32 33 35 38 41 46 50 54 56 57 57 56 55 54 53 52 51 50 50 49 48 47 47 46 46 46 46 46 45 45 45 46 46 46 46 46 46 45 45 43 42 40 38 38 37 37 37 36 36 36 35 35
36 39 42 46 51 55 58 60 61 61 60 59 58 56 55 54 54 53 52 51 50 49 48 48 47 47 47 47 46 46 47 47 48 48 48 48 48 48 47 46 44 42 41 40 39 39 39 39 39 38 37 37
44 48 53 57 61 63 65 65 66 65 64 62 62 60 59 58 57 56 55 54 52 52 51 50 50 49 49 49 49 49 49 50 50 50 50 50 51 50 49 48 46 45 44 42 42 42 42 42 41 40 39 38
57 61 65 67 69 71 71 71 70 70 68 67 67 66 65 63 62 61 60 58 57 56 55 54 53 53 52 52 51 51 52 52 52 53 53 52 53 53 52 50 49 47 46 45 45 45 45 45 43 41 39 37
69 72 74 76 76 77 77 77 76 75 73 72 72 72 71 69 68 66 64 63 62 61 60 58 57 56 56 55 54 54 55 55 55 55 55 55 55 55 55 53 52 51 49 48 48 48 47 46 44 41 38 36
77 78 80 82 83 84 86 86 85 83 81 79 77 78 76 74 72 71 70 68 66 65 64 62 61 60 59 58 58 58 58 59 59 59 59 59 58 58 57 56 56 55 53 52 51 50 49 46 44 40 36 34
82 84 86 89 90 92 94 94 93 91 89 87 85 84 82 80 78 77 75 74 72 71 70 68 66 65 64 63 64 63 63 64 64 64 63 62 61 60 60 59 60 59 58 55 53 51 49 46 44 41 36 33
92 94 95 96 97 97 98 98 97 95 93 92 91 90 89 86 84 83 82 80 79 78 77 76 75 73 72 71 70 69 69 69 68 68 67 66 65 64 64 64 63 63 60 56 54 51 48 45 43 40 36 33
100 100 100 100 100 100 100 99 98 97 95 94 93 93 92 91 89 88 87 86 84 83 82 81 80 80 80 79 77 76 75 74 74 73 72 71 70 69 69 68 65 64 61 57 54 52 48 44 42 39 36 32
100 100 99 99 99 98 98 96 95 93 91 90 89 89 88 88 87 86 86 86 84 84 83 81 81 81 81 81 80 79 78 78 77 77 76 74 72 70 68 65 63 61 59 56 53 50 47 44 41 38 35 32
97 96 95 94 92 90 88 86 84 82 81 80 79 79 79 79 79 78 78 78 77 76 76 74 74 74 75 74 74 74 74 73 73 72 71 69 67 65 62 60 58 56 53 50 48 46 44 41 38 35 32 29
86 84 83 81 78 76 74 72 70 69 68 67 67 67 68 68 68 68 69 70 69 69 68 67 66 66 67 66 66 65 65 65 64 63 62 61 59 57 56 54 52 51 48 44 42 39 36 34 32 31 28 25
69 67 66 65 63 62 60 59 58 58 57 57 57 57 57 58 58 58 60 61 61 61 61 60 59 61 62 61 61 60 59 59 57 56 55 54 53 51 49 48 46 46 43 40 37 32 29 27 25 23 22 19

ECMWFFLT2_700_rhum_087.txt.gz
RH
12 12 12 12 12 12 12 12 13 13 14 14 15 15 15 15 15 15 15 15 14 14 14 14 14 15 16 16 16 17 17 18 18 18 17 17 17 16 15 14 13 12 12 11 10 10 9 9 9 9 9 8
14 14 14 14 14 14 14 14 15 15 16 16 16 16 16 16 16 16 16 16 15 15 15 15 15 16 18 18 19 19 19 19 19 19 18 17 17 16 15 14 13 12 11 11 10 10 10 10 9 9 9 9
15 15 15 15 15 16 16 16 17 17 17 17 17 17 17 17 17 17 17 17 16 16 16 16 17 18 20 20 20 20 20 20 19 19 18 18 17 16 15 14 13 12 12 11 10 11 11 11 10 10 10 9
17 17 17 17 17 17 18 18 18 18 18 18 18 18 18 18 17 18 18 18 17 17 17 17 19 21 21 21 21 21 21 20 20 20 19 18 18 17 16 15 14 14 13 12 12 11 12 12 12 12 11 11
18 18 18 19 19 19 19 19 20 19 19 19 19 19 19 19 18 18 19 19 19 19 19 20 21 22 22 22 22 22 21 20 21 21 20 19 18 18 17 17 16 15 15 14 14 13 13 13 12 13 12 12
20 20 20 20 20 20 21 21 21 21 21 20 20 19 19 19 20 20 20 20 20 20 21 22 22 23 23 24 24 23 22 22 22 21 20 19 19 19 19 19 19 18 17 16 15 15 14 14 13 13 13 13
22 22 22 22 22 22 22 22 22 22 22 22 20 20 20 20 21 22 22 22 21 20 22 23 24 25 25 25 25 24 23 23 23 22 21 21 21 22 22 21 21 21 19 18 17 17 16 15 15 14 14 14
23 23 23 23 24 23 23 24 24 24 23 23 21 20 20 21 23 24 25 25 23 22 22 23 25 26 27 26 26 25 25 24 24 24 23 23 24 24 24 23 23 22 20 19 18 18 17 16 15 15 14 14
25 25 25 25 25 25 25 25 25 25 24 23 22 21 22 23 24 26 27 26 25 23 22 23 26 28 29 28 28 27 26 26 26 27 26 26 26 26 25 25 24 23 21 20 20 19 19 18 17 16 15 14
27 26 27 26 26 26 26 26 26 26 25 23 22 22 23 24 26 28 28 28 26 24 23 23 27 30 31 30 30 29 28 28 29 29 29 28 28 28 27 26 25 25 24 23 22 22 21 21 20 18 17 15
28 28 28 27 27 27 27 27 27 27 26 25 24 23 24 26 28 29 30 30 29 27 25 24 24 27 30 31 31 31 31 31 31 32 31 31 30 30 30 29 29 28 28 27 26 26 24 23 22 20 18 17
29 29 29 29 29 28 28 28 28 28 27 26 25 25 25 27 29 30 32 32 32 31 29 27 25 25 27 30 32 32 32 32 33 34 34 34 33 33 33 32 32 31 31 31 29 29 28 26 24 22 20 19
30 30 29 29 30 29 29 29 29 28 28 27 26 26 26 27 30 32 34 35 35 35 34 33 30 27 27 29 32 33 33 33 34 36 36 36 35 35 35 34 34 33 32 32 31 30 29 28 26 24 23 24
31 30 30 30 30 30 30 30 29 29 29 29 27 27 27 28 31 34 36 38 38 39 38 37 35 32 30 29 31 33 35 36 36 37 38 37 37 36 36 36 36 35 35 34 33 32 30 29 28 26 26 27
32 31 31 31 31 31 31 30 29 29 29 29 28 29 29 30 32 36 39 40 41 42 41 41 39 37 34 32 32 33 37 39 39 39 39 40 39 39 38 39 39 38 37 36 35 34 32 31 29 28 27 28
32 32 32 32 32 32 31 31 30 30 30 30 30 31 32 33 35 39 42 43 44 45 44 43 42 41 39 37 36 37 39 40 41 40 41 42 41 41 41 41 41 41 40 39 38 37 35 34 32 31 29 29
32 31 32 32 32 32 32 31 31 31 31 31 32 34 36 37 40 45 47 48 48 48 48 46 45 44 42 41 40 41 42 42 42 42 42 43 43 43 43 42 42 42 42 41 40 39 38 37 35 34 33 32
32 31 32 33 33 33 33 33 34 34 34 35 36 38 41 43 46 50 52 52 52 51 50 49 47 46 45 44 45 45 45 44 44 44 43 44 44 44 43 43 43 43 43 43 42 42 41 39 38 36 34 34
33 33 33 34 34 35 36 37 38 38 39 41 44 47 49 51 53 56 57 56 55 55 53 52 50 49 48 47 47 47 46 46 45 45 44 44 44 43 43 43 44 45 45 45 45 44 44 42 40 38 37 36
35 35 35 37 38 39 42 43 44 44 47 50 54 57 58 59 60 61 61 60 59 58 57 55 54 53 52 51 50 49 48 48 47 46 46 45 45 44 44 45 46 47 47 47 47 47 46 45 43 41 40 38
39 39 39 41 44 46 49 51 52 53 56 60 63 65 66 65 66 66 66 65 64 63 63 61 60 59 57 56 54 54 53 52 50 49 49 48 47 47 47 47 48 49 50 50 50 49 49 47 46 44 42 41
49 48 49 50 54 57 59 63 64 64 66 69 72 73 73 73 72 73 73 72 71 70 70 68 67 65 63 62 61 60 58 57 56 54 53 52 51 51 50 50 51 52 52 52 52 51 51 50 48 47 46 44
63 63 64 65 68 71 74 77 79 79 78 79 80 80 80 79 78 78 78 78 77 76 76 75 73 71 70 69 67 66 64 63 61 59 58 56 55 55 54 54 54 55 55 54 54 53 53 52 51 50 49 48
75 76 78 81 83 87 91 93 93 93 92 90 90 90 88 86 85 84 83 82 80 79 79 78 77 75 75 74 73 72 70 69 68 66 64 62 61 60 59 59 60 60 60 58 57 57 56 55 54 52 52 51
85 86 88 92 93 96 98 99 100 100 99 98 97 97 95 93 91 89 87 85 83 82 81 79 78 78 78 79 78 77 75 74 73 73 71 69 67 65 64 64 66 66 65 62 61 60 58 57 56 55 54 54
92 94 95 97 98 98 99 100 100 99 98 98 97 96 94 92 90 88 85 84 82 80 79 78 78 78 80 82 82 81 80 79 79 78 76 74 72 71 70 69 70 71 69 66 65 63 61 59 59 58 59 59
95 96 95 95 95 94 92 92 91 90 89 88 87 86 84 82 80 78 76 74 73 72 71 71 71 72 74 78 79 79 80 81 82 82 80 79 77 76 75 74 73 74 74 71 69 68 65 62 61 60 61 61
84 84 83 81 81 80 79 77 77 76 75 73 72 72 71 69 68 66 66 65 65 64 63 63 62 63 65 69 71 72 73 75 76 78 78 78 79 78 77 76 76 77 77 76 73 71 69 67 65 62 61 58
69 70 68 64 63 64 64 63 62 61 61 61 60 59 59 59 58 58 58 58 59 58 57 57 56 57 59 62 63 64 65 66 68 69 70 72 72 73 73 72 73 73 74 73 72 71 69 68 66 62 60 56
56 55 52 50 49 49 49 48 48 46 46 46 46 47 47 47 49 49 49 50 52 53 52 52 52 53 55 57 58 59 59 60 62 63 64 65 65 66 67 66 65 66 67 67 66 65 65 64 63 60 59 56
37 35 33 33 33 33 34 34 34 34 34 34 35 37 37 39 41 42 43 44 47 48 48 48 49 50 52 54 55 55 56 57 57 58 59 60 60 60 61 61 60 61 62 63 61 60 59 58 58 57 56 55

ECMWFFLT2_700_rhum_093.txt.gz
RH
21 20 19 18 17 17 17 16 16 16 15 15 14 14 14 13 13 13 14 14 15 15 15 15 15 16 16 16 16 16 17 17 18 18 18 18 18 19 20 19 19 18 18 18 18 18 18 17 16 15 14 14
23 21 20 19 19 19 18 18 18 17 17 16 16 15 15 15 15 16 16 16 17 16 17 17 17 17 17 17 17 17 18 18 20 20 20 20 20 20 20 20 20 19 19 19 19 19 18 18 17 16 15 15
24 23 21 21 20 20 20 20 19 18 18 17 17 17 17 18 18 18 18 18 18 18 18 18 18 18 18 18 18 18 19 20 20 22 23 22 22 22 21 21 22 21 21 20 20 19 19 18 18 17 16 16
25 24 23 22 22 22 22 21 20 20 19 19 19 19 19 20 20 21 21 21 20 20 20 20 20 19 19 18 19 19 20 21 21 23 24 24 24 23 23 22 22 22 22 22 21 21 20 20 19 19 18 17
26 25 24 24 23 23 23 23 22 22 21 21 21 21 21 21 22 22 22 23 22 22 22 21 21 20 20 19 19 20 21 22 23 24 25 26 26 25 24 24 24 23 23 23 23 23 22 21 20 20 19 18
28 27 26 26 25 25 25 25 24 24 23 23 23 23 23 23 23 24 24 24 24 24 23 22 22 21 21 20 20 20 21 22 23 25 26 26 27 26 26 25 25 24 24 24 24 24 24 23 22 22 21 20
29 29 28 28 28 28 27 27 27 26 26 26 26 25 25 25 25 25 26 26 26 25 25 24 23 22 21 21 21 21 22 23 24 25 26 27 28 28 27 26 26 26 26 25 25 25 25 25 24 23 23 22
34 33 33 33 32 31 30 28 28 28 28 27 28 28 27 27 27 27 27 27 27 26 26 26 24 23 22 21 21 22 24 24 25 25 26 27 28 29 29 28 27 27 27 27 27 26 26 27 26 25 24 24
40 40 40 40 39 38 35 32 30 29 29 29 29 29 29 29 29 28 28 28 28 28 28 27 26 25 23 22 22 23 25 26 27 26 26 26 27 29 30 30 29 29 29 29 29 28 28 28 28 27 26 25
45 44 44 45 45 44 43 40 37 34 32 30 30 31 30 30 30 30 30 30 30 30 29 29 28 27 25 24 23 24 25 27 29 29 28 27 26 27 29 31 32 31 30 30 31 31 30 30 30 29 28 27
47 47 47 47 48 48 48 48 46 43 40 36 34 32 31 31 31 31 31 31 31 31 31 31 30 29 28 26 25 25 26 27 29 31 31 29 27 26 28 31 33 34 32 31 31 32 33 32 32 31 30 29
50 50 51 51 51 51 51 52 52 52 50 47 43 39 35 33 32 32 32 33 33 32 32 32 32 31 30 29 28 27 27 28 29 31 33 33 31 29 28 28 31 34 35 35 33 33 34 34 34 33 32 31
55 55 55 55 55 55 55 55 56 56 56 54 52 48 43 38 35 34 34 34 34 34 34 34 33 33 32 31 31 30 30 29 30 31 33 35 36 34 33 31 29 30 32 35 36 35 35 35 35 35 34 33
60 60 59 59 59 59 59 59 59 60 59 59 57 54 50 45 41 38 37 36 36 36 36 36 35 35 34 33 33 32 32 32 32 32 33 36 38 39 38 37 35 33 31 32 33 36 36 36 36 36 36 35
60 61 61 61 61 62 62 62 62 62 62 61 61 59 55 52 48 44 42 40 39 38 38 38 38 37 36 36 35 35 35 34 34 34 35 36 39 41 42 42 41 40 38 35 33 33 35 37 38 37 37 37
57 58 58 58 59 60 62 63 63 64 64 64 64 63 61 60 57 55 52 49 47 44 43 42 41 40 39 39 38 38 39 39 39 39 39 39 40 42 44 45 44 44 43 41 39 36 35 36 38 39 39 39
49 50 50 51 52 54 56 58 60 61 62 64 64 65 64 64 64 63 62 60 59 56 54 52 51 50 48 48 47 47 47 47 48 47 47 47 46 47 47 48 48 47 45 43 42 41 38 37 38 40 40 40
32 34 35 36 38 40 43 47 50 52 55 57 59 61 62 64 64 65 65 65 64 64 63 62 61 61 60 60 59 59 59 58 58 57 56 56 55 55 54 53 52 50 49 47 44 43 42 40 39 40 41 41
18 20 21 22 24 25 27 30 33 36 40 43 46 51 55 59 63 65 66 66 65 65 65 64 65 66 66 67 67 67 67 66 65 65 64 63 61 61 60 59 57 55 52 50 48 45 44 43 42 42 42 42
12 13 14 15 16 16 17 18 20 22 24 27 30 34 40 46 54 59 63 65 66 66 66 65 65 66 67 67 68 68 68 68 67 66 65 65 64 62 61 61 60 59 57 54 52 49 47 45 44 43 43 43
11 11 12 12 13 13 16 18 20 22 24 26 27 29 31 35 40 45 50 55 58 60 63 65 65 65 65 65 65 66 66 65 64 63 61 61 61 60 59 58 58 58 58 57 55 54 51 49 46 45 45 45
11 11 11 12 12 13 16 19 21 24 27 30 33 35 37 38 40 41 44 46 48 51 56 61 64 65 65 64 65 66 67 67 66 64 62 59 58 58 56 55 55 54 54 54 54 54 54 53 50 48 47 47
12 13 13 14 16 18 20 21 23 27 31 33 37 41 46 49 51 51 50 49 50 51 52 55 58 61 62 62 61 63 65 66 66 65 64 62 61 60 59 56 54 53 52 51 51 52 53 54 54 53 51 50
18 20 22 24 27 31 33 33 33 34 35 35 35 39 42 45 47 48 48 47 48 49 48 49 50 52 54 55 55 55 56 58 60 61 60 60 60 60 61 60 59 57 54 51 50 49 49 50 52 53 55 54
20 23 27 30 31 34 36 35 33 32 30 28 27 27 28 28 29 30 31 31 32 33 33 34 35 37 39 41 42 42 44 46 50 52 54 54 55 55 56 58 59 59 58 55 52 49 48 48 49 50 52 53
19 20 22 24 24 24 27 27 25 25 24 24 24 24 24 24 24 24 23 23 23 23 24 23 24 24 25 26 27 28 30 32 34 38 42 45 47 49 50 52 54 56 56 55 54 52 48 48 49 51 51 52
20 20 20 21 21 22 23 23 23 23 24 25 26 26 27 28 28 28 27 27 27 26 25 25 25 24 24 23 23 23 23 23 24 25 27 31 36 40 43 47 50 52 53 53 53 52 50 48 47 48 50 52
21 21 21 22 22 23 23 23 23 24 25 26 27 28 29 30 31 31 31 31 31 30 30 29 29 28 28 27 26 25 24 23 22 22 22 23 25 29 33 38 42 47 52 52 52 51 51 50 47 46 46 47
22 23 23 24 24 24 24 25 25 25 27 28 29 29 30 31 32 33 33 34 34 33 33 33 32 32 31 30 29 28 27 26 24 24 23 23 23 24 26 29 32 39 46 50 52 53 52 51 50 48 47 45
24 24 25 25 26 26 25 25 25 26 27 28 28 29 29 30 32 33 34 35 35 34 34 34 34 34 33 32 31 30 29 28 27 26 25 24 23 23 24 25 26 30 38 44 50 53 53 54 54 51 50 49
26 26 27 27 26 25 24 24 25 27 28 29 30 30 31 32 32 34 35 36 36 35 35 34 34 34 33 33 32 31 30 29 28 27 26 25 24 24 24 24 24 26 30 37 44 49 51 53 56 55 53 53

ECMWFFLT2_700_rhum_099.txt.gz
RH
30 29 29 28 28 29 29 28 28 27 27 26 25 25 24 24 24 24 23 22 22 21 20 20 20 19 19 19 19 19 19 20 19 19 19 18 18 18 18 18 17 17 17 17 18 18 18 18 17 17 17 17
29 28 28 28 28 28 28 28 28 27 27 27 26 26 26 26 25 25 25 24 24 23 23 22 22 22 22 21 21 21 21 21 21 21 21 20 20 20 19 19 18 18 18 18 19 19 20 19 19 18 18 18
28 28 27 27 27 27 27 27 27 27 27 27 27 27 27 26 26 26 26 26 25 25 25 24 24 24 24 24 24 23 23 23 22 22 22 21 21 21 21 20 20 20 19 19 20 20 21 21 20 20 19 19
28 28 28 27 27 27 27 28 28 28 28 29 29 29 29 29 29 28 28 27 27 27 27 27 27 27 27 26 26 26 26 25 25 24 24 23 22 22 22 21 21 21 21 20 21 22 22 23 22 22 22 21
30 30 30 30 30 30 30 30 30 31 31 31 31 32 32 32 32 32 31 30 30 29 29 29 29 29 29 29 29 29 29 28 28 27 26 26 25 24 23 23 22 22 21 21 21 22 23 24 24 24 24 23
32 32 32 33 33 33 33 33 34 34 34 34 34 34 34 34 34 34 34 34 33 33 32 32 32 31 31 31 31 31 32 31 31 30 29 28 27 26 25 24 24 23 22 22 22 22 22 23 25 25 25 25
31 32 32 33 33 33 33 33 34 34 35 35 36 36 36 36 36 36 36 36 36 36 36 35 35 35 35 34 34 34 33 33 33 33 33 32 31 29 28 27 26 25 24 23 23 23 23 23 24 25 26 27
27 28 28 28 28 28 28 29 30 30 30 31 31 32 33 33 34 35 36 36 37 37 38 38 38 38 38 38 37 37 37 36 36 36 36 35 35 33 32 30 28 27 27 26 25 24 24 24 25 25 26 26
19 18 17 16 16 16 16 16 16 16 16 15 16 16 17 18 19 20 22 24 26 28 31 33 35 37 38 39 40 40 40 40 40 39 39 38 37 37 36 35 33 31 29 28 27 26 25 25 25 26 27 27
7 6 5 5 4 4 4 4 4 4 4 4 4 4 4 4 5 5 6 7 8 10 13 15 18 22 26 29 33 36 38 40 41 42 42 41 41 40 39 39 38 36 34 32 30 28 27 27 26 27 28 28
2 2 2 2 2 2 3 3 3 3 3 3 3 3 3 3 3 3 3 3 3 3 4 4 5 7 8 11 13 17 20 23 27 31 34 37 40 41 42 41 41 40 39 38 35 33 31 29 28 28 28 29
3 3 3 3 3 3 4 4 4 4 4 4 4 4 4 4 4 4 4 4 4 4 4 4 3 3 3 3 4 4 5 6 8 11 14 18 22 27 32 36 39 41 42 41 40 39 37 34 32 30 29 29
4 4 4 4 4 4 4 4 4 4 4 4 4 4 4 4 5 5 5 5 5 5 5 5 5 4 4 4 4 4 3 4 3 3 4 5 6 9 12 17 22 28 34 38 40 42 41 40 39 36 33 31
4 4 4 4 4 4 4 4 4 4 4 4 4 4 4 4 5 5 5 5 5 5 5 5 5 5 5 5 5 5 5 4 4 4 4 4 4 4 4 5 6 9 14 21 28 33 38 41 42 41 40 37
4 4 4 4 4 4 4 4 4 4 4 4 4 4 5 5 5 5 5 5 5 5 5 5 5 5 5 5 5 5 5 5 5 5 5 5 5 4 4 4 4 4 4 6 10 15 22 30 36 41 43 42
4 4 4 4 4 4 4 4 4 4 5 5 5 5 5 5 5 5 5 5 5 5 5 5 5 5 5 5 5 5 5 5 5 5 5 5 5 5 4 4 4 4 4 4 4 5 7 11 19 27 35 40
5 5 5 5 5 5 5 5 5 5 6 6 6 6 6 6 6 6 6 6 6 5 5 5 5 5 5 5 5 5 5 5 5 4 4 4 4 5 4 4 5 4 4 4 4 4 4 4 6 10 17 27
6 6 6 6 6 6 6 6 7 7 7 7 7 7 7 7 7 7 7 6 6 6 6 6 6 5 5 5 5 5 5 5 5 5 5 4 4 4 4 4 4 4 4 4 4 4 5 5 5 5 6 12
7 7 7 7 7 7 7 7 8 8 8 8 8 8 8 7 8 8 7 7 7 7 7 7 7 6 6 6 6 6 6 5 5 5 5 5 5 4 4 4 4 4 4 4 4 4 4 4 5 5 5 6
7 8 7 8 8 8 8 8 9 9 9 9 9 9 9 9 9 9 9 9 9 8 8 8 8 8 7 7 7 6 6 6 6 6 5 5 5 5 5 5 4 4 4 4 4 4 4 5 4 4 5 6
8 8 8 8 8 8 9 9 9 9 9 9 10 10 10 10 10 10 10 10 10 10 10 9 9 9 9 8 8 8 7 7 6 6 6 6 5 5 5 5 5 5 5 4 4 5 4 4 5 4 5 5
8 8 8 8 8 9 9 9 9 9 10 10 10 11 11 11 11 11 11 11 11 11 11 11 10 10 10 9 9 9 8 8 8 7 7 7 6 6 6 6 6 5 5 5 4 5 5 5 5 5 5 5
9 9 9 9 9 9 9 9 9 9 9 10 10 11 11 11 12 12 12 12 12 12 12 12 11 11 11 10 10 10 10 9 9 8 8 8 7 7 7 6 6 6 5 5 5 5 5 5 5 5 5 5
9 9 9 9 9 9 9 9 9 10 10 10 10 11 11 11 12 12 12 13 13 13 13 13 12 12 12 11 11 11 11 10 10 9 9 9 8 8 8 8 7 7 6 6 6 5 5 6 5 5 5 5
10 11 11 11 11 11 11 11 11 11 11 11 11 11 11 12 12 12 13 13 13 13 13 13 13 13 13 13 12 12 12 11 11 10 10 9 9 9 9 9 8 8 8 7 6 6 6 7 7 7 6 6
13 13 13 13 13 13 13 13 13 13 13 13 13 12 12 12 13 13 14 14 14 14 14 15 15 14 14 14 13 13 13 12 12 11 11 11 10 10 10 10 10 9 9 8 8 7 7 7 8 8 8 8
16 16 17 17 16 17 16 16 16 16 16 15 15 14 14 14 15 15 15 16 16 16 16 16 16 16 15 15 15 14 14 14 13 13 12 12 11 11 11 11 11 11 11 10 10 10 9 9 9 10 10 11
20 20 20 20 20 20 20 20 20 19 19 19 18 18 17 17 17 17 18 18 18 18 18 18 18 18 17 17 16 16 16 15 15 15 14 14 13 13 13 13 14 14 14 14 13 13 13 13 13 13 13 14
22 22 23 23 23 23 23 23 23 23 22 22 22 22 21 21 20 20 21 21 21 20 20 20 20 20 19 19 18 18 18 17 17 17 17 16 16 16 16 16 16 18 18 19 19 18 18 19 18 17 17 17
23 24 25 26 26 26 26 26 26 26 26 25 26 26 25 25 24 24 24 24 24 23 23 22 22 21 21 21 21 20 20 21 20 20 20 20 20 21 22 21 21 22 23 25 25 25 25 26 25 23 23 23
23 25 27 27 28 28 29 29 29 29 29 28 28 29 28 28 27 26 26 26 26 25 25 25 24 24 23 23 23 23 24 24 24 24 25 25 25 26 27 28 28 28 29 30 31 32 31 31 31 29 28 28

ECMWFFLT2_700_rhum_102.txt.gz
RH
26 25 24 24 23 23 22 22 21 21 21 21 22 22 22 22 22 22 22 22 22 21 21 21 21 20 20 20 20 20 19 19 19 19 19 19 19 19 19 18 18 17 17 16 16 15 15 14 14 14 14 15
25 24 24 23 23 23 23 23 23 23 23 23 23 24 24 24 23 24 24 24 24 24 24 23 23 22 22 22 22 22 22 21 21 20 20 20 20 20 20 20 20 19 19 18 17 16 16 16 15 15 15 15
25 25 24 24 24 24 24 24 25 25 25 25 25 25 26 26 26 26 26 26 26 26 26 26 26 26 25 25 25 24 24 24 24 23 23 22 22 22 22 21 21 20 20 20 19 18 18 17 17 16 16 16
25 25 25 25 25 25 26 26 26 26 27 27 27 27 28 28 29 29 29 29 29 29 29 29 29 29 29 28 28 27 28 27 27 27 26 26 25 25 25 24 24 23 22 21 21 20 19 19 18 18 17 17
26 25 25 25 25 25 25 26 26 26 26 27 27 27 28 28 29 29 30 31 31 32 32 32 32 32 32 32 31 31 31 31 31 30 30 30 29 28 28 28 27 27 26 25 24 23 22 21 20 19 19 18
24 23 23 23 23 23 24 24 24 24 25 25 26 26 27 27 28 28 29 29 30 31 32 33 33 34 34 34 34 35 35 35 34 34 34 34 33 33 32 32 31 31 31 30 28 27 25 24 23 22 21 20
21 21 21 21 20 20 20 19 18 18 18 18 18 18 18 18 18 18 18 19 20 21 22 23 25 27 28 30 31 33 34 35 36 36 37 36 37 36 36 36 35 34 34 34 33 32 31 30 28 26 24 22
18 17 15 14 12 10 9 8 7 7 7 7 6 6 6 5 5 5 5 5 6 6 7 8 9 10 12 13 15 17 19 21 24 26 28 30 32 33 35 36 36 37 37 37 37 36 35 35 34 32 30 27
9 7 6 5 3 3 2 2 2 2 2 2 2 2 2 2 2 2 2 2 2 2 2 2 2 3 3 3 3 4 4 6 7 8 10 13 15 17 20 23 26 29 31 34 36 38 38 38 37 36 35 34
3 2 2 2 2 2 2 2 2 2 2 2 2 3 2 2 2 2 2 2 2 2 2 3 3 3 3 3 3 3 2 3 2 2 3 3 4 4 5 7 9 11 14 18 22 27 32 36 38 39 39 38
2 2 2 2 2 2 2 2 2 2 2 2 2 2 2 2 2 2 2 2 2 2 2 2 2 2 2 2 2 3 3 3 3 3 3 3 3 3 3 2 3 3 3 4 6 9 12 17 23 29 34 37
2 3 3 3 3 2 3 2 2 2 2 2 2 2 2 2 2 2 2 2 2 2 2 2 2 2 2 2 2 3 2 2 2 2 3 3 3 3 3 3 3 3 3 3 3 2 3 4 6 9 14 20
3 3 3 3 2 2 2 2 2 2 2 2 2 2 3 3 3 3 3 3 3 3 3 3 3 3 3 3 3 3 3 3 3 3 3 2 3 3 3 3 3 3 3 3 3 3 3 3 2 3 3 4
3 3 3 3 3 3 3 3 3 3 3 3 3 3 3 3 3 3 3 4 4 4 4 4 4 3 4 3 3 3 3 3 3 3 3 3 3 3 3 3 3 3 3 3 3 3 3 3 3 2 3 3
3 3 3 3 3 3 3 4 4 4 4 4 4 4 4 4 4 4 5 5 5 5 5 5 5 5 4 4 4 4 4 4 4 4 4 4 3 3 3 3 3 3 3 3 3 3 3 3 3 3 3 2
3 4 4 4 4 4 4 4 5 5 5 5 5 5 5 6 5 6 6 6 6 6 6 6 6 6 6 6 6 5 6 5 5 5 4 4 4 4 4 3 3 3 3 3 3 3 3 3 3 3 3 3
4 4 4 5 5 5 5 5 6 6 6 6 6 6 7 7 7 7 7 7 7 7 7 7 7 7 7 7 7 7 7 7 6 6 6 6 5 5 5 4 4 4 3 3 3 3 3 3 3 3 3 3
5 5 5 6 6 6 6 6 7 7 7 7 7 7 7 8 8 8 8 8 8 9 9 9 9 9 9 9 9 9 8 8 8 8 8 7 7 6 6 6 5 5 4 4 4 4 3 3 3 3 3 3
6 6 6 6 6 7 7 7 7 7 7 7 8 8 8 8 8 9 9 9 9 10 10 10 10 10 11 11 10 11 11 10 10 10 10 9 9 8 8 7 7 6 5 5 5 4 4 4 4 4 3 3
7 7 7 7 7 7 7 8 8 8 8 8 8 8 8 8 9 9 9 9 10 10 10 10 11 11 11 12 12 12 12 12 12 12 12 11 11 10 9 9 8 8 7 6 6 6 5 5 5 4 4 4
8 8 8 8 8 8 8 8 8 8 8 8 8 8 8 9 8 9 9 9 10 10 10 10 11 11 11 12 12 13 13 13 13 13 13 13 13 12 12 11 10 9 9 8 7 7 7 6 6 5 5 5
9 9 9 9 9 9 9 9 9 9 9 9 9 9 9 10 9 10 10 10 10 10 10 10 10 11 11 12 12 13 13 14 14 14 14 14 14 14 13 13 12 11 10 10 9 8 8 7 7 7 6 6
11 11 11 11 11 11 11 12 12 12 12 12 12 12 12 12 12 12 12 12 12 11 11 11 11 11 11 12 12 13 13 14 15 15 15 15 15 15 14 14 13 12 11 10 10 9 9 8 8 7 7 6
13 13 13 14 14 14 15 15 15 16 16 16 16 17 16 17 16 16 16 15 15 14 14 14 13 13 12 13 13 14 14 15 15 16 16 16 16 16 15 15 14 13 12 11 11 10 9 9 8 8 7 7
14 15 15 15 16 16 16 17 18 18 18 19 19 20 20 20 20 20 20 19 19 19 18 17 16 15 15 15 15 15 15 16 16 17 17 17 17 17 16 15 15 14 13 12 11 10 10 9 8 8 7 7
15 16 16 15 16 17 17 17 18 18 19 19 20 21 21 22 22 23 23 23 23 23 22 21 20 19 18 17 17 17 17 17 17 17 18 18 18 17 17 16 15 14 13 12 11 10 10 9 8 8 7 6
14 15 14 14 15 16 16 16 17 17 18 19 21 21 22 24 24 25 26 26 27 26 26 25 24 23 21 20 19 19 18 18 18 19 19 19 19 18 17 16 16 14 14 12 11 11 10 9 9 8 8 6
13 13 13 12 14 14 14 15 16 16 17 20 21 21 22 25 26 28 29 29 30 29 29 28 28 27 25 24 22 21 21 20 19 20 20 20 20 19 18 17 16 14 13 13 12 11 10 10 9 8 9 7
12 12 11 12 13 14 14 15 15 16 19 21 21 21 24 26 29 30 32 33 33 33 33 32 31 31 29 27 25 24 23 22 21 22 22 21 21 20 19 17 16 14 13 13 12 12 12 12 11 10 11 9
11 11 10 11 12 14 15 14 14 17 20 21 21 22 24 27 30 32 34 35 35 36 35 35 35 34 33 31 29 27 26 25 24 24 23 23 22 20 19 18 16 15 14 13 13 13 14 15 15 14 14 13
10 11 10 10 12 14 14 14 16 19 21 22 22 22 25 28 31 33 35 36 37 38 38 38 38 37 36 34 31 29 28 28 27 26 26 25 24 22 20 19 17 16 16 15 15 14 15 17 18 18 18 18

ECMWFFLT2_700_rhum_105.txt.gz
RH
27 27 26 25 25 24 24 23 23 23 23 23 23 23 23 23 23 23 23 23 23 22 22 22 22 22 22 22 21 21 21 21 21 21 21 21 20 20 19 19 18 18 17 17 17 16 16 16 16 15 15 15
25 25 25 24 24 24 24 24 24 24 24 24 24 25 25 25 25 25 24 24 24 24 24 24 24 25 24 24 24 24 23 23 23 23 23 23 23 22 22 21 21 20 20 19 19 18 18 17 17 17 16 16
25 24 24 24 24 24 25 24 24 24 23 24 24 24 24 23 23 23 23 24 24 24 24 24 25 25 25 26 26 26 26 25 25 25 25 25 25 25 25 24 23 23 22 22 21 21 21 20 19 19 18 18
24 25 25 24 24 24 23 22 22 21 21 22 22 21 21 20 20 20 20 20 20 21 21 22 22 23 24 25 25 26 27 27 27 27 27 27 27 27 27 27 27 26 25 25 24 24 23 23 22 22 21 20
25 24 23 22 22 21 21 20 20 19 19 18 17 15 14 13 12 12 12 12 12 12 13 13 14 15 16 17 19 20 21 23 24 25 26 27 27 28 29 29 29 29 28 28 27 27 27 26 25 25 24 23
23 22 22 22 21 20 19 17 15 12 11 9 7 6 5 5 4 4 4 4 4 4 5 5 5 5 6 7 8 9 10 11 13 15 16 18 20 22 24 26 28 29 30 30 29 29 29 29 28 28 27 27
22 21 20 18 16 13 10 8 6 4 3 3 2 2 2 2 2 2 2 2 2 2 2 2 2 2 2 3 3 3 3 3 4 5 6 7 8 10 12 14 17 20 23 25 27 28 29 30 31 31 30 30
18 15 12 8 6 4 3 2 2 2 2 2 2 2 2 2 2 2 2 2 2 2 2 2 2 2 2 2 2 2 2 2 2 2 2 2 3 3 3 4 5 7 9 11 14 17 20 22 25 28 29 31
9 6 4 2 2 2 2 2 2 2 3 3 3 3 3 3 3 2 2 2 2 2 2 2 2 2 2 2 2 2 2 2 2 2 2 2 2 2 2 2 2 2 2 3 4 5 6 8 11 14 18 22
3 2 2 2 2 2 2 2 3 2 3 3 3 2 2 2 2 2 2 2 2 2 2 2 2 2 2 2 2 2 2 2 2 2 2 2 2 2 2 2 2 2 2 2 2 2 2 3 3 4 5 7
2 2 2 2 2 3 3 2 3 2 2 2 2 2 2 2 2 2 3 3 3 3 3 3 3 3 3 3 3 3 3 3 3 3 2 3 2 2 2 2 2 2 2 2 2 2 2 2 2 2 2 2
2 2 3 3 3 3 3 3 3 3 3 2 3 3 3 3 3 3 3 3 3 3 3 3 3 3 3 3 3 3 3 3 3 3 3 3 3 3 3 3 3 3 3 3 3 2 2 2 2 2 2 2
3 3 3 3 3 3 3 3 3 3 3 3 3 3 3 3 3 4 4 4 4 4 4 4 4 4 4 4 4 4 4 4 4 4 4 4 4 4 4 4 3 3 3 3 3 3 3 3 3 2 2 2
3 3 3 3 3 3 3 3 3 4 4 4 4 4 4 4 5 5 5 5 5 5 5 5 5 5 5 5 5 5 5 5 5 5 5 5 5 5 4 4 4 4 4 4 3 3 3 3 3 3 3 3
3 3 4 4 4 4 4 4 4 4 5 5 5 5 5 6 6 6 6 6 6 6 6 7 7 7 7 7 7 7 7 7 7 7 6 6 6 6 6 6 5 5 5 4 4 4 4 4 3 3 3 3
4 4 4 4 4 4 4 5 5 5 5 6 6 6 6 7 7 7 7 7 7 8 7 8 8 8 8 8 9 9 9 9 9 9 8 8 8 8 8 8 7 7 7 6 6 5 5 4 4 4 3 3
4 5 5 5 5 5 5 5 6 6 6 6 7 7 7 7 8 8 8 8 8 8 8 9 9 9 9 9 10 10 10 10 10 10 10 10 10 11 10 10 10 9 9 9 8 7 7 6 6 5 5 4
5 5 5 5 6 6 6 6 7 7 7 8 8 8 8 8 9 9 9 9 9 9 9 9 9 9 9 10 10 10 10 11 11 11 11 12 11 12 12 12 12 12 12 11 11 10 10 9 8 7 6 6
5 6 6 6 6 7 7 7 8 8 8 9 9 9 9 10 10 10 10 10 10 10 10 10 10 10 10 10 10 10 11 11 11 11 11 12 12 12 13 13 13 13 13 13 13 13 12 12 11 10 9 8
6 6 7 7 8 8 9 9 9 10 10 10 11 11 11 12 12 12 12 12 12 12 12 12 12 12 12 11 12 12 12 12 12 12 12 12 12 12 13 13 13 14 14 14 14 14 14 14 13 13 12 11
7 8 8 9 9 10 10 11 11 12 12 12 13 13 14 14 14 15 15 15 15 16 16 16 16 16 16 15 15 15 15 15 14 14 14 13 13 13 13 14 14 14 15 15 15 16 15 15 15 14 14 13
9 9 10 10 11 11 12 12 13 13 13 14 14 15 15 16 17 17 17 18 18 18 18 18 18 19 19 19 19 19 19 19 19 18 17 16 15 15 15 15 15 15 16 16 16 16 16 17 16 15 15 14
10 10 11 11 12 12 12 13 13 14 14 14 15 15 15 16 17 18 18 18 18 17 18 18 19 19 20 21 21 22 22 22 22 22 21 20 19 18 17 17 16 16 16 17 17 17 18 18 17 17 16 15
10 11 11 11 12 12 13 13 12 13 13 13 13 13 14 15 15 15 15 15 15 15 15 16 17 18 19 20 21 22 23 24 24 24 24 23 22 21 20 19 18 18 18 18 18 18 18 18 18 18 17 16
10 10 11 11 11 12 12 11 11 11 12 11 11 11 12 12 12 12 12 12 13 13 14 15 16 17 18 20 21 23 24 26 26 27 27 26 26 24 23 21 20 19 19 19 19 19 19 19 19 18 18 17
9 9 10 10 10 10 10 9 9 10 10 9 9 10 11 11 11 11 11 11 12 13 14 15 16 17 19 20 22 24 25 27 28 29 30 29 29 27 25 24 22 21 21 21 20 20 20 20 19 19 18 17
8 8 9 9 9 8 9 8 8 9 9 8 9 11 11 11 11 11 11 12 13 14 14 16 17 18 19 21 23 25 26 28 30 31 32 32 31 30 28 26 24 23 22 22 22 21 21 21 20 19 17 16
7 8 9 8 8 8 8 8 8 9 8 9 11 13 12 12 12 11 11 13 14 14 15 17 18 19 21 23 26 28 30 31 32 34 34 34 34 33 31 28 26 24 23 23 23 23 22 21 20 19 17 16
8 8 8 8 7 8 8 7 8 8 9 10 13 13 13 13 12 12 12 14 15 16 17 18 19 21 22 25 28 30 33 35 36 37 38 38 37 36 33 31 28 27 25 24 24 24 23 22 21 19 18 16
8 8 8 8 8 8 8 8 8 9 10 12 13 14 14 14 14 14 14 15 17 18 19 20 21 22 24 27 30 32 34 37 39 40 41 41 41 39 36 33 31 28 27 25 25 24 24 23 22 20 18 16
7 8 8 8 9 10 10 10 10 10 12 14 15 15 15 15 15 16 16 17 19 19 21 22 22 23 24 27 30 33 36 39 41 42 43 44 44 43 40 36 33 30 29 28 27 25 24 23 22 20 18 16

ECMWFFLT2_700_rhum_108.txt.gz
RH
21 21 21 21 21 22 21 21 21 21 22 22 22 21 21 20 20 20 19 19 18 18 18 18 18 17 18 18 18 18 19 19 19 19 19 20 19 20 20 19 19 19 20 19 19 18 17 17 16 16 16 16
23 23 23 23 22 22 22 22 22 22 22 21 20 19 19 18 18 18 17 17 16 16 15 15 14 14 14 14 15 15 16 16 17 17 17 18 18 19 19 19 19 19 20 20 21 21 21 20 19 18 17 17
25 25 24 23 22 23 23 23 22 21 20 19 18 17 17 16 15 14 13 12 10 10 9 8 8 7 7 7 8 8 8 9 10 11 12 13 13 14 15 16 17 18 18 19 20 21 22 22 22 22 20 20
25 25 24 23 23 23 22 21 20 19 18 17 16 13 11 10 8 6 5 4 3 3 3 2 2 2 2 2 2 2 3 3 3 4 4 5 6 6 7 9 10 12 13 14 16 18 19 21 22 23 23 22
24 24 24 24 23 22 20 19 18 17 15 12 9 6 4 3 2 2 2 2 1 2 2 2 2 1 2 2 1 2 1 1 2 1 2 2 2 2 2 3 3 4 5 6 8 10 12 14 16 19 21 22
25 24 24 22 21 20 18 15 12 9 7 4 3 2 2 2 2 2 2 2 2 2 2 2 2 2 2 2 2 2 2 1 2 1 1 2 1 2 2 1 2 2 2 2 2 3 4 5 7 9 12 15
25 23 22 20 18 15 11 7 5 3 2 2 2 2 2 2 2 2 2 2 2 2 2 2 2 2 2 2 2 2 2 2 2 2 2 2 2 1 2 2 1 2 1 1 2 1 2 2 2 3 3 5
23 22 19 15 11 6 3 2 2 2 2 2 2 2 2 2 2 2 2 2 2 2 2 2 2 2 2 2 2 2 2 2 2 2 2 2 2 2 2 2 2 2 2 2 2 1 2 1 1 1 1 1
20 16 12 7 4 2 2 2 2 2 2 2 2 2 2 2 2 2 2 2 2 2 2 2 2 2 2 2 2 3 2 2 2 2 3 2 2 2 2 2 2 2 2 2 2 2 2 2 2 1 2 1
13 8 4 2 2 2 2 2 2 2 2 2 2 2 2 2 2 2 2 2 2 2 3 2 3 3 3 3 3 3 3 3 3 3 3 3 3 3 3 3 3 3 3 3 2 2 2 2 2 2 2 2
5 2 2 2 2 2 2 2 2 2 2 2 2 2 2 2 2 3 2 3 3 3 3 3 3 3 3 3 3 3 4 4 3 4 4 4 4 3 4 3 3 3 3 3 3 3 3 3 3 2 2 2
2 2 2 2 2 2 2 2 2 2 2 2 2 2 2 3 2 3 3 3 3 3 4 4 4 4 4 4 4 4 4 5 4 4 4 4 5 4 5 4 4 4 4 4 4 4 3 3 3 3 3 3
2 2 2 2 2 2 2 2 3 2 3 2 3 3 3 3 3 4 4 4 4 4 4 4 5 5 5 5 5 5 5 6 5 6 6 6 6 6 6 5 5 5 5 5 5 5 4 4 4 4 4 3
2 2 2 2 2 3 2 3 3 3 3 3 3 3 4 4 4 4 4 5 5 5 5 5 6 6 6 7 6 7 7 7 7 7 8 7 8 7 7 7 7 7 7 7 6 6 5 5 5 5 5 4
2 2 2 3 3 3 3 3 3 3 3 4 4 4 5 5 5 5 5 6 6 6 7 7 8 8 8 8 9 9 9 9 9 9 9 9 9 9 9 9 9 9 9 9 8 8 8 7 7 6 6 5
2 3 3 3 3 3 3 4 4 4 4 4 5 5 5 6 6 6 7 7 8 8 9 9 9 10 10 10 11 11 11 11 11 11 11 11 11 10 11 10 10 10 10 10 10 10 10 9 9 9 8 8
3 3 3 3 3 4 4 4 4 5 5 5 6 6 6 7 7 8 9 9 10 10 10 11 11 11 12 12 12 13 13 13 12 13 12 12 12 12 12 12 12 12 12 12 11 11 11 11 11 11 10 10
3 3 3 4 4 4 5 5 5 5 6 7 7 8 8 9 9 10 11 11 11 12 12 12 13 13 13 14 14 15 15 15 15 14 14 15 14 14 14 14 14 14 13 13 13 13 12 12 12 12 12 12
3 4 4 4 4 5 6 6 6 7 7 8 9 9 10 10 11 11 12 12 12 12 13 13 13 14 14 15 15 16 16 15 16 16 16 16 16 16 16 16 16 16 16 15 15 15 14 14 13 13 13 13
4 4 5 5 6 6 7 7 8 9 9 10 10 11 11 12 12 13 12 12 13 13 12 12 12 13 13 14 14 14 15 14 15 15 15 16 16 17 17 18 18 18 18 18 17 17 16 16 15 15 14 14
5 6 6 7 7 8 8 9 9 10 10 10 11 11 12 12 12 12 12 12 12 11 11 11 11 11 11 11 12 12 12 13 13 13 14 14 15 16 16 17 18 19 19 19 19 19 19 18 18 17 16 16
6 7 8 8 8 9 9 10 10 10 10 10 10 10 10 11 11 10 11 10 11 10 9 9 10 10 10 10 11 11 12 12 13 13 14 14 14 15 15 16 16 18 19 20 20 21 21 20 20 19 18 18
8 8 8 9 9 9 10 10 10 9 9 9 9 9 9 9 9 9 9 9 9 9 8 9 9 10 10 11 11 12 12 13 14 14 15 15 16 16 16 16 16 18 19 20 21 21 22 22 22 21 20 20
8 8 9 9 9 9 9 10 9 8 7 7 7 8 7 8 8 9 9 9 8 8 8 9 9 10 11 11 12 12 13 13 14 15 15 16 17 17 18 18 18 19 20 20 21 22 23 23 24 23 22 22
8 9 8 8 8 8 8 9 8 7 6 6 7 6 6 7 9 9 9 9 9 8 8 9 10 11 12 12 12 13 13 13 13 14 15 16 17 18 19 21 21 21 22 22 23 23 24 25 26 25 25 24
9 8 8 7 7 7 7 7 6 6 6 5 5 5 5 8 9 9 9 9 9 9 9 10 12 13 13 13 12 13 13 14 14 15 15 16 18 19 20 22 22 24 25 26 25 26 26 27 29 28 27 26
9 7 7 6 7 7 6 6 5 6 5 5 5 5 6 8 9 8 8 9 9 10 10 11 12 13 13 13 13 13 13 14 15 16 17 18 19 21 22 23 24 25 27 29 29 29 29 29 30 31 30 28
9 7 6 6 6 6 5 5 5 5 5 5 6 7 7 9 9 8 8 8 9 10 11 11 12 13 14 14 13 13 13 14 16 17 18 19 20 22 24 25 25 26 28 30 32 32 32 33 33 32 32 30
9 8 6 5 5 5 5 5 5 5 5 6 7 7 8 9 10 9 8 9 9 10 12 12 13 14 14 14 14 13 13 13 15 18 19 19 20 21 24 26 27 28 29 31 34 36 37 38 37 36 34 33
10 8 7 5 4 4 5 5 5 5 5 6 7 8 9 10 10 10 10 10 10 11 13 14 14 15 15 15 15 15 14 14 15 16 18 19 20 22 24 27 29 31 31 32 35 38 41 43 42 40 38 36
10 9 7 6 5 5 5 6 6 6 7 7 7 8 9 10 11 12 13 13 13 13 14 15 16 16 16 16 17 17 16 15 15 15 16 18 19 21 24 28 32 34 35 36 37 39 41 46 47 45 43 39

ECMWFFLT2_700_rhum_111.txt.gz
RH
18 18 18 19 20 21 21 21 20 20 21 21 21 21 20 20 19 18 17 16 15 15 14 13 12 12 11 11 10 10 10 10 9 10 10 10 10 11 11 12 13 14 14 15 16 16 16 17 17 17 17 17
18 18 19 20 21 22 21 21 21 22 22 22 21 20 19 18 17 16 14 13 11 10 9 8 7 6 6 5 5 4 4 4 4 4 4 5 5 5 6 7 8 8 10 11 12 13 14 15 15 17 17 18
20 21 21 21 21 22 22 22 23 22 22 20 19 18 17 16 14 11 8 7 5 4 4 3 2 2 2 2 1 2 1 1 1 1 1 2 1 2 2 2 2 3 4 4 5 6 7 9 10 12 13 15
23 23 22 22 22 23 23 23 23 21 20 18 17 15 12 10 7 5 3 2 2 2 1 1 1 1 1 1 1 1 1 1 1 1 1 1 1 1 1 1 1 1 1 1 1 2 2 3 3 4 6 8
23 23 22 23 24 24 23 22 21 19 17 14 11 8 6 4 2 2 1 1 1 1 1 1 1 1 1 1 1 1 1 2 1 1 1 1 1 1 1 1 1 1 1 1 1 1 1 1 1 1 1 2
22 23 24 24 24 24 23 21 19 15 11 7 5 3 2 2 1 1 1 1 1 1 1 1 1 2 2 2 2 2 2 2 2 2 2 2 2 2 2 2 2 2 2 2 2 1 1 1 1 1 1 1
23 24 24 24 24 23 21 18 13 8 4 2 2 1 1 1 1 1 1 1 1 1 2 2 2 2 2 2 2 2 2 2 2 2 2 2 2 2 2 2 2 2 2 2 2 2 2 2 2 2 2 2
25 25 25 25 23 21 16 11 6 3 2 2 2 1 1 1 1 1 1 2 2 2 2 2 2 2 2 2 2 2 2 2 3 3 3 3 3 3 3 3 3 3 3 3 3 3 2 2 2 2 2 2
26 26 25 24 20 15 9 4 2 1 2 2 2 2 1 1 1 2 2 2 2 2 2 2 2 2 3 2 3 3 3 3 3 3 3 3 3 3 3 3 3 3 3 3 3 3 3 3 3 3 3 3
26 26 24 21 15 7 3 1 2 2 2 2 2 2 1 2 2 2 2 2 2 2 2 3 3 3 3 3 3 3 3 3 3 4 3 4 4 4 4 4 4 4 4 4 4 4 4 3 3 3 3 3
25 23 20 14 7 2 1 2 2 2 2 2 2 2 2 2 2 2 2 2 2 2 3 3 3 3 3 3 3 4 4 4 4 4 4 4 5 4 5 5 5 5 5 5 5 5 5 4 4 4 4 4
22 18 12 6 2 1 2 2 2 2 2 2 2 2 2 2 2 2 2 3 3 3 3 3 4 4 4 4 4 4 4 5 5 5 6 6 6 6 6 6 6 6 6 6 6 6 6 6 6 5 5 5
16 10 5 2 1 2 2 2 2 2 2 2 2 2 2 2 2 3 3 3 3 3 4 4 4 4 5 5 5 6 6 7 7 7 8 8 8 8 8 9 9 9 9 9 8 8 8 8 8 7 7 7
9 4 2 2 2 2 2 2 2 2 2 2 2 2 2 3 3 3 3 4 4 4 5 5 5 6 6 7 7 8 8 9 9 9 10 10 10 10 10 10 10 10 10 10 10 10 10 10 10 9 9 9
4 2 2 2 2 2 2 2 2 2 2 3 3 3 3 3 4 4 4 5 5 6 6 7 7 8 8 9 9 10 10 10 10 11 11 11 11 11 12 11 12 12 12 12 12 12 12 11 11 11 11 11
2 2 2 2 2 2 2 2 2 2 3 3 3 3 4 4 5 5 6 6 7 7 8 9 9 10 10 10 11 11 11 11 11 11 11 11 11 11 12 12 12 12 13 13 13 13 13 13 13 13 12 12
2 2 2 2 2 2 2 2 3 3 3 4 4 5 5 6 6 7 7 8 8 9 9 10 10 10 10 10 10 10 10 10 10 10 10 10 10 11 11 11 12 12 12 13 13 13 14 14 14 14 14 14
2 2 2 2 3 3 3 3 3 3 4 5 5 6 6 7 8 8 9 9 9 10 10 10 10 10 10 10 9 9 8 9 9 9 10 10 10 10 11 11 11 12 12 12 13 13 13 14 14 14 15 15
2 2 2 2 3 3 3 4 4 4 5 6 7 7 8 8 9 9 10 10 9 10 10 9 9 9 9 8 8 7 8 8 9 9 9 9 10 10 11 11 12 12 13 13 13 13 13 13 14 14 15 15
2 2 3 3 3 3 4 5 5 6 7 7 8 8 9 9 9 9 10 9 9 9 9 9 8 8 7 7 7 7 7 7 8 8 8 9 9 10 11 11 12 13 13 14 14 14 15 14 14 15 15 16
3 3 3 3 4 4 5 6 6 7 8 8 8 9 9 9 9 8 9 9 8 8 8 8 7 6 6 6 6 6 6 7 7 7 8 8 8 9 10 10 11 12 12 14 15 16 16 17 17 16 16 16
3 3 4 4 4 5 6 7 7 8 8 8 8 8 9 8 8 7 7 8 7 7 6 6 6 5 5 5 5 6 6 6 6 6 7 7 8 8 8 9 9 10 10 11 12 14 15 17 18 18 18 18
3 4 4 4 5 5 7 8 8 8 8 7 7 7 8 8 7 6 6 7 6 6 5 5 5 5 5 5 5 5 6 6 6 6 6 6 7 7 7 8 8 8 9 9 10 11 12 14 16 18 19 20
4 4 5 5 5 6 7 8 8 8 7 6 6 6 7 6 6 6 6 6 6 6 5 5 5 4 4 5 5 6 6 6 6 6 6 6 7 7 7 7 8 8 8 9 9 10 11 12 13 15 17 19
4 5 6 6 6 7 8 9 8 7 6 6 5 5 5 5 5 6 6 6 6 5 5 5 5 5 5 5 6 6 6 7 7 7 7 8 8 7 7 8 8 8 8 9 9 10 11 12 13 13 14 17
4 5 6 6 7 7 8 9 8 7 6 5 5 4 4 4 5 6 6 7 6 6 6 5 6 6 6 7 7 7 8 8 9 9 9 9 9 9 8 8 8 8 9 9 9 10 12 13 15 15 15 17
3 4 6 7 8 8 8 9 8 7 5 4 3 3 4 4 5 6 7 7 7 7 7 7 7 8 8 8 9 9 9 10 10 10 11 10 11 11 10 10 9 10 10 10 10 11 13 15 16 17 17 18
4 4 6 7 8 8 9 9 8 8 5 4 3 3 4 5 5 6 7 8 8 8 8 8 9 10 10 10 11 12 11 12 12 12 12 12 12 12 12 11 11 11 11 11 12 13 14 15 16 18 18 19
4 5 6 7 8 8 8 9 9 8 7 6 5 4 5 5 6 7 7 8 9 10 10 10 11 11 12 12 13 14 14 14 14 14 14 14 14 13 13 13 12 12 12 12 13 14 16 17 18 19 19 20
6 6 6 7 8 8 9 9 9 8 8 8 7 7 6 6 7 7 8 9 10 11 11 11 12 13 13 14 15 16 17 17 17 17 17 16 16 15 14 14 13 12 11 11 12 14 17 19 21 22 22 23
7 6 7 7 8 9 9 9 8 9 10 10 10 9 8 7 8 8 9 9 10 11 12 13 13 14 15 16 17 18 18 19 20 20 21 20 19 19 18 16 16 14 11 11 11 13 16 19 22 24 26 27

ECMWFFLT2_700_rhum_117.txt.gz
RH
18 17 17 18 18 18 19 19 20 20 20 19 18 17 17 17 17 18 18 19 19 19 18 17 16 15 14 12 11 10 10 9 8 8 7 7 7 7 7 6 7 7 7 8 8 9 9 10 10 11 12 12
19 18 18 19 19 19 20 21 21 22 22 22 21 20 19 19 19 19 19 19 19 17 16 15 13 12 10 9 8 7 6 5 4 4 3 3 3 2 3 2 3 3 3 3 3 4 4 5 5 6 7 7
19 19 19 20 21 21 22 23 24 25 24 22 21 21 21 21 20 20 19 18 17 15 13 12 10 8 6 5 4 3 2 2 2 2 1 1 1 1 1 1 1 1 1 1 1 1 1 1 2 2 2 2
20 20 20 21 22 22 24 25 27 27 24 22 21 21 22 22 21 20 18 16 14 11 9 7 5 4 3 2 1 1 1 1 1 1 1 1 1 1 1 1 1 1 1 1 1 1 1 1 1 1 1 1
20 21 21 22 22 23 24 26 28 27 25 23 22 22 22 21 20 18 15 12 10 7 5 3 2 1 1 1 1 1 1 1 1 1 1 1 1 1 1 2 2 2 2 2 2 2 2 2 2 2 2 2
20 20 21 22 24 24 25 26 27 25 25 24 23 23 22 20 18 15 11 7 5 3 2 1 1 1 1 1 1 1 1 1 2 2 2 2 2 2 2 2 2 3 2 3 3 3 3 2 3 2 2 2
19 20 21 23 24 25 26 26 26 25 25 24 23 22 20 18 14 10 6 3 2 1 1 1 1 1 1 1 2 2 2 2 2 2 2 2 3 3 3 3 3 3 3 3 3 3 3 3 3 3 3 3
20 21 22 24 25 25 26 27 27 26 25 24 22 21 18 14 9 5 2 1 1 1 1 1 1 1 2 2 2 2 2 2 3 3 3 3 3 3 3 3 3 4 4 4 4 4 4 4 4 4 4 4
22 23 24 25 26 25 26 27 27 26 25 24 21 18 13 8 4 2 1 1 1 1 1 1 2 2 2 2 2 2 3 3 3 3 3 3 3 4 4 4 4 4 5 5 5 5 5 5 5 5 5 5
23 23 25 26 26 25 25 26 27 26 24 22 19 13 8 3 2 1 1 1 1 1 2 2 2 2 2 2 2 3 3 3 3 3 3 4 4 4 5 5 6 6 6 6 6 6 7 6 6 7 6 6
23 23 24 25 25 25 25 26 26 25 22 19 14 8 3 2 1 2 1 1 2 2 2 2 2 2 2 2 3 3 3 3 3 4 4 5 5 6 6 6 7 7 7 7 7 7 7 7 7 7 8 8
25 25 25 25 25 26 26 26 25 22 19 15 9 3 1 2 2 1 2 2 2 2 2 2 2 2 3 3 3 3 3 4 5 5 6 6 7 7 7 7 7 7 7 7 7 7 7 7 8 8 8 8
26 26 26 26 26 27 26 25 23 19 15 10 4 2 1 2 2 2 2 2 2 2 2 2 2 2 3 3 3 4 5 6 6 7 7 7 7 8 8 8 8 7 7 7 7 7 8 8 8 8 8 8
27 26 27 27 28 28 26 23 20 16 11 5 2 1 2 2 2 2 2 2 2 2 2 2 3 3 3 4 4 5 6 7 7 7 8 8 8 8 8 8 7 7 7 7 8 8 8 8 8 9 9 9
27 27 28 28 28 27 24 21 16 11 6 2 2 2 2 2 2 2 2 2 2 2 3 3 3 3 4 5 6 7 7 8 8 8 8 7 7 7 7 7 7 7 7 8 8 8 8 9 9 9 10 10
28 28 29 29 28 26 22 18 13 7 2 1 2 2 2 2 2 2 2 2 2 3 3 3 4 4 5 6 7 7 8 8 8 7 7 7 7 7 7 7 7 7 7 8 8 8 8 8 8 9 9 9
28 28 29 28 27 24 19 14 8 3 2 2 2 2 2 2 2 2 2 3 2 3 3 4 5 6 7 7 8 8 8 7 7 7 7 7 6 6 6 6 6 7 7 7 7 7 7 7 7 6 7 7
28 29 29 27 24 20 15 10 5 2 1 2 2 2 2 2 3 3 3 3 3 4 4 5 6 7 7 8 8 8 7 7 6 6 6 6 6 6 6 6 5 6 6 6 5 5 5 5 5 5 5 5
29 30 28 25 21 17 12 6 2 1 2 2 2 2 2 3 3 3 3 3 4 5 5 6 7 7 8 8 8 7 6 6 5 5 5 5 5 5 5 5 5 5 4 5 4 4 4 4 4 4 5 4
28 28 26 22 18 15 10 4 1 2 2 2 2 2 3 3 3 3 4 5 5 6 7 7 8 8 8 8 7 7 6 5 5 5 5 5 4 4 4 4 4 4 4 4 4 4 4 4 4 4 4 4
26 26 24 20 17 14 8 3 2 2 2 2 2 3 3 3 4 4 5 6 6 7 7 8 8 8 8 8 7 6 5 5 5 5 5 5 4 4 4 3 3 3 3 3 3 4 4 4 4 4 4 4
25 25 22 17 14 12 7 3 2 2 2 2 3 3 4 4 4 5 6 7 7 7 8 8 8 8 8 7 6 6 5 5 4 5 5 4 4 4 4 4 4 4 4 4 4 4 4 4 4 4 4 4
23 21 17 13 11 9 5 3 2 2 2 3 3 3 4 4 5 6 6 7 7 7 8 8 8 8 8 7 6 5 5 5 5 5 5 4 4 4 4 4 5 5 5 5 5 5 5 5 5 5 5 5
14 13 10 7 6 4 3 2 2 2 2 3 4 4 5 5 5 6 7 7 8 8 8 8 8 8 7 7 6 6 5 6 5 5 4 4 4 5 5 6 6 6 7 7 7 7 8 8 8 8 8 7
6 6 6 5 4 4 4 3 3 2 2 3 4 4 5 5 5 6 7 7 8 8 8 8 8 7 7 7 7 7 6 6 5 5 5 5 5 6 6 7 7 8 8 9 10 10 11 11 11 12 11 10
4 4 4 5 5 5 5 4 3 2 3 3 4 4 4 5 5 6 6 7 7 8 9 8 8 7 8 8 8 7 6 6 6 5 6 6 6 7 7 8 8 9 10 10 11 12 13 14 14 14 14 14
2 2 4 6 6 6 5 3 3 2 3 3 3 4 4 5 5 6 6 7 7 8 9 9 8 8 8 8 8 7 7 6 6 6 7 8 8 9 9 9 10 10 11 12 12 13 14 15 16 16 17 17
2 3 5 6 6 6 4 3 3 2 2 3 3 3 4 5 5 6 7 7 8 9 10 10 10 9 9 8 8 8 8 7 7 8 8 9 10 10 11 12 13 13 14 14 14 15 15 16 17 17 18 19
3 4 4 5 5 5 4 3 3 2 3 3 3 3 4 4 5 6 7 7 8 9 10 11 11 11 10 10 9 8 9 9 9 10 10 10 11 12 14 15 16 16 17 17 17 18 18 19 19 20 20 20
3 4 4 4 4 4 4 3 3 3 3 3 3 4 4 4 5 5 6 7 8 8 9 10 10 11 11 11 11 11 11 11 11 11 11 12 12 13 15 16 17 17 18 20 20 21 21 22 23 23 22 22
4 4 4 4 4 4 4 4 4 4 4 4 4 4 4 4 4 4 5 5 6 7 8 9 9 10 11 11 12 12 12 12 12 13 13 14 14 15 16 17 17 19 21 22 22 24 25 26 28 27 26 25

ECMWFFLT2_700_rhum_120.txt.gz
RH
28 26 21 19 18 18 18 18 18 18 18 17 17 17 16 16 16 16 17 17 17 18 18 18 18 18 18 17 16 15 14 12 11 10 10 9 8 8 7 7 7 7 7 7 7 8 8 9 9 10 10 10
27 27 22 21 21 19 19 19 19 19 19 18 18 17 17 17 18 18 18 19 19 20 19 19 18 17 16 15 13 12 10 9 8 7 6 5 5 4 4 3 3 3 3 3 3 3 3 4 4 4 5 6
25 25 23 23 24 22 22 21 21 21 21 22 21 20 19 19 19 19 19 20 21 20 19 18 17 15 13 12 10 8 7 5 4 3 3 2 2 1 2 1 1 1 1 1 1 1 1 1 1 1 2 2
24 24 23 24 24 24 24 24 23 24 24 25 25 23 21 21 20 20 20 21 21 19 18 16 14 12 10 8 6 4 3 2 2 1 2 1 1 1 1 1 1 2 1 1 1 1 1 1 1 1 1 1
24 24 24 24 24 24 25 25 25 25 25 27 27 25 22 21 21 21 21 21 20 18 16 13 10 8 6 4 3 2 1 1 1 1 1 1 1 1 1 2 2 2 2 2 2 2 2 2 2 2 2 2
23 24 25 25 25 25 25 25 26 26 27 29 29 27 24 23 22 22 22 21 19 16 13 9 6 4 3 2 1 1 1 1 1 1 2 2 2 2 2 2 2 3 3 3 3 3 3 3 3 3 3 3
23 23 24 25 25 25 25 26 28 28 30 31 30 28 26 25 25 23 22 20 17 14 9 5 3 2 1 1 1 1 1 1 2 2 2 2 2 3 3 3 3 3 3 4 4 3 4 4 4 4 4 4
24 23 24 24 24 24 25 27 29 30 31 31 30 29 28 27 26 24 21 18 14 9 5 3 2 1 1 1 1 2 2 2 2 2 3 3 3 3 3 3 3 4 4 4 4 4 5 5 5 5 5 5
24 24 23 23 24 24 25 27 29 31 31 31 30 29 29 27 25 23 19 14 8 5 2 2 1 1 2 1 2 2 2 2 2 3 3 3 3 3 3 4 4 4 5 5 5 6 6 6 6 6 7 6
24 24 24 24 24 25 25 27 29 31 32 31 30 29 28 27 24 21 15 9 4 2 2 1 2 1 2 2 2 2 2 3 3 3 3 3 3 4 4 4 5 5 6 6 6 7 7 7 7 7 7 7
25 25 25 25 25 26 27 28 30 32 31 31 30 29 28 26 23 17 10 5 2 2 2 2 2 2 2 2 2 2 3 3 3 3 3 3 4 4 5 5 6 6 7 7 7 7 7 7 7 8 7 7
27 27 26 26 26 27 29 30 31 32 31 30 29 28 27 24 20 13 6 3 2 2 2 2 2 2 2 2 2 2 3 3 3 3 3 4 5 5 6 6 7 6 7 7 7 7 7 7 7 7 8 8
27 27 27 27 27 28 29 30 31 31 30 30 29 28 25 21 16 8 3 2 2 2 2 2 2 2 2 2 3 3 3 3 3 3 4 5 6 7 7 7 6 6 6 6 6 6 6 7 7 7 8 8
28 29 30 29 28 28 29 29 29 30 30 30 28 26 23 18 11 5 2 2 2 2 2 2 2 2 2 3 3 3 3 3 4 5 6 6 7 7 7 7 6 6 6 6 6 6 7 7 7 8 8 9
30 31 32 31 30 29 29 29 29 29 30 29 28 25 21 14 7 3 2 2 2 2 2 2 2 2 2 3 3 3 3 4 5 6 6 7 7 7 7 6 6 6 6 5 6 6 6 7 7 8 8 8
31 33 34 33 31 30 30 30 30 30 30 29 27 23 18 11 4 2 2 2 2 2 3 3 2 3 3 3 3 3 4 5 6 7 7 8 7 7 7 6 6 6 6 5 6 6 6 6 6 6 6 6
32 34 34 33 32 32 31 31 31 31 30 29 26 21 15 8 3 2 2 2 3 3 3 3 3 3 3 3 4 4 5 6 7 8 8 8 7 7 6 6 6 5 5 5 5 5 5 5 5 5 5 5
32 33 34 34 34 34 33 32 32 31 30 29 24 19 12 5 2 2 3 3 3 3 3 3 3 3 3 4 4 5 6 7 8 8 8 8 7 6 6 6 6 5 5 5 5 5 5 4 4 4 4 4
32 33 35 36 36 36 34 33 33 32 30 27 23 16 9 3 2 2 3 3 3 3 3 3 4 4 4 4 5 6 7 8 8 8 8 7 6 6 6 6 5 5 4 4 4 4 4 4 4 4 4 4
34 36 37 37 37 37 35 34 33 32 30 26 21 13 6 2 2 2 3 3 3 3 3 4 4 5 5 5 6 7 8 8 8 8 7 7 6 6 5 5 5 4 4 4 4 4 4 4 4 4 4 4
34 35 36 37 38 37 35 33 32 32 29 25 19 11 4 2 2 3 3 3 4 4 4 4 5 5 5 6 7 8 8 9 8 8 7 7 6 6 5 4 4 4 4 4 4 4 4 4 4 4 5 5
32 32 33 34 35 34 33 32 32 31 27 22 17 9 3 2 2 2 3 4 4 4 4 5 5 6 6 7 8 8 9 9 8 7 7 7 6 5 5 4 4 4 4 4 4 4 5 5 6 6 7 7
20 22 23 23 25 26 26 27 27 25 22 19 16 8 3 2 2 3 4 4 4 4 5 5 6 7 7 8 8 8 9 9 8 8 8 7 6 5 5 4 4 4 4 5 5 5 6 6 7 7 8 9
7 9 9 10 13 14 16 19 21 21 19 18 14 7 3 2 2 3 4 4 4 5 5 6 7 7 8 8 9 9 9 9 9 9 8 7 6 5 5 5 5 5 5 5 5 6 7 7 8 9 9 10
2 2 3 4 5 7 11 16 19 19 18 16 14 8 3 2 3 3 3 4 4 5 5 6 7 7 8 8 9 9 9 10 9 9 8 7 6 5 5 6 6 6 5 6 7 7 7 8 9 9 10 11
2 2 2 2 4 9 15 19 19 19 18 17 15 10 4 2 3 3 3 4 4 5 5 6 7 7 8 9 9 10 10 10 9 9 8 7 6 6 6 6 6 6 7 7 8 8 8 9 10 10 11 12
2 2 2 3 5 11 18 19 19 19 18 17 14 10 5 3 3 3 3 4 4 5 5 6 6 7 8 9 10 10 10 10 10 10 9 8 7 6 6 7 7 7 8 9 9 10 10 10 11 12 12 13
3 2 2 3 5 9 13 14 15 15 13 11 10 8 6 3 2 3 3 4 4 5 5 6 6 7 8 9 10 11 11 11 11 10 10 9 8 7 7 7 9 9 9 10 11 11 11 12 12 13 14 15
3 3 3 3 3 5 6 7 7 7 6 6 6 6 7 6 5 4 4 4 5 5 5 6 6 7 8 9 10 11 11 11 11 11 10 10 8 8 9 9 10 10 11 11 12 12 12 13 13 14 16 17
3 3 3 3 3 3 3 4 4 5 6 8 9 11 13 15 13 9 6 5 5 5 5 6 6 7 7 8 9 10 11 12 12 12 11 11 11 10 10 10 10 10 12 13 13 13 13 14 14 16 17 18
4 4 4 3 3 3 3 3 4 6 9 11 13 16 17 18 17 14 10 7 5 4 5 6 6 7 7 8 8 9 10 11 11 12 12 12 12 12 12 11 11 11 13 14 14 15 15 15 16 17 18 19

ECMWFFLT2_700_rhum_123.txt.gz
RH
42 41 40 40 38 36 36 33 27 22 20 19 19 20 22 24 23 21 19 18 17 16 15 15 15 16 16 17 17 17 17 17 16 15 14 13 12 12 10 10 10 9 9 9 9 9 9 9 9 10 9 10
41 40 42 40 38 35 32 30 25 23 21 20 19 21 23 24 23 22 20 19 19 18 17 17 18 18 18 18 18 17 16 15 14 12 11 10 9 8 7 7 6 6 6 5 5 5 5 5 5 6 5 6
43 42 43 35 34 31 27 25 23 23 22 21 21 22 24 23 23 22 22 21 20 19 19 19 19 19 19 18 17 16 14 12 11 9 8 7 5 5 4 4 3 3 3 2 2 2 2 2 2 2 2 2
40 42 42 34 30 27 24 24 22 22 22 23 23 23 23 21 22 22 23 23 21 21 20 21 20 20 18 17 16 13 12 9 7 6 4 3 2 2 2 1 2 1 1 1 1 1 1 1 1 1 1 1
38 42 37 31 28 26 25 24 24 25 25 24 23 23 23 22 22 23 24 23 22 22 22 21 20 19 17 15 13 10 8 6 4 3 2 2 1 1 1 1 1 1 1 1 1 1 2 1 2 2 2 2
40 38 33 31 28 26 25 25 26 27 26 26 25 25 24 24 23 24 24 23 22 23 22 21 20 18 15 12 9 7 5 3 2 1 1 1 1 1 1 2 1 2 2 2 2 2 2 2 2 3 3 3
45 37 32 33 31 29 27 27 28 28 28 28 27 27 27 26 25 25 24 23 23 23 23 21 19 16 12 8 5 4 2 2 1 1 1 1 1 2 2 2 2 2 3 3 3 3 3 3 3 3 3 3
45 37 32 32 30 29 28 28 29 28 29 29 29 29 29 27 26 26 24 23 24 24 23 20 17 13 8 5 3 2 1 1 1 1 1 2 2 2 2 2 3 3 3 3 3 4 4 4 4 4 4 4
39 34 32 30 28 28 28 28 28 28 28 29 31 31 31 29 28 27 25 24 24 24 22 19 15 9 5 2 2 2 1 1 1 2 2 2 2 2 3 3 3 3 3 4 3 4 4 4 5 5 5 5
37 34 32 30 28 28 28 27 27 27 28 29 31 33 32 30 29 27 25 25 25 24 21 17 12 6 3 1 2 1 1 2 2 2 2 2 3 3 3 3 3 3 3 4 4 5 5 6 6 6 7 6
34 30 29 29 29 29 28 28 28 28 29 30 31 33 34 32 30 27 26 26 25 24 21 15 8 4 2 1 2 1 2 2 2 2 2 3 3 3 3 3 3 3 4 4 5 6 6 7 7 7 7 7
29 28 29 31 31 30 29 29 29 30 31 31 32 33 35 33 31 29 28 27 26 23 19 11 5 2 2 1 2 2 2 2 2 2 2 3 3 3 3 3 4 4 5 6 6 7 7 7 7 7 6 6
28 28 28 29 31 31 31 31 31 31 31 32 34 35 35 34 31 30 29 28 26 22 16 8 3 2 2 2 2 2 2 2 2 2 3 3 3 3 3 4 5 5 6 7 7 7 6 7 6 6 6 6
37 30 26 27 29 31 32 33 31 31 32 33 35 36 35 34 31 30 29 28 25 20 12 6 2 2 2 2 2 2 2 2 2 3 3 3 3 3 4 5 6 6 7 7 7 6 6 6 6 6 6 7
47 38 31 29 29 31 33 33 32 32 32 33 34 35 34 33 31 30 29 27 25 18 9 4 2 2 2 2 2 2 2 2 2 3 3 3 3 4 5 6 7 7 7 6 6 6 5 5 5 6 6 7
42 38 34 32 30 31 33 34 34 34 33 33 35 34 32 32 31 30 29 27 23 16 7 2 2 2 2 2 2 2 2 2 3 3 3 3 3 4 6 6 7 7 6 6 5 5 5 5 5 6 6 6
31 31 30 29 29 31 32 34 35 34 33 33 34 34 33 31 31 31 29 27 22 14 5 2 2 2 3 2 2 2 3 3 3 3 3 4 4 5 7 7 7 7 6 5 5 5 4 5 5 5 5 5
28 28 28 29 30 31 32 33 34 35 35 35 34 33 33 31 31 31 29 26 21 12 4 2 3 3 3 2 3 3 3 3 3 3 4 4 5 6 7 7 7 6 5 5 4 4 4 4 5 5 5 4
28 28 29 30 31 32 33 34 35 38 38 37 35 33 33 32 31 31 29 26 20 11 3 2 3 3 3 3 3 3 3 3 3 4 5 5 7 7 8 7 7 6 5 4 4 4 4 4 4 4 4 4
28 29 30 30 32 32 33 35 37 39 39 37 36 35 34 33 33 32 29 25 18 9 3 2 3 3 3 3 3 3 3 4 4 5 5 6 7 7 8 7 6 5 4 4 4 4 4 4 4 4 4 4
29 30 31 31 32 33 33 33 35 38 38 36 36 36 35 34 34 32 29 24 16 8 2 2 3 3 3 3 4 4 4 5 5 6 6 7 8 8 8 7 6 5 4 4 4 4 4 4 4 4 4 5
30 31 31 32 32 33 33 33 35 37 37 37 37 38 37 35 34 33 30 24 14 6 2 2 3 3 4 4 4 4 5 5 5 6 7 8 8 8 8 7 6 5 4 4 4 4 4 4 4 4 4 5
31 31 30 30 31 30 29 29 31 32 32 34 36 38 38 36 35 33 30 23 13 5 3 3 3 4 4 4 5 5 5 6 6 7 8 8 9 9 8 8 7 5 4 4 4 4 4 4 4 5 5 5
26 26 25 24 22 19 16 17 21 23 26 30 33 35 37 36 36 34 31 23 11 4 3 3 3 4 4 5 5 5 6 6 7 8 8 9 9 9 8 8 7 6 5 4 4 4 4 4 4 5 5 6
15 16 16 14 10 6 6 8 13 16 19 23 26 30 34 35 35 34 31 23 11 4 4 3 3 4 4 5 5 6 6 7 7 8 8 9 9 9 9 8 8 7 6 5 5 5 4 4 5 5 5 6
8 8 7 6 4 4 5 6 10 12 15 20 24 28 31 33 35 34 30 25 13 6 5 4 4 5 5 5 5 6 6 7 8 8 9 9 9 9 9 9 8 7 6 6 5 5 5 5 5 6 6 7
4 4 4 5 5 5 5 6 10 14 17 22 27 29 30 35 37 36 33 28 19 9 6 5 5 5 5 5 5 6 7 7 8 8 9 10 10 10 10 9 8 8 7 6 7 6 5 6 6 7 8 8
3 5 6 7 8 8 7 6 8 12 13 16 21 24 27 33 36 37 34 31 25 15 9 7 6 5 5 5 6 6 7 7 8 9 9 10 10 10 10 10 9 9 8 7 7 7 6 6 7 7 8 10
5 7 9 11 12 11 8 6 4 6 6 8 11 16 21 27 33 35 34 32 28 20 13 10 7 6 5 5 6 6 6 7 8 8 9 10 11 11 11 11 10 10 9 8 8 7 6 7 7 8 9 10
8 9 12 14 14 13 11 8 5 4 5 6 9 15 22 28 32 34 33 32 29 25 19 15 11 8 6 6 6 6 6 7 7 8 9 10 11 12 12 12 11 10 10 9 8 8 7 7 8 9 10 11
9 10 11 12 12 12 12 11 9 8 8 10 15 21 28 32 35 36 36 35 32 30 27 24 19 14 9 7 6 6 6 6 7 8 9 10 11 12 13 12 11 11 11 10 9 9 8 8 9 9 11 11

ECMWFFLT2_700_rhum_126.txt.gz
RH
88 84 79 74 80 79 73 72 67 60 57 58 56 52 50 42 32 24 21 21 19 19 18 17 16 15 15 14 14 15 16 16 16 16 16 16 16 16 15 15 14 14 13 13 13 12 12 12 12 12 11 12
89 80 75 72 72 70 66 66 64 64 65 66 65 63 64 60 53 41 33 30 24 19 17 16 17 17 16 16 17 17 17 17 17 17 17 16 15 14 13 12 12 11 11 10 10 10 9 9 9 9 9 9
91 83 77 77 78 75 70 64 59 58 55 54 53 53 55 57 55 47 39 34 28 21 17 17 18 18 18 18 18 18 18 18 17 17 16 15 13 12 11 10 9 8 8 7 7 6 6 6 6 6 6 5
85 82 71 75 84 83 79 65 53 48 42 40 38 38 39 40 38 34 31 27 25 21 19 19 19 19 19 19 19 19 19 18 17 15 14 12 11 9 8 7 6 5 4 4 3 3 3 3 3 2 2 2
76 78 74 82 86 76 67 54 44 40 36 33 29 28 28 27 26 26 26 24 23 22 22 21 19 19 19 20 20 19 18 16 15 13 11 9 7 6 5 4 3 3 2 2 1 1 1 1 1 1 1 1
71 69 73 84 85 67 49 40 36 34 36 33 28 27 25 25 25 25 25 24 24 23 23 21 20 21 20 21 20 19 17 14 12 9 7 5 4 3 2 2 1 1 1 1 1 1 1 1 1 1 1 1
72 63 62 66 69 59 44 36 32 31 33 31 28 28 27 27 26 26 25 25 25 24 24 23 21 22 22 21 20 18 15 11 9 6 4 3 2 2 1 1 1 1 1 1 1 1 1 1 1 2 2 2
74 65 60 59 60 56 48 39 33 32 30 29 29 28 27 27 27 26 26 26 26 25 26 24 23 23 22 21 19 17 13 8 5 3 2 1 1 1 1 1 1 1 1 1 2 2 2 2 2 2 3 3
73 70 69 68 64 58 50 41 36 34 30 30 28 28 28 28 27 26 25 26 26 27 27 25 24 24 23 21 18 14 10 6 3 2 1 1 1 1 1 1 1 2 2 2 2 2 3 3 3 3 3 3
76 76 77 75 70 63 55 45 39 37 33 30 28 28 29 29 28 26 25 26 27 29 29 26 25 24 23 20 17 12 7 4 2 2 1 1 1 1 2 2 2 2 2 3 3 3 3 3 3 4 3 4
75 76 74 71 69 62 55 48 42 37 33 29 28 29 29 29 28 27 27 27 28 30 29 27 26 25 23 20 14 8 5 3 2 1 1 1 1 1 2 2 2 3 3 3 3 3 3 3 3 4 4 5
72 70 63 62 62 56 50 47 44 39 35 32 30 29 29 30 29 29 29 28 30 30 30 28 27 26 23 19 13 6 3 2 2 1 1 1 2 2 2 2 2 3 3 3 3 3 3 4 4 5 5 6
64 56 48 49 49 49 49 49 48 46 43 38 33 31 30 31 31 31 30 29 30 30 30 28 27 27 24 18 10 4 2 2 2 1 2 2 2 2 2 3 3 3 3 3 3 4 4 5 5 6 6 6
55 47 43 45 43 43 45 46 48 50 48 41 36 33 32 33 33 33 31 30 30 30 30 28 28 27 24 18 9 3 2 2 2 2 2 2 2 2 3 2 3 3 3 4 4 4 5 6 6 6 7 6
48 46 46 52 55 53 47 44 43 45 46 44 41 36 34 35 34 34 33 32 32 31 30 28 28 27 24 18 9 3 2 2 2 2 2 2 2 2 3 3 3 3 3 4 5 6 6 7 7 6 6 6
50 53 56 60 64 62 55 48 44 43 43 44 43 41 39 37 35 35 35 34 33 32 31 30 29 28 25 17 9 3 1 2 2 2 2 2 3 2 3 3 3 3 4 5 5 7 7 7 7 6 5 5
55 58 60 62 63 62 57 52 49 47 46 46 44 43 43 40 38 38 37 36 34 32 31 30 30 28 24 16 7 3 2 2 2 2 2 2 2 2 3 3 3 4 4 6 7 7 7 7 6 5 5 5
53 52 53 55 58 58 55 51 48 47 48 47 44 44 44 42 41 39 38 38 35 33 32 30 30 28 25 16 6 2 2 2 2 2 2 2 3 2 3 3 3 5 5 6 7 7 7 6 6 5 5 5
47 46 47 49 48 46 45 45 45 47 49 49 48 48 48 46 44 42 40 40 38 34 32 32 31 29 25 16 6 2 2 2 2 2 2 2 3 3 3 4 4 5 6 7 7 7 7 6 5 5 5 5
40 39 40 40 38 36 36 39 42 45 47 49 49 53 55 52 49 48 44 41 41 37 33 32 31 30 26 16 7 2 2 2 2 2 3 3 3 3 3 4 5 5 7 7 7 7 6 6 5 5 5 4
39 38 37 36 34 34 33 36 38 39 42 43 43 47 52 52 51 53 50 44 42 39 35 33 32 30 26 18 8 2 2 2 3 3 2 3 3 3 4 4 5 6 7 7 7 7 6 6 5 4 4 4
40 39 38 36 34 34 33 34 34 35 37 37 38 40 49 59 58 53 50 47 44 41 37 34 32 31 28 21 9 2 3 2 3 4 3 4 4 4 4 5 6 6 7 7 7 7 6 6 5 4 4 4
37 39 38 37 35 34 34 33 32 33 33 33 35 36 46 59 61 57 54 48 45 43 40 36 33 32 28 22 12 2 2 3 3 4 4 4 4 5 5 5 6 7 7 8 7 7 7 5 4 4 4 4
33 36 36 35 34 33 33 32 32 33 33 34 35 36 46 54 55 58 59 53 48 43 39 37 34 32 29 22 13 4 2 3 4 4 4 5 5 5 5 5 6 7 7 8 8 8 7 6 4 4 4 4
26 32 34 33 32 32 31 32 33 34 34 34 34 37 48 61 68 69 65 56 49 45 41 39 36 32 29 22 12 5 3 3 4 4 4 4 5 5 5 6 6 7 8 8 8 8 7 6 5 4 4 4
14 24 29 31 32 33 34 35 36 35 36 39 42 44 48 64 81 86 87 75 57 52 46 41 40 36 29 23 14 7 4 3 3 4 5 5 5 5 6 6 7 8 8 9 8 8 8 7 6 5 4 4
6 13 23 30 33 36 37 38 38 39 45 50 56 63 64 67 76 84 93 87 73 72 70 59 49 42 35 24 15 10 5 4 4 4 4 5 5 6 6 6 7 8 8 9 9 9 9 8 7 6 4 4
4 7 15 28 35 38 39 38 39 42 46 46 44 50 51 49 62 79 89 86 77 79 93 92 69 53 49 34 20 14 8 5 5 4 5 5 6 6 6 7 7 8 9 9 9 9 9 9 8 7 5 5
6 6 9 21 34 39 37 34 33 33 33 30 24 25 23 19 31 55 76 90 90 83 89 92 73 56 50 38 25 16 10 9 7 5 6 5 6 6 6 7 7 8 9 9 10 9 9 9 8 8 7 7
7 9 8 15 26 33 34 31 27 24 23 23 22 22 21 20 24 36 57 74 85 95 91 77 67 65 62 50 35 24 15 13 10 7 7 6 6 6 6 7 7 8 9 9 10 10 10 10 9 9 9 8
8 10 11 13 18 25 32 34 30 28 30 32 34 37 37 42 49 58 70 67 66 84 89 76 69 80 93 80 53 39 28 17 13 11 9 8 7 6 7 7 8 8 9 10 10 10 11 10 10 10 10 10

ECMWFFLT2_700_rhum_129.txt.gz
RH
99 98 98 98 99 96 93 94 97 98 93 88 85 78 70 68 67 63 58 56 52 44 36 32 30 29 28 25 19 16 14 13 13 13 13 12 13 12 13 13 14 14 15 15 15 15 15 15 15 15 15 14
99 99 99 98 99 98 93 89 90 91 88 85 83 77 70 68 66 65 61 57 58 57 48 43 40 38 40 37 27 19 15 14 14 15 15 15 15 15 16 16 16 15 15 15 15 15 14 14 14 14 14 13
98 100 100 99 97 91 88 90 86 83 83 81 80 76 70 68 66 65 60 53 53 57 54 50 48 44 42 38 29 22 17 15 16 17 18 17 17 17 16 16 16 15 14 14 13 13 13 12 12 12 11 11
97 100 99 98 94 85 86 91 87 87 85 78 78 79 74 70 69 69 65 61 59 59 58 56 56 52 48 42 30 23 20 18 19 18 18 18 17 16 16 15 14 13 12 11 11 10 10 10 9 9 9 9
94 95 95 97 94 84 86 93 92 91 86 77 74 75 74 71 69 73 74 73 72 70 66 62 58 55 53 50 40 30 23 20 20 19 19 18 17 15 14 13 11 10 10 8 8 7 7 7 6 6 5 5
93 90 90 93 93 86 85 94 95 87 80 79 75 70 72 69 62 63 67 70 71 67 62 56 50 45 43 44 45 43 37 30 25 21 19 18 16 14 11 10 9 7 7 6 5 4 4 4 3 3 3 2
94 92 91 88 85 87 90 96 98 87 75 75 73 65 65 64 58 53 53 57 60 62 61 57 52 45 40 37 39 42 44 43 38 32 26 21 17 13 10 8 6 5 4 3 2 2 2 2 2 1 1 1
95 95 96 90 83 85 92 95 95 85 75 81 75 59 54 54 52 49 47 47 49 53 57 59 58 52 43 36 32 32 34 37 38 36 32 27 21 14 10 6 4 3 2 2 1 1 1 1 1 1 1 1
97 95 95 97 88 76 79 83 82 80 81 88 77 54 48 48 47 49 49 49 47 46 46 47 50 49 43 36 31 29 28 29 29 29 27 24 19 13 9 5 3 2 1 1 1 1 1 1 1 1 1 1
96 93 93 98 90 77 78 79 75 80 87 87 69 48 45 45 46 49 49 49 49 49 47 44 43 41 39 34 30 27 26 27 25 23 20 15 11 8 5 3 2 1 1 1 1 1 1 1 1 2 2 2
94 95 97 96 92 88 91 90 83 83 86 84 64 45 42 40 41 43 43 42 41 43 44 43 43 40 36 32 30 26 25 24 22 19 14 10 6 4 3 2 1 1 1 1 1 1 1 2 2 2 3 2
97 100 99 97 96 95 94 93 88 83 82 78 60 47 43 40 41 40 38 38 36 35 34 34 35 34 32 31 29 26 25 24 21 17 11 7 4 3 2 1 2 1 1 2 1 2 2 2 2 3 3 3
98 96 91 92 93 90 89 84 77 80 83 74 62 56 49 43 42 40 36 34 33 32 30 29 29 29 30 30 30 27 26 25 21 16 9 5 3 2 2 1 1 1 1 2 2 2 2 3 3 3 3 3
90 89 87 88 88 85 83 76 75 85 79 62 58 59 52 46 43 39 36 33 31 31 28 28 29 29 30 30 30 28 27 26 22 16 9 5 3 2 1 1 1 2 2 2 2 3 3 3 3 3 3 4
85 82 82 83 82 83 80 71 78 90 76 57 54 54 51 49 47 43 40 36 33 32 29 30 31 31 32 32 31 30 28 27 23 17 9 4 3 2 1 2 2 2 2 2 3 3 3 3 3 4 4 4
90 81 71 68 68 74 76 69 70 78 74 67 63 60 58 55 53 51 48 44 38 34 32 31 32 32 33 33 32 30 29 28 24 16 9 4 2 2 2 2 2 2 3 2 3 3 3 3 3 4 4 5
86 79 64 56 56 61 67 65 61 65 69 70 70 69 69 66 64 62 59 55 49 42 38 36 35 36 36 36 34 31 30 28 25 16 8 4 2 2 2 2 2 2 3 2 3 3 3 4 4 4 5 6
79 78 68 60 57 52 54 59 64 76 84 79 73 71 71 71 70 67 64 61 57 51 46 43 41 40 39 39 37 34 32 29 26 18 9 4 2 2 2 2 2 2 3 3 3 3 3 4 4 6 7 7
71 76 79 77 67 57 58 68 73 80 88 87 83 83 79 75 72 70 69 66 62 58 54 51 47 45 43 40 39 36 34 31 28 19 9 5 3 2 2 2 2 3 2 3 3 3 4 4 5 7 7 8
51 60 78 86 76 70 73 79 76 69 78 87 85 88 88 79 73 71 75 78 76 72 68 61 55 51 47 43 40 38 36 33 29 21 10 5 4 2 2 3 2 3 3 3 4 4 4 5 6 7 7 8
37 45 63 76 74 74 78 82 80 75 80 86 80 84 90 87 84 79 79 89 94 90 83 74 65 57 49 45 41 37 36 34 30 22 11 4 3 3 2 3 3 3 3 4 4 4 5 5 6 7 8 8
32 36 47 63 74 79 84 87 90 88 85 85 84 84 86 87 90 86 80 86 96 101 95 83 72 62 53 47 41 38 35 33 32 25 13 5 3 3 3 3 3 3 3 4 5 5 5 6 7 8 8 8
30 33 38 56 71 77 84 88 91 94 88 86 85 81 82 82 82 86 88 85 86 96 98 88 80 70 60 51 43 39 37 34 32 26 15 6 2 3 4 4 4 4 4 4 5 5 6 7 8 8 8 8
27 30 33 43 51 54 62 64 71 83 83 85 86 81 82 84 80 82 91 92 84 88 96 99 95 79 65 59 51 43 40 35 33 29 17 6 3 3 4 4 4 4 4 5 5 6 6 7 8 8 9 9
15 24 28 33 37 41 45 45 54 64 62 65 74 79 79 80 82 80 86 93 86 82 93 101 98 86 74 65 58 51 45 39 35 31 22 11 4 3 4 4 4 5 4 5 5 5 6 7 8 8 9 9
7 10 17 27 36 41 43 42 45 50 54 56 61 74 78 73 78 80 82 88 80 74 87 97 94 91 86 76 67 60 50 42 37 33 28 19 10 3 3 4 4 5 4 5 5 5 6 7 8 9 9 10
13 8 7 18 33 41 43 42 43 54 74 82 75 77 83 81 83 83 80 81 80 77 84 96 100 98 96 93 87 72 56 48 41 37 32 25 17 7 3 4 4 5 5 5 6 6 7 7 8 9 9 10
16 16 9 10 18 28 36 38 48 65 78 89 89 84 85 88 90 90 86 81 84 88 86 89 97 101 101 100 98 84 68 62 52 43 38 30 22 12 4 4 4 5 5 5 6 6 6 7 7 8 9 9
12 15 17 20 17 14 18 21 34 51 60 73 82 79 81 86 85 84 86 81 83 94 93 87 87 95 100 97 102 96 78 79 81 71 57 39 28 18 8 5 3 4 6 5 6 6 6 7 7 7 8 8
12 12 16 28 30 27 26 21 18 25 41 58 68 74 79 83 84 82 81 80 81 88 89 81 74 83 98 97 96 96 83 84 97 100 83 56 39 27 14 8 5 3 5 5 5 6 6 7 7 7 8 8
13 13 12 18 29 39 42 32 21 19 29 42 59 81 88 83 84 84 83 83 82 83 82 79 70 67 86 100 95 95 94 84 86 101 96 70 51 38 22 14 9 5 5 6 5 6 7 6 7 7 8 9

ECMWFFLT2_700_rhum_132.txt.gz
RH
99 99 98 95 97 96 97 98 99 99 96 93 94 96 94 90 91 89 81 77 67 47 33 27 26 25 25 25 23 23 21 19 18 17 17 15 14 13 12 11 11 11 11 11 11 12 12 12 12 12 11 11
96 98 100 99 98 97 99 99 99 97 92 91 91 93 93 92 92 90 86 84 77 62 45 35 34 34 34 32 30 29 26 24 21 18 17 16 14 13 13 13 13 13 13 14 14 15 15 15 15 15 15 15
92 95 99 100 99 99 100 98 97 95 90 88 88 89 89 90 90 89 87 86 83 73 60 49 43 43 45 43 39 39 38 34 30 25 20 18 18 17 16 15 17 17 16 16 16 17 16 16 16 16 16 16
94 94 97 99 99 100 98 96 95 92 89 86 85 85 83 82 85 86 83 82 82 76 70 64 57 55 55 52 49 49 49 44 40 37 29 23 21 20 18 18 20 18 16 17 16 16 15 15 15 15 15 14
96 96 98 99 100 100 98 98 96 92 90 87 86 88 85 80 81 84 82 79 79 76 73 70 68 67 63 58 56 57 59 53 48 45 39 32 25 21 19 19 20 18 16 15 14 14 13 13 13 13 13 12
96 97 98 100 100 100 100 100 98 94 90 90 92 93 88 81 78 78 79 79 79 79 75 70 71 71 68 64 59 60 62 59 53 50 45 40 33 27 23 18 15 14 14 14 12 12 10 10 10 10 10 9
97 96 96 99 100 99 99 99 99 96 91 91 96 94 86 80 77 75 74 74 77 81 80 77 77 74 72 71 66 65 67 65 62 58 53 49 47 44 41 34 24 15 10 8 9 9 8 7 7 6 6 6
98 98 97 97 100 100 97 97 98 95 91 95 99 96 88 80 78 76 72 72 74 78 80 81 82 82 80 79 75 74 74 72 69 68 65 62 61 59 58 57 51 41 29 17 8 5 4 3 4 4 3 3
100 100 98 97 99 100 99 97 94 90 91 98 99 99 95 88 86 79 67 65 68 72 75 76 78 80 81 81 79 77 75 74 72 70 69 69 67 65 65 65 64 62 56 45 32 20 10 4 3 2 1 2
99 100 98 98 99 99 100 99 94 88 93 100 97 99 100 94 92 82 65 58 59 62 66 69 71 73 75 75 75 75 72 70 69 65 63 63 62 62 63 62 61 61 60 56 48 36 24 15 9 4 1 1
93 98 99 98 98 98 100 99 97 93 95 100 98 99 100 93 89 78 64 57 57 59 61 63 63 65 67 67 68 68 69 68 65 61 58 57 55 55 55 54 52 49 48 45 37 28 21 17 12 7 3 2
84 93 99 100 98 99 100 97 98 99 98 99 100 99 98 96 88 71 60 56 56 57 59 60 60 60 58 56 55 56 60 63 60 57 54 51 47 45 45 43 39 32 28 25 21 15 10 7 6 4 3 2
80 88 93 97 99 100 98 98 99 99 100 100 99 99 98 99 90 72 61 56 52 53 54 56 57 57 54 50 47 47 49 52 50 47 46 43 38 35 32 28 23 17 12 9 7 5 4 2 2 2 2 1
78 86 91 92 97 97 91 96 100 97 98 97 95 97 100 96 85 74 65 55 50 49 50 49 48 47 45 44 42 40 41 42 40 39 38 35 31 29 25 19 13 8 5 3 2 1 1 1 1 1 1 2
75 85 93 91 93 90 82 87 92 94 96 95 91 91 97 91 74 67 62 53 49 46 44 42 41 39 38 37 36 36 35 36 36 36 35 33 30 27 23 17 12 8 4 2 1 1 1 1 2 2 2 2
60 76 88 87 91 88 82 84 89 95 93 88 88 86 91 86 66 57 56 54 52 47 43 42 41 41 40 37 34 34 34 34 35 36 36 34 32 29 26 18 13 10 7 4 2 1 2 1 2 2 2 3
51 65 81 84 89 92 88 82 81 89 87 77 81 86 86 82 68 58 57 59 60 56 53 52 52 52 52 50 46 42 39 39 38 37 36 34 32 31 29 22 15 11 7 4 2 1 2 2 2 2 2 3
51 62 80 88 89 91 88 83 76 74 77 70 71 82 83 80 74 66 62 62 63 62 60 61 62 64 64 64 63 58 54 51 49 46 42 38 33 31 29 24 16 9 5 3 2 2 2 2 2 2 3 3
39 50 69 85 93 90 81 84 83 72 70 67 70 82 83 79 79 77 76 73 71 70 70 70 71 71 69 66 64 63 61 58 55 53 49 45 39 33 30 24 15 8 5 3 2 2 2 2 2 3 3 3
32 36 48 67 81 86 80 82 88 84 76 71 77 82 79 81 89 92 93 90 85 83 82 79 75 71 66 63 61 60 60 57 56 53 50 48 43 37 33 26 17 10 5 3 2 2 2 2 2 3 3 3
28 30 33 45 58 75 86 84 85 88 84 84 88 85 82 89 96 99 100 98 95 91 87 83 78 73 67 60 57 58 62 60 57 55 51 47 44 39 35 30 20 11 6 3 2 2 2 2 3 3 3 3
25 38 38 34 41 63 84 88 89 93 92 94 98 94 94 98 98 100 100 99 99 96 92 90 86 83 76 66 57 54 59 61 57 54 51 46 44 40 37 32 22 12 6 3 3 3 2 3 3 3 3 4
48 63 66 51 43 49 64 77 85 88 89 94 100 98 96 94 94 98 98 95 97 99 98 97 94 91 86 78 70 60 56 59 58 56 53 47 43 39 37 34 24 13 7 4 3 3 3 3 3 3 4 4
78 80 78 69 60 50 48 56 63 66 75 90 95 90 89 90 91 94 93 93 96 99 99 100 98 94 89 85 81 73 63 64 69 68 62 56 48 41 36 34 29 19 11 5 3 3 3 3 3 3 4 4
72 87 88 83 78 67 50 43 50 54 62 85 94 85 85 89 90 92 93 97 99 96 96 101 100 92 87 87 87 83 77 81 87 79 68 64 57 47 40 36 32 26 15 7 4 4 3 3 4 3 3 4
35 59 77 89 95 93 70 40 39 47 55 78 93 90 89 88 87 90 92 96 96 92 95 101 100 94 89 92 95 91 85 83 82 76 72 73 68 57 47 40 35 30 21 10 5 4 4 3 3 4 3 4
17 24 38 57 73 86 80 52 38 44 53 72 88 90 90 89 91 94 94 95 93 90 95 98 100 100 96 99 100 91 83 77 75 77 77 82 86 76 63 50 39 34 27 15 7 4 4 5 4 4 4 4
17 19 22 30 37 45 52 49 43 45 52 66 85 93 90 87 91 94 95 99 98 95 95 97 99 100 99 101 100 92 89 88 90 92 86 88 98 94 78 61 47 40 33 22 12 7 4 4 5 4 4 5
17 19 22 25 29 30 31 35 37 42 54 66 80 92 94 94 93 92 92 94 98 99 99 99 99 99 99 100 100 97 97 99 99 100 97 95 99 95 82 69 59 51 44 34 20 11 7 5 4 5 4 5
20 21 22 23 27 30 33 37 38 41 52 69 82 86 89 95 93 89 89 91 95 98 100 100 99 99 100 100 100 99 99 101 99 99 100 97 98 98 90 85 77 62 58 60 46 23 12 7 4 5 5 5
22 22 23 24 24 25 29 33 41 49 50 60 78 84 84 89 92 89 88 92 98 99 100 100 100 100 99 100 100 98 99 100 99 99 100 99 99 99 98 98 90 73 70 80 74 52 29 14 7 4 4 6

ECMWFFLT2_700_rhum_138.txt.gz
RH
82 76 88 95 94 100 101 100 99 98 98 95 93 93 94 96 98 95 93 95 95 95 96 95 91 89 89 87 85 83 81 81 83 86 78 72 65 41 28 32 26 15 10 10 9 8 8 7 7 7 7 8
79 78 89 92 90 96 99 98 94 92 93 92 92 91 90 92 95 95 95 95 94 94 95 94 91 88 89 90 87 84 82 81 81 85 83 72 61 45 31 27 24 17 14 13 11 11 11 9 10 10 10 11
80 85 93 89 90 96 98 98 94 93 94 91 91 89 88 89 92 95 97 97 97 96 92 89 88 88 89 90 87 83 80 79 78 80 84 76 63 57 46 31 23 20 20 18 17 16 15 14 13 13 13 12
85 92 96 88 90 95 95 98 98 99 98 96 97 95 90 90 91 92 97 99 98 94 87 81 79 81 85 88 87 83 78 74 72 73 77 75 57 46 43 36 26 20 20 21 21 19 17 17 16 15 15 13
83 88 91 87 90 94 94 98 100 100 99 99 99 98 92 89 88 87 90 94 94 90 85 79 73 72 78 85 84 77 75 71 66 60 58 58 48 37 33 30 27 22 19 20 20 20 18 18 17 17 16 15
82 87 91 91 92 94 96 96 98 98 98 100 98 98 95 91 89 86 88 90 90 87 84 80 73 71 76 82 75 61 59 62 61 54 45 41 37 35 32 28 26 24 22 22 21 20 19 19 20 19 19 17
76 81 86 94 95 96 97 93 93 94 95 99 98 97 95 92 90 90 94 93 89 85 82 79 75 72 74 81 78 65 55 51 52 51 46 40 34 32 31 28 26 25 24 25 24 23 22 21 21 21 20 19
65 69 78 88 92 94 96 93 91 91 93 98 99 99 97 93 93 97 99 95 91 87 83 78 73 70 70 74 79 80 72 57 49 50 50 44 39 35 32 29 26 25 24 23 24 24 23 20 20 19 19 19
57 65 77 84 90 90 91 95 95 94 96 98 99 100 100 96 96 100 99 97 95 91 87 81 73 68 68 70 72 79 83 75 62 56 53 47 45 43 41 38 34 31 29 25 23 25 25 21 21 20 15 14
56 65 75 82 87 87 86 91 97 98 98 98 99 100 99 100 100 100 99 99 99 96 93 87 78 69 66 70 72 76 83 86 80 72 65 57 53 50 48 49 48 46 42 36 30 31 37 37 43 41 31 29
51 59 70 83 87 87 89 89 91 93 94 97 99 101 100 99 100 99 98 98 100 100 98 94 84 71 65 69 74 80 85 90 92 90 87 79 71 64 60 58 59 60 58 54 47 42 45 48 55 58 56 57
44 49 57 70 73 78 86 86 87 88 94 99 98 97 98 98 99 100 98 98 100 100 99 99 92 77 66 67 72 78 82 85 88 92 95 95 90 85 79 72 69 68 67 69 68 63 57 51 52 53 56 62
35 43 48 52 58 75 87 83 86 90 94 99 98 96 96 97 99 100 99 97 98 100 100 101 99 86 68 65 70 72 76 79 80 81 86 92 96 96 94 89 81 76 73 72 75 78 76 69 62 58 56 57
31 32 42 47 49 68 83 79 81 87 90 94 96 96 95 96 99 100 99 98 98 100 101 100 101 91 70 61 64 64 69 75 75 74 75 78 83 88 92 94 91 87 83 79 76 77 80 80 77 74 71 65
47 32 31 44 51 58 68 77 81 79 82 89 92 95 97 98 98 96 94 96 95 95 99 100 99 92 76 64 60 61 65 69 71 70 70 71 71 74 78 81 85 87 87 86 84 82 82 83 83 84 85 82
63 56 37 37 51 61 65 76 85 83 84 89 90 95 100 100 98 95 93 94 89 86 93 99 99 94 84 75 65 62 63 61 61 61 60 60 61 63 66 68 72 77 81 82 84 84 85 85 85 86 86 85
50 68 62 44 42 55 65 74 84 86 87 88 89 94 97 98 100 95 92 94 91 89 90 93 99 95 86 80 72 63 60 55 51 52 51 50 50 52 55 58 62 66 71 75 77 77 78 79 79 80 80 78
28 50 72 68 50 43 50 67 82 85 84 85 86 91 96 99 101 98 93 95 96 97 94 89 94 98 88 78 73 64 59 56 52 48 47 47 46 46 46 49 54 58 61 65 70 72 73 73 72 72 73 74
23 32 57 80 77 59 46 49 65 78 83 88 88 88 94 96 96 97 96 97 99 99 99 92 89 97 94 80 71 67 63 62 60 57 55 56 56 55 53 51 53 56 58 61 63 67 69 70 71 71 71 72
25 29 40 64 81 79 72 55 49 60 68 79 90 87 84 89 95 99 98 99 99 98 99 97 92 94 97 88 76 71 69 70 72 74 75 76 76 75 73 68 65 64 65 67 66 65 65 65 66 67 69 70
31 36 35 56 79 80 86 81 60 57 61 65 78 85 85 90 96 98 98 100 98 97 99 100 99 97 97 95 88 79 74 73 76 82 85 85 85 85 83 80 76 74 72 69 67 66 65 63 60 57 56 58
37 45 45 65 88 80 80 88 78 73 78 71 65 70 77 86 94 95 97 100 98 98 98 99 101 100 97 98 97 92 86 81 78 80 85 90 91 87 81 77 75 73 70 67 64 63 62 62 60 53 44 38
49 51 64 76 86 89 88 90 88 87 89 80 71 73 74 82 95 97 98 100 99 99 99 98 100 100 99 99 100 99 97 94 90 87 91 96 96 91 85 80 77 72 69 67 64 62 61 59 58 56 49 39
76 60 72 87 82 84 88 90 94 98 95 84 83 93 91 91 97 98 100 101 99 100 100 99 100 100 100 99 100 100 100 100 99 97 98 100 99 97 95 89 82 76 71 68 67 65 62 59 57 55 55 51
97 82 78 92 88 78 78 87 91 93 100 96 95 99 94 96 100 99 100 101 100 101 100 100 100 100 100 100 100 100 100 101 100 100 99 100 100 100 100 94 86 81 74 69 66 64 61 58 56 53 53 52
77 95 95 95 94 90 88 89 82 79 91 97 97 97 94 98 102 100 99 100 100 100 100 101 100 100 100 100 100 100 100 100 100 100 100 100 100 101 100 98 92 86 81 77 72 70 66 61 56 53 51 48
41 67 87 94 92 92 95 97 92 89 95 97 95 93 94 99 100 100 100 100 100 99 98 97 95 98 101 100 100 100 100 100 101 100 100 100 100 100 100 100 97 90 87 86 82 79 73 63 58 55 51 48
35 40 53 69 76 77 86 99 101 97 98 99 99 97 98 100 100 100 100 100 101 99 97 94 88 88 95 101 100 100 100 99 101 100 100 100 100 100 100 100 99 96 94 91 87 87 81 71 63 54 48 48
41 40 39 44 51 54 64 81 93 95 96 96 97 100 100 99 99 99 99 100 101 99 97 97 90 80 85 100 101 99 100 100 100 100 100 100 100 100 100 100 100 100 98 94 94 97 93 83 71 62 60 58
39 41 41 41 41 42 44 52 61 70 79 85 91 99 101 101 101 100 99 99 99 101 99 99 97 86 83 96 102 99 99 100 100 100 100 100 100 100 100 100 100 101 99 97 99 100 97 91 80 75 79 73
42 40 40 39 39 39 39 38 39 41 48 56 65 73 78 82 86 92 98 101 100 100 101 101 101 97 89 91 100 101 99 100 100 100 100 100 100 100 100 100 99 100 100 100 100 99 98 96 87 82 85 82

ECMWFFLT2_700_rhum_141.txt.gz
RH
78 76 77 79 80 79 81 82 82 89 94 97 100 99 100 98 94 89 86 93 100 98 95 97 98 95 92 94 97 96 93 93 90 85 83 81 82 79 75 75 74 78 83 81 77 64 42 26 14 14 15 10
77 76 76 75 74 80 91 95 94 95 94 96 99 99 101 99 94 91 90 93 97 98 97 98 100 99 96 95 96 94 94 95 93 91 87 83 80 79 79 78 75 77 80 79 80 61 30 15 10 8 11 9
61 66 70 70 73 86 101 102 96 97 97 99 101 100 101 99 96 95 95 94 95 98 99 99 100 100 97 93 92 89 90 91 92 93 91 88 83 79 79 79 77 71 66 64 63 47 20 10 10 9 10 10
48 57 65 74 85 92 98 97 93 93 96 98 100 99 99 99 98 97 95 96 98 97 98 99 99 100 96 89 85 82 83 84 88 90 89 90 88 85 83 83 83 68 58 53 38 24 14 11 13 13 13 13
48 61 72 81 90 92 91 93 95 95 98 98 95 94 98 100 98 96 97 98 99 97 93 95 97 94 90 85 80 77 77 79 84 86 85 87 89 89 86 86 88 74 61 55 36 21 17 16 18 18 17 15
42 59 77 81 81 87 91 92 95 95 96 99 94 95 97 98 99 98 99 100 99 96 90 90 93 90 86 82 79 77 77 77 78 80 81 84 87 87 85 83 85 79 71 66 50 30 22 22 23 20 19 18
36 46 64 77 77 82 88 89 94 96 96 100 98 99 99 95 99 100 100 101 98 93 91 92 91 87 84 80 80 80 80 78 74 72 73 75 77 78 78 77 77 77 74 71 58 38 27 24 23 22 21 19
31 38 47 68 84 85 81 77 83 90 94 99 97 97 99 97 99 100 100 100 98 94 95 95 93 88 82 78 79 82 81 78 71 65 65 62 62 62 60 59 61 63 61 60 54 41 32 26 23 23 21 20
24 35 40 58 82 86 80 81 87 89 90 93 94 94 97 97 97 100 101 100 99 98 99 98 95 88 80 74 75 80 83 80 71 62 61 60 57 53 48 44 42 43 45 44 44 39 32 29 26 23 22 22
19 28 36 47 67 78 83 89 87 80 83 86 84 90 97 95 94 98 100 100 100 100 99 98 96 90 80 73 72 76 81 85 81 69 64 63 60 57 52 47 40 37 38 38 38 38 36 35 31 25 23 22
19 23 34 44 51 60 71 81 78 68 72 83 82 86 95 95 96 100 101 100 100 100 99 97 98 95 85 77 74 74 78 84 88 86 78 69 63 62 62 59 54 47 44 43 41 40 38 37 34 29 25 23
22 23 31 44 50 51 54 63 82 86 79 83 88 87 91 96 99 99 100 99 97 97 98 100 99 98 92 84 79 77 80 82 87 93 93 87 77 69 67 66 65 62 56 52 50 47 44 42 43 41 37 36
25 28 31 44 55 55 52 52 69 92 96 89 89 91 90 91 96 100 100 99 96 94 97 100 100 99 98 93 87 81 81 84 86 89 91 93 92 86 80 75 71 69 67 63 60 57 54 51 52 54 55 57
22 29 36 49 61 59 53 54 57 65 78 86 88 86 83 85 94 99 100 100 98 98 99 100 100 100 100 99 95 84 79 83 84 84 85 84 87 91 92 91 85 79 75 71 68 65 64 61 58 57 58 63
19 26 37 51 73 80 62 50 53 53 57 72 83 82 82 90 94 92 95 100 100 100 99 100 100 100 100 101 99 90 79 79 80 80 83 83 81 83 87 92 94 93 89 84 81 78 76 74 70 66 64 64
16 24 35 46 69 92 86 63 50 54 64 70 76 82 86 84 83 89 97 99 99 100 99 99 99 98 99 100 101 97 85 77 76 78 81 82 81 79 80 83 86 90 93 93 93 93 91 89 84 79 74 71
15 21 27 42 69 86 94 92 68 52 60 70 75 83 87 82 82 94 100 99 98 98 98 96 92 91 94 98 100 100 94 84 76 75 79 79 78 78 77 77 78 80 83 87 90 94 96 97 96 92 86 80
14 20 19 37 79 93 87 94 90 68 53 58 73 82 85 89 94 98 98 98 100 99 97 93 89 88 90 93 98 100 99 96 86 76 75 75 74 73 72 71 70 71 72 76 79 84 88 91 95 97 96 93
14 21 22 29 59 84 90 89 89 88 71 51 56 75 90 95 96 98 98 96 98 99 97 93 92 94 92 89 94 100 99 100 96 84 73 69 68 65 65 65 64 64 64 67 69 72 75 78 82 87 92 95
18 20 26 31 39 63 91 97 88 90 93 76 56 60 82 98 100 96 94 95 96 98 98 98 98 98 98 93 94 100 99 99 98 89 75 65 62 61 58 57 56 57 58 61 64 66 66 67 70 75 80 85
21 25 27 32 42 60 81 94 98 96 97 97 82 60 57 77 95 99 98 99 98 99 99 99 99 99 100 99 98 99 100 100 97 93 84 71 64 60 57 56 59 62 60 58 58 60 63 64 66 70 75 78
27 43 45 40 47 63 74 78 89 101 100 97 99 87 64 55 69 88 97 99 98 99 100 99 98 100 100 100 100 100 99 100 99 96 93 84 75 70 65 67 74 80 78 71 65 61 60 61 64 67 71 75
27 51 69 67 60 60 71 75 74 89 102 99 98 100 89 68 58 63 75 91 100 100 100 99 100 100 100 100 101 99 98 100 100 99 98 95 91 87 82 82 86 90 90 87 82 73 65 64 64 63 65 67
21 47 82 96 89 73 72 82 82 88 100 103 98 95 98 94 80 68 67 82 93 92 96 100 100 100 99 100 100 99 99 100 100 100 99 99 99 98 94 91 91 90 91 92 89 82 74 70 67 64 61 60
19 31 66 94 104 94 81 85 94 97 98 100 100 97 98 101 98 89 79 76 75 79 94 101 99 100 99 100 101 100 100 100 100 100 100 100 100 100 99 96 95 94 95 95 90 84 79 75 71 67 64 60
27 22 39 69 94 102 94 88 91 98 100 99 100 100 100 100 100 99 93 85 81 84 95 100 100 101 99 100 101 100 100 100 100 100 100 100 100 100 100 99 99 99 100 99 95 90 87 85 81 77 73 67
38 33 33 48 70 90 100 97 89 91 99 101 99 98 99 100 100 100 99 97 97 96 95 98 101 100 99 100 100 100 100 100 101 100 100 100 100 100 100 100 101 100 100 100 100 98 91 86 85 82 76 72
43 43 41 42 50 64 81 93 93 93 97 100 101 100 99 101 100 99 99 99 100 100 98 99 101 98 99 99 97 99 100 100 100 100 100 100 100 100 100 100 100 100 100 100 101 100 94 88 85 77 74 76
45 45 45 45 45 46 52 63 75 85 92 91 90 91 93 98 100 99 100 99 100 100 99 100 100 100 100 98 95 94 95 97 99 100 100 100 99 100 101 100 100 99 100 101 100 100 99 97 90 79 81 87
46 45 45 45 45 45 44 43 48 59 68 66 61 63 72 85 91 93 97 99 100 101 100 100 99 99 100 99 99 96 92 88 86 90 96 100 100 100 100 100 100 99 99 100 101 100 100 100 97 92 94 95
47 46 45 45 44 43 43 43 42 43 46 45 43 42 48 58 64 66 72 81 89 93 96 99 100 100 100 100 100 100 98 91 83 81 85 89 93 98 101 101 99 99 99 99 100 100 100 100 100 99 100 99

ECMWFFLT2_700_rhum_144.txt.gz
RH
32 32 32 33 45 58 60 60 68 73 72 78 83 88 96 97 100 99 95 96 98 97 97 98 97 93 97 97 96 96 95 95 94 94 90 86 84 82 82 82 81 76 78 77 72 69 66 75 64 43 37 26
27 28 30 30 33 44 51 51 61 69 70 85 91 90 96 96 98 100 98 97 98 96 93 98 100 96 99 99 97 99 99 97 94 95 92 88 86 82 82 81 75 62 61 66 70 71 70 77 63 44 30 14
25 25 24 26 27 33 46 56 71 84 85 95 100 95 99 99 98 100 100 100 99 95 93 98 101 99 100 99 98 98 100 99 96 96 92 89 90 89 85 81 76 65 56 57 63 65 63 58 45 41 31 10
20 21 20 22 23 25 41 63 83 96 97 97 99 99 99 99 98 99 100 100 100 96 94 97 98 99 100 99 100 98 98 98 95 93 89 87 89 91 91 88 81 71 62 57 56 53 45 32 24 25 18 9
12 15 15 17 24 25 36 61 78 86 92 89 91 95 96 97 95 97 100 99 99 97 95 97 98 99 99 98 98 98 96 94 91 88 86 86 87 88 93 94 90 83 76 64 55 49 37 24 20 19 11 9
9 11 12 18 27 30 37 56 71 78 86 87 87 89 90 97 95 92 97 97 98 98 98 99 99 99 98 96 95 94 93 91 88 86 85 87 88 87 89 92 93 94 91 79 64 48 35 24 21 18 13 12
11 12 13 19 27 45 61 62 70 82 88 89 88 91 91 95 97 94 95 97 99 99 99 100 98 97 97 96 93 91 88 86 85 83 81 82 84 84 85 87 89 93 95 93 85 65 41 28 23 18 16 16
12 12 14 18 22 50 75 71 79 88 87 86 82 87 92 94 98 99 98 98 100 99 97 97 97 97 97 97 94 89 85 81 79 79 76 73 73 74 77 79 78 80 85 92 95 87 68 50 43 34 24 19
12 12 14 18 19 35 61 79 96 92 78 79 81 87 92 92 95 95 97 100 99 97 95 95 97 98 98 97 94 88 85 82 78 77 75 70 67 65 66 68 69 69 70 77 83 87 86 78 75 68 51 35
11 14 13 16 18 24 43 63 81 93 93 85 78 81 81 84 91 93 97 98 91 91 95 98 99 99 98 97 95 91 87 85 82 78 76 73 69 64 61 58 59 60 58 59 63 69 76 78 80 81 74 62
9 13 15 16 18 21 34 44 55 79 96 90 77 74 75 79 85 92 98 95 88 91 98 99 100 98 97 100 98 94 90 89 88 82 76 75 72 69 66 58 50 49 48 47 48 50 55 59 63 67 69 69
7 11 14 16 20 23 31 43 53 61 69 79 90 89 84 85 89 94 99 98 92 93 98 99 101 97 93 99 100 96 92 90 91 89 84 80 76 72 72 69 61 53 48 47 47 46 48 51 51 51 52 55
6 8 13 16 19 24 33 45 54 55 55 63 83 93 84 82 93 99 98 100 96 93 97 99 100 97 93 97 100 97 91 89 90 91 93 92 87 81 75 73 73 69 64 60 59 60 62 65 63 62 60 57
6 6 10 16 18 22 36 53 57 56 59 57 62 77 83 86 94 100 99 96 97 98 99 100 98 96 96 98 100 97 91 90 93 95 97 99 98 95 90 82 76 74 74 73 71 71 72 74 78 83 87 83
6 6 7 13 19 23 31 51 65 62 64 68 60 59 77 94 92 89 95 92 94 100 99 98 97 97 99 99 100 98 96 96 96 96 96 96 96 97 97 96 91 85 81 78 77 77 76 76 79 84 91 95
7 7 8 9 15 24 29 44 74 77 67 74 73 61 63 83 91 83 88 95 97 98 94 95 98 99 101 99 100 100 99 100 98 94 92 92 92 91 92 94 96 96 94 91 87 85 82 80 79 79 81 84
9 8 9 10 11 21 28 39 78 95 81 79 85 82 67 69 92 98 97 97 96 97 96 97 99 100 101 98 98 100 100 100 99 93 89 89 90 90 91 90 91 93 95 97 97 97 95 91 89 86 82 79
11 12 11 12 10 18 26 34 71 102 100 94 95 97 85 69 75 89 98 99 96 100 101 99 100 100 100 98 95 98 100 100 100 96 91 88 88 89 92 93 92 91 91 92 93 94 96 96 96 95 93 89
13 14 13 14 12 15 25 31 54 88 101 101 99 98 93 79 66 66 85 101 100 98 100 99 100 99 98 98 97 98 99 100 100 99 97 93 88 87 89 91 92 92 92 91 89 89 89 90 91 92 94 95
15 16 16 19 19 14 21 29 41 70 93 99 101 98 91 86 78 67 70 92 101 93 96 101 100 98 99 99 99 97 96 96 99 100 100 98 92 87 86 86 88 89 89 89 89 90 89 88 88 88 89 90
17 18 20 24 33 31 26 29 34 50 73 92 102 102 97 90 88 83 70 80 99 98 97 100 100 100 99 100 100 99 98 97 99 100 99 100 99 94 87 83 83 85 85 84 86 89 92 91 89 87 86 85
21 20 21 24 38 49 47 46 45 46 56 78 95 99 102 98 94 94 83 77 88 96 100 100 99 100 99 100 100 99 100 100 100 100 100 100 100 100 96 87 81 81 82 82 84 88 90 90 89 87 85 83
29 24 23 25 33 51 68 70 60 54 54 69 91 96 97 101 100 96 91 84 81 85 96 101 99 99 100 100 100 100 100 100 100 99 100 100 99 100 100 98 91 85 84 83 83 81 78 76 79 81 81 80
37 33 28 27 33 51 80 91 79 71 68 72 89 99 98 99 99 98 97 95 88 82 85 94 100 100 99 99 99 100 99 100 100 100 100 99 100 100 99 101 99 96 90 83 77 72 68 66 67 70 71 72
40 39 35 31 30 40 68 95 100 95 88 83 85 91 99 100 94 96 101 99 96 90 81 81 92 98 100 101 100 100 100 100 99 99 100 100 99 100 100 100 100 101 97 88 79 73 72 72 70 66 61 61
41 41 40 39 36 35 49 74 93 100 100 98 92 85 92 101 97 97 100 98 98 99 92 85 87 90 91 93 96 100 100 100 100 99 100 100 100 99 99 100 99 100 100 96 90 86 86 87 87 81 72 67
44 44 43 43 43 42 42 50 62 75 85 92 96 95 94 98 100 100 100 98 98 100 100 97 95 94 92 92 96 100 100 100 100 100 100 100 100 100 99 100 100 99 100 99 98 98 97 97 98 96 91 86
48 48 48 46 45 45 44 45 46 51 56 60 69 84 94 95 92 93 97 100 100 99 100 100 99 99 100 99 100 100 99 99 99 100 101 100 99 100 100 99 99 100 100 100 100 100 100 100 100 98 97 97
57 55 55 54 52 49 47 46 46 45 45 43 43 52 67 79 82 80 81 88 95 98 99 99 99 99 99 100 100 100 99 99 100 100 100 100 100 99 100 100 100 100 99 99 100 100 100 100 99 97 99 100
50 51 53 55 55 55 52 49 48 46 45 44 42 41 44 53 63 64 61 63 72 82 90 95 97 98 100 100 100 99 99 99 100 100 99 100 100 99 98 98 98 98 97 97 99 100 100 100 98 97 99 100
32 33 35 39 42 45 48 49 50 50 49 47 46 45 43 43 46 48 49 46 48 55 66 78 86 90 92 97 100 98 98 99 99 99 100 100 100 100 99 96 93 94 95 95 94 97 99 100 100 99 99 100

ECMWFFLT2_700_rhum_150.txt.gz
RH
11 10 10 11 14 16 18 20 20 19 21 21 23 21 18 22 33 48 53 57 67 73 90 98 96 99 97 98 100 99 100 100 99 100 101 99 98 100 99 98 97 97 97 96 93 92 88 85 88 86 87 91
10 8 7 7 7 9 10 12 12 12 13 16 21 18 26 53 72 83 79 75 80 85 95 99 98 99 98 99 96 98 101 99 98 99 100 100 99 100 100 100 99 99 99 99 99 98 94 92 90 84 85 86
13 13 11 9 7 5 5 6 5 7 7 10 16 16 46 85 93 96 96 94 96 95 98 100 99 98 97 98 95 95 98 98 98 98 98 98 99 99 100 99 98 99 99 99 97 98 98 98 96 91 86 84
17 18 17 14 12 7 4 4 3 5 5 8 11 14 51 91 93 97 100 98 101 100 99 100 100 99 98 99 97 95 96 97 99 98 97 98 100 100 99 98 96 96 98 99 95 93 96 98 99 99 90 85
17 17 17 16 15 12 8 5 4 5 5 8 11 11 35 66 77 85 91 92 97 98 100 99 99 99 99 99 99 99 98 98 100 98 98 99 100 99 98 96 97 97 97 98 97 94 97 99 99 101 95 86
16 15 14 14 13 13 11 8 5 4 5 7 12 16 25 45 62 72 81 89 90 92 97 96 96 98 98 97 96 100 99 98 100 99 98 99 99 98 96 96 97 98 97 96 96 95 97 100 99 100 94 82
17 15 13 12 12 11 12 11 9 5 5 6 11 20 27 46 71 82 87 89 87 87 90 92 93 96 95 93 94 98 98 98 100 100 98 98 100 96 92 94 97 99 99 97 96 95 93 95 98 97 91 79
17 15 13 11 10 10 11 11 11 8 5 6 11 17 26 48 75 91 95 91 91 91 89 90 91 92 92 91 93 93 93 95 99 100 99 99 101 98 94 95 99 100 99 98 99 98 93 86 82 79 75 69
17 15 13 11 11 10 11 10 11 10 7 6 10 15 29 58 83 96 100 96 97 99 95 92 89 89 91 93 92 89 89 92 97 100 100 100 100 99 99 98 99 100 98 98 99 100 98 89 72 55 48 50
18 16 14 13 13 12 11 10 10 10 10 6 8 16 28 52 71 85 98 94 91 96 97 93 90 93 95 96 94 90 91 91 94 97 98 100 100 99 100 99 99 98 97 98 98 99 100 98 87 67 46 38
18 16 15 15 15 15 13 12 11 10 12 9 7 13 21 31 37 56 79 76 77 89 92 88 86 96 99 98 97 94 95 94 91 91 91 94 96 98 99 100 99 97 96 96 97 98 98 99 99 92 75 54
19 18 18 18 17 17 16 14 13 11 12 12 10 8 12 21 28 43 55 53 66 80 83 84 83 95 100 98 99 95 96 97 94 92 88 90 92 95 99 99 97 93 92 94 95 97 98 97 97 98 96 84
20 20 20 21 20 18 18 16 15 13 13 14 14 12 11 17 25 38 47 51 67 76 79 81 77 92 102 99 100 96 96 96 95 92 86 89 93 94 97 95 90 86 83 85 90 92 94 94 93 95 98 98
22 22 21 22 22 21 20 18 17 16 15 15 16 17 16 19 25 34 44 53 63 70 73 68 64 83 97 97 100 98 99 97 94 91 82 85 94 96 94 90 86 82 78 76 80 83 85 86 87 88 91 96
24 24 23 23 23 24 23 21 20 18 17 18 20 23 22 25 34 42 52 59 64 65 63 59 61 73 83 93 101 99 98 98 98 95 85 85 94 97 93 89 87 83 79 75 74 74 75 78 83 88 87 86
25 24 24 24 25 26 26 24 23 22 20 18 21 26 29 32 35 52 78 87 86 84 73 65 67 69 69 80 96 99 94 92 98 100 94 91 95 99 96 90 88 84 81 79 77 74 70 69 77 88 86 77
26 26 25 25 25 26 27 28 27 25 24 22 21 22 30 38 36 54 92 102 97 98 88 79 80 75 67 74 90 99 95 93 98 100 99 98 98 99 99 95 92 88 84 81 82 82 77 68 67 73 73 69
27 28 28 28 28 29 29 30 30 29 28 26 25 22 24 37 43 58 88 101 100 101 94 90 92 85 77 86 97 99 97 96 98 100 99 100 100 100 100 98 97 95 91 87 85 87 88 82 72 66 65 66
25 27 29 30 30 31 32 33 34 33 33 30 28 27 23 28 42 61 83 95 98 100 99 97 98 92 85 92 100 100 100 99 99 100 100 100 100 100 100 100 100 99 98 96 93 90 92 93 88 80 77 77
22 24 26 29 30 32 33 34 36 36 37 36 33 32 29 25 30 47 73 93 98 99 101 100 100 99 93 91 94 93 95 99 100 99 99 100 99 99 100 100 100 100 100 100 100 97 95 95 96 95 92 92
18 21 23 26 29 32 34 34 37 40 40 41 39 37 35 32 28 29 47 74 94 100 100 99 100 100 99 97 95 90 91 98 100 98 99 100 99 100 99 99 100 100 100 100 100 100 99 97 96 97 96 94
17 20 23 25 28 31 35 36 38 41 43 44 44 43 40 38 36 31 29 40 64 84 95 99 100 99 99 100 100 98 97 99 100 99 100 100 100 100 99 100 100 98 100 100 100 100 100 100 98 96 96 95
16 19 23 25 27 30 32 35 37 39 42 43 45 47 46 44 41 38 34 30 35 52 72 87 94 99 100 99 99 100 100 100 100 101 100 100 100 100 100 100 100 99 99 99 100 100 99 100 99 98 98 97
12 14 15 15 16 17 20 23 27 30 34 37 41 44 47 48 46 43 41 37 32 33 45 63 78 89 97 101 100 99 100 100 100 100 99 99 100 100 100 100 100 100 100 100 100 100 100 100 100 100 100 99
7 7 7 7 7 7 8 8 10 13 18 23 28 33 39 44 47 48 46 44 40 35 34 43 59 74 86 94 98 99 100 100 100 100 99 99 100 100 100 100 100 99 98 100 100 100 100 99 100 100 100 100
7 7 6 7 7 6 6 6 6 5 6 8 11 16 22 29 36 41 45 46 46 42 38 37 44 60 74 82 91 97 99 101 100 99 99 100 100 100 99 99 100 99 98 99 99 100 100 99 100 100 100 99
7 7 7 7 7 7 7 7 7 6 6 6 6 6 8 13 19 25 32 38 43 45 44 41 38 45 57 68 79 86 93 99 100 99 100 100 100 100 100 99 99 100 100 99 99 100 100 100 100 100 100 99
8 8 8 8 8 8 8 8 8 7 7 7 6 6 5 5 7 11 17 24 31 37 41 44 43 40 42 49 58 67 76 88 95 98 99 100 100 100 100 100 99 100 100 100 100 99 99 99 100 100 100 99
10 10 9 9 9 9 9 9 9 8 8 8 7 6 6 6 5 5 8 12 18 24 28 34 41 44 43 42 44 48 55 66 79 89 95 100 101 99 99 100 99 100 100 100 100 99 100 100 99 99 99 100
11 11 11 11 10 10 10 9 9 9 9 9 8 7 7 6 6 5 5 6 9 13 17 20 26 34 40 43 43 43 44 48 60 72 80 89 97 98 98 99 99 100 100 100 100 99 100 100 100 98 98 100
14 14 13 12 12 11 10 10 9 9 9 9 9 8 8 6 6 6 5 5 5 6 9 11 13 17 23 32 37 40 41 40 45 54 59 69 82 90 93 96 98 99 100 100 100 100 99 100 100 98 97 98

ECMWFFLT2_700_rhum_156.txt.gz
RH
13 13 13 13 12 9 7 6 5 6 5 5 6 7 7 6 5 4 4 5 7 12 17 18 20 23 24 37 57 61 47 33 29 39 52 58 60 73 82 81 87 90 90 91 89 92 90 87 89 88 86 80
18 18 19 19 18 15 12 11 9 8 6 5 5 6 7 7 7 5 4 5 8 17 24 30 37 45 49 57 72 79 74 59 46 48 62 71 68 75 88 86 86 91 93 97 95 96 93 88 88 90 92 87
21 22 22 22 21 19 17 15 13 12 10 8 6 6 6 6 7 7 6 4 6 18 31 47 64 73 82 87 88 91 90 82 70 65 69 78 82 83 93 91 84 87 93 98 98 101 98 92 91 90 95 96
22 23 22 22 21 19 17 15 14 13 12 11 9 8 7 6 6 6 8 6 5 11 25 52 78 84 86 89 88 89 94 96 91 86 82 82 89 93 97 95 86 86 94 99 99 100 100 98 98 95 95 97
23 22 21 20 18 17 16 15 14 13 11 11 10 9 8 7 6 6 7 7 6 6 12 35 71 87 87 86 83 82 88 96 97 96 93 90 94 95 96 98 91 84 87 95 99 101 100 100 100 100 98 98
21 20 18 17 16 15 15 14 13 13 12 11 10 9 9 8 7 6 6 6 6 7 8 18 50 82 91 89 84 81 83 90 94 94 93 91 93 93 93 96 93 86 85 88 94 100 100 99 100 100 100 100
17 16 16 15 15 14 14 13 13 12 12 12 11 10 9 8 8 7 7 6 7 7 8 11 28 57 78 83 80 79 81 88 93 94 94 89 85 88 93 96 95 91 89 90 91 96 98 99 100 100 99 99
15 15 15 14 14 13 13 12 11 11 11 11 11 11 10 9 9 9 8 7 7 7 8 10 16 32 54 69 77 84 88 89 94 96 95 93 87 85 93 99 99 94 91 92 92 92 95 97 97 98 99 99
14 13 13 12 11 10 9 8 8 8 8 9 10 10 11 11 11 10 10 9 8 8 8 8 11 24 48 66 69 78 93 94 94 97 95 93 93 89 91 99 101 97 92 92 92 91 92 94 95 96 98 99
9 9 7 7 6 5 5 4 4 4 4 5 6 8 9 10 12 12 12 11 10 9 9 8 11 22 47 74 75 65 80 99 98 96 96 94 95 94 92 93 97 100 97 93 93 93 93 94 94 93 95 97
5 4 4 3 3 2 2 2 2 2 2 2 3 3 5 6 9 11 12 13 12 11 10 10 11 16 29 60 89 83 74 91 101 97 96 95 95 96 94 91 92 96 100 98 97 96 96 96 96 94 93 94
2 2 2 2 2 2 1 2 2 2 2 1 2 2 2 3 4 6 9 11 14 14 13 11 11 14 17 30 71 98 90 87 95 96 95 95 96 93 92 93 91 92 97 100 99 98 99 98 98 97 94 94
2 1 2 1 2 2 1 2 1 1 2 1 1 1 1 1 2 2 4 6 9 13 14 15 12 12 17 19 37 75 97 96 91 91 93 96 98 96 93 93 93 95 97 99 100 98 98 97 97 98 97 97
2 2 2 2 2 2 2 2 2 2 2 2 2 2 2 1 2 1 1 2 3 7 10 14 16 13 14 18 22 40 70 91 92 90 96 100 99 99 98 96 97 99 99 100 100 97 95 94 94 96 97 96
2 2 2 2 2 2 2 2 2 2 2 2 2 2 2 2 2 2 1 2 1 2 4 7 12 16 16 15 18 24 40 68 84 87 95 101 100 99 99 100 100 100 100 99 100 98 94 91 91 91 92 93
3 3 2 2 2 2 2 2 2 2 2 2 2 1 2 2 2 2 2 2 3 2 2 2 4 9 15 17 17 19 25 45 67 81 90 96 99 98 97 100 101 99 100 100 100 98 93 90 89 89 89 89
3 2 3 2 2 2 2 2 2 2 2 1 2 2 1 2 1 2 2 2 2 3 2 2 2 2 6 13 18 20 22 32 52 72 83 90 96 99 99 99 100 101 99 99 100 99 95 87 84 86 89 89
3 3 3 2 2 3 2 3 3 2 3 2 2 2 2 2 2 2 2 2 2 2 3 2 3 3 1 4 9 16 21 28 47 68 80 85 86 92 99 101 99 99 97 98 100 100 98 91 85 84 86 89
4 3 3 3 3 3 3 3 3 3 3 3 3 3 3 3 3 3 2 2 2 2 3 3 3 3 3 2 2 6 13 21 38 64 88 95 86 82 88 98 102 99 95 96 98 100 100 96 93 87 84 88
4 4 4 4 4 4 4 4 4 4 4 4 4 4 4 4 4 3 3 3 3 3 2 3 3 3 3 4 2 2 4 10 20 41 75 94 94 90 84 86 96 101 99 98 98 100 100 99 99 94 89 91
5 5 5 5 5 5 5 5 5 5 5 5 5 5 5 5 5 4 4 4 3 3 3 3 3 4 4 4 4 3 1 3 7 16 41 64 78 90 92 87 89 96 102 100 95 99 101 99 100 99 96 95
7 6 6 6 7 7 6 7 6 6 6 6 6 7 6 6 6 5 5 5 4 4 4 4 3 3 4 4 4 5 4 2 3 4 13 32 49 65 79 88 92 94 101 98 89 96 102 99 100 101 99 99
9 8 8 8 8 9 9 8 9 8 8 8 8 8 7 7 6 6 6 5 5 5 4 4 4 4 4 5 5 5 5 4 3 3 2 9 23 36 50 65 81 92 101 96 86 92 102 100 100 100 100 100
11 11 11 11 11 10 11 11 10 10 10 10 9 9 8 8 8 7 7 6 6 6 6 6 5 6 5 5 6 6 6 5 3 4 3 2 5 16 29 39 55 77 95 99 91 92 99 100 100 100 100 100
14 14 13 13 13 12 13 12 12 12 12 11 10 10 10 9 9 8 8 7 7 7 7 7 7 7 7 7 7 7 7 7 5 4 3 3 2 3 13 24 36 55 76 93 98 98 100 100 100 99 100 100
17 16 16 15 15 15 15 14 14 14 13 13 12 12 11 11 11 10 9 9 8 9 8 8 9 9 9 9 9 9 9 8 7 6 4 4 4 2 3 10 21 34 50 70 86 96 100 100 100 100 99 100
20 19 18 18 18 17 17 16 16 16 15 15 15 14 14 13 13 12 11 11 10 11 11 10 11 10 11 11 11 10 10 10 8 7 6 4 4 4 3 4 8 17 29 43 59 76 91 99 99 100 100 100
22 22 21 20 20 19 19 19 18 18 18 18 18 17 17 16 15 14 13 13 13 13 13 13 12 12 12 12 12 12 11 11 10 8 7 6 5 4 4 4 4 7 14 24 36 49 69 89 98 100 100 100
25 25 24 23 22 22 22 22 21 21 21 20 20 20 20 19 18 17 16 15 16 15 15 15 14 14 14 13 12 13 12 11 11 10 8 7 6 5 4 4 4 5 7 12 20 29 45 70 87 96 101 100
27 27 27 26 25 25 24 24 24 24 23 23 23 22 22 21 21 20 19 18 18 18 17 17 16 15 15 15 13 13 13 12 11 10 8 7 6 6 5 5 4 5 6 7 11 17 29 50 67 81 96 101
28 29 29 28 27 27 27 26 27 27 27 27 26 26 25 24 24 23 22 21 20 19 19 18 17 17 16 16 16 15 14 13 11 9 8 7 6 6 6 5 5 4 5 6 8 10 18 35 51 60 79 95

ECMWFFLT2_700_rhum_162.txt.gz
RH
12 12 12 11 11 10 10 9 9 9 9 8 8 7 7 7 6 6 6 6 6 5 6 6 6 5 5 6 6 6 5 5 5 5 5 6 7 9 13 16 16 14 21 27 29 33 29 22 26 33 41 49
13 13 12 11 10 10 10 10 10 10 9 9 8 8 7 7 7 7 7 7 6 6 6 6 6 6 6 6 6 6 6 6 6 6 6 8 10 12 17 22 21 22 38 56 56 52 46 32 28 33 40 46
13 13 12 11 11 11 11 10 10 9 8 7 6 6 5 5 5 5 5 5 6 6 6 6 7 7 6 6 6 6 7 7 7 7 9 12 13 13 20 32 34 33 44 66 73 68 61 47 36 36 43 49
13 12 12 11 11 10 9 7 6 5 4 4 3 3 3 3 2 2 3 3 3 3 4 4 5 6 6 7 7 7 7 7 8 8 11 15 18 16 18 34 45 45 49 63 73 75 73 64 53 47 54 63
12 11 10 9 8 6 5 4 4 3 2 2 2 2 2 2 2 2 2 2 2 2 2 2 3 3 4 6 6 7 7 7 8 8 8 11 19 23 22 32 49 54 56 67 73 74 77 77 72 65 67 78
9 8 7 5 5 4 3 3 2 2 2 2 2 2 2 2 2 2 2 2 2 2 2 1 2 2 2 3 3 5 6 7 9 8 9 8 11 20 23 28 45 55 54 62 69 69 73 81 84 82 81 85
6 5 4 3 3 2 2 2 2 2 2 2 2 2 2 2 2 2 2 2 2 1 2 2 1 2 1 2 2 2 3 5 7 9 10 11 8 10 15 17 30 47 52 53 56 54 58 75 86 88 89 90
4 3 3 3 2 2 2 2 2 2 2 2 2 2 2 2 2 1 2 1 2 2 1 2 1 2 1 1 2 1 2 2 3 6 8 11 12 10 11 11 14 28 44 54 62 57 48 59 74 83 92 93
3 2 2 2 2 2 2 2 2 2 2 2 2 2 2 2 2 2 2 2 2 2 2 2 2 2 2 1 1 1 1 2 1 2 4 5 9 12 13 14 11 12 24 44 70 78 63 57 60 65 83 93
2 2 2 2 2 2 2 2 2 2 2 2 2 2 2 2 2 2 2 2 2 2 2 2 2 2 2 2 1 2 1 1 2 1 1 2 3 6 9 13 16 16 18 24 45 69 74 75 71 59 70 85
2 2 2 2 2 2 2 2 2 2 2 2 2 2 2 2 2 3 2 3 3 2 2 2 2 2 2 2 1 2 2 1 2 2 1 2 1 2 3 6 11 18 23 22 25 39 53 78 93 78 71 80
2 2 2 2 2 2 2 2 2 2 2 2 2 2 3 3 3 3 3 3 2 2 2 2 1 1 1 1 1 1 2 2 1 2 2 1 2 1 1 2 3 8 16 24 27 27 31 61 95 92 78 82
2 2 2 2 2 2 2 2 2 2 2 2 2 3 3 3 3 3 3 3 3 2 1 1 1 1 1 1 1 1 1 1 1 2 2 2 2 1 2 2 1 2 5 13 22 31 33 46 75 85 77 78
2 2 3 3 3 2 2 2 2 2 2 3 3 3 3 3 3 3 3 3 3 2 1 1 1 1 2 1 1 1 1 1 1 1 1 1 2 2 2 2 2 1 2 4 9 24 36 42 61 79 78 74
3 3 3 3 3 2 2 2 2 3 3 3 3 3 3 3 4 4 4 3 3 2 1 1 2 1 1 2 1 1 1 1 1 1 1 1 1 1 2 2 3 2 2 2 2 7 18 29 46 65 71 64
3 3 3 3 3 2 2 3 3 3 3 4 4 4 4 4 4 4 4 3 2 1 2 2 1 2 1 2 2 1 2 1 1 1 1 1 1 1 1 1 2 3 3 2 2 2 4 9 20 35 47 50
3 3 3 3 3 3 3 3 3 3 4 4 5 5 5 5 5 4 4 3 2 2 2 2 2 2 2 2 2 2 2 2 2 1 1 1 1 1 1 1 1 2 3 3 3 2 2 2 3 11 25 47
4 3 3 4 3 4 4 4 4 4 4 4 5 5 5 6 5 5 4 3 2 2 2 2 2 2 2 2 2 2 2 2 2 2 2 1 1 2 1 1 1 1 2 2 3 3 3 3 1 3 7 30
4 4 4 4 4 5 5 5 5 4 4 5 5 5 6 6 6 5 4 4 3 3 3 2 2 2 2 2 2 2 2 2 2 2 2 2 2 2 1 1 1 1 1 1 2 3 3 3 2 3 0 8
5 5 5 6 6 6 6 6 6 6 5 6 6 6 6 7 7 6 5 5 4 4 3 3 3 3 2 3 3 3 3 2 3 3 2 2 2 2 2 2 1 1 1 1 1 1 3 4 3 4 1 2
7 7 7 7 7 8 8 8 8 8 8 7 7 7 7 8 7 7 6 5 5 5 5 4 4 4 3 3 3 3 3 3 3 3 3 3 3 3 2 2 2 2 2 1 2 1 2 3 3 4 3 2
9 9 9 9 9 9 10 10 10 10 10 9 9 9 8 9 8 8 7 7 6 6 6 6 5 5 5 4 4 4 3 3 4 3 3 3 3 3 3 3 2 2 2 2 2 2 1 2 3 4 4 3
12 11 11 11 11 11 11 12 12 12 12 12 12 11 11 10 10 9 9 8 8 8 8 7 7 7 6 6 5 5 4 4 4 4 4 4 3 4 3 3 3 2 3 2 2 2 2 2 3 3 5 4
13 13 13 13 13 13 14 13 14 14 14 14 14 14 13 13 12 11 11 10 10 10 10 9 9 9 8 8 8 7 6 5 5 4 4 4 4 4 4 4 4 3 3 3 3 3 3 3 3 3 5 6
15 15 14 15 15 15 16 16 16 17 16 16 16 16 16 15 14 13 13 13 12 12 12 11 11 11 11 10 10 9 9 8 7 6 5 5 5 4 5 4 4 4 3 3 3 3 3 3 5 5 4 6
16 16 16 16 17 17 18 18 18 18 19 18 18 18 18 17 16 16 15 15 14 14 14 14 13 13 13 12 12 12 11 11 10 9 8 6 6 5 5 5 5 5 4 4 4 3 3 3 4 5 5 5
17 17 18 18 19 19 19 20 20 20 20 20 19 20 19 19 18 18 17 17 17 17 16 16 15 15 14 14 14 13 13 13 12 12 11 9 8 7 6 7 7 7 7 5 5 5 5 5 4 4 5 6
18 18 20 20 20 21 21 21 22 22 22 21 21 21 21 21 21 20 20 20 19 19 18 18 17 17 16 16 16 15 15 14 14 14 14 13 11 10 8 8 8 9 10 8 7 7 7 7 7 6 6 7
20 21 22 23 24 25 25 25 26 26 26 25 25 25 25 25 24 23 23 23 22 21 21 20 19 19 18 18 17 17 17 16 16 16 15 15 15 14 12 10 10 10 12 12 10 11 11 10 10 10 10 9
24 25 27 28 29 30 30 30 31 31 30 29 30 29 28 29 28 27 26 25 25 24 24 23 22 22 20 20 20 19 19 18 18 18 18 18 17 18 17 15 13 12 13 15 15 15 16 15 14 13 13 12
29 30 31 32 33 34 34 34 34 34 33 32 33 32 32 33 32 31 29 28 28 27 27 26 26 25 24 23 23 22 21 21 21 21 20 20 20 20 20 19 17 15 16 16 18 20 20 20 19 17 16 15